GFSSGP_con_sbcape_000.txt.gz
CAPE
0 0 0 0 0 0 0 0 0 0 76 52 49 17 191 325 180 81 185 80 188 433 663 944 1372 1607 1887 2010 1945 2150 2419 2135 2107 1911 1701 1566 1362 1303 1637 992 614 433 466 526 884 1122 1473 1708 1472
0 0 0 0 0 0 0 0 0 2 213 161 178 241 423 600 658 485 106 83 268 428 620 1030 1458 1700 1930 2109 2447 2620 2670 2427 2311 2172 1966 1785 1661 1627 1580 1093 597 435 434 766 851 698 1171 1356 1093
0 0 0 0 0 0 0 0 49 123 136 54 408 372 518 782 853 638 163 180 464 531 631 1234 1404 1573 1865 1933 2085 2417 2747 2837 2678 2422 2285 2124 1871 1734 1853 1081 359 474 459 555 759 1052 1064 1345 895
0 0 0 0 0 0 0 0 68 92 26 210 403 521 421 530 918 529 234 500 429 426 551 1241 1368 1600 1879 1830 1796 2006 2216 2356 2330 2213 2199 2127 1889 1644 1541 1073 716 734 777 831 1002 1118 1479 1459 1056
0 0 0 0 0 0 0 0 0 0 0 0 86 523 582 637 596 347 436 437 390 481 604 1003 1339 1598 1913 1806 1825 1943 1952 2103 2357 2369 2270 2159 1980 1563 660 621 964 805 991 811 707 614 416 657 605
0 0 0 0 0 0 0 0 0 0 0 41 232 396 517 657 581 488 508 381 446 623 782 796 1124 1302 1591 1702 1657 1655 1741 1837 1888 2028 2151 1949 1601 1403 1154 986 995 845 928 905 739 690 522 444 393
0 0 0 0 0 0 0 0 0 0 0 0 107 484 626 667 756 641 643 382 529 603 681 641 717 800 897 1007 1135 1293 1552 1708 1554 1425 1512 1397 1256 1084 783 603 492 332 333 212 226 256 408 412 300
0 0 0 0 0 0 0 0 0 0 0 0 0 476 652 720 721 722 870 662 537 591 495 396 282 161 119 316 679 901 1185 1452 1244 895 689 610 719 557 362 61 171 142 142 120 84 37 17 0 0
0 0 0 0 0 0 0 0 0 0 0 0 0 55 18 649 457 712 865 910 885 711 425 212 134 18 0 0 207 621 951 1199 1119 670 416 157 0 0 0 8 24 108 34 5 2 0 0 0 0
0 0 0 0 0 0 0 0 0 0 0 0 22 0 139 368 435 772 996 1141 965 933 660 209 148 32 0 0 4 34 148 557 768 488 79 0 0 0 0 0 0 0 0 0 0 0 0 0 0
0 0 0 0 0 0 0 0 0 0 0 0 0 6 294 461 166 624 749 914 918 734 775 529 288 153 36 0 0 0 0 2 62 271 16 0 0 0 0 0 0 0 0 0 0 0 0 0 0
0 0 0 0 0 0 0 0 0 0 0 0 0 3 277 632 345 172 267 377 184 388 784 506 425 376 147 36 14 0 0 0 0 0 0 0 0 0 0 0 0 0 0 0 0 0 0 0 0
0 0 0 0 0 0 0 0 0 0 0 0 0 0 469 682 509 4 14 4 0 61 43 9 0 11 0 0 0 0 0 0 0 0 0 0 0 0 0 0 0 0 0 0 0 0 0 0 0
0 0 0 0 0 0 0 0 0 0 0 0 0 0 112 466 521 0 0 0 0 0 0 0 0 0 0 0 0 0 0 0 0 0 0 0 0 0 0 0 0 0 0 0 0 0 0 0 0
0 0 0 0 0 0 0 0 0 0 0 0 0 0 0 1 0 0 0 0 0 0 0 0 0 0 0 0 0 0 0 0 0 0 0 0 0 0 0 0 0 0 0 0 0 0 0 0 0
0 0 0 0 0 0 0 0 0 0 0 0 0 0 0 0 0 0 0 0 0 0 0 0 0 0 0 0 0 0 0 0 0 0 0 0 0 0 0 0 0 0 0 0 0 0 0 0 0
0 0 0 0 0 0 0 0 0 0 0 0 0 0 0 0 0 0 0 0 0 0 0 0 0 0 0 0 0 0 0 0 0 0 0 0 0 0 0 0 0 0 0 0 0 0 0 0 0
0 0 0 0 0 0 0 0 0 0 0 0 0 0 0 0 0 0 0 0 0 0 0 0 0 0 0 0 0 0 0 0 0 0 0 0 0 0 0 0 0 0 0 0 0 0 0 0 0
0 0 0 0 0 0 0 0 0 0 0 0 0 0 0 0 0 0 0 0 0 0 0 0 0 0 0 0 0 0 0 0 0 0 0 0 0 0 0 0 0 0 0 0 0 0 0 0 0
0 0 0 0 0 0 0 0 0 0 0 0 0 0 0 0 0 0 0 0 0 0 0 0 0 0 0 0 0 0 0 0 0 0 0 0 0 0 0 0 0 0 0 0 0 0 0 0 0
0 0 0 0 0 0 0 0 0 0 0 0 0 0 0 0 0 0 0 0 0 0 0 0 0 0 0 0 0 0 0 0 0 0 0 0 0 0 0 0 0 0 0 0 0 0 0 0 0
0 0 0 0 0 0 0 0 0 0 0 0 0 0 0 0 0 0 0 0 0 0 0 0 0 0 0 0 0 0 0 0 0 0 0 0 0 0 0 0 0 0 0 0 0 0 0 0 0
0 0 0 0 0 0 0 0 0 0 0 0 0 0 0 0 0 0 0 0 0 0 0 0 0 0 0 0 0 0 0 0 0 0 0 0 0 0 0 0 0 0 0 0 0 0 0 0 0
0 0 0 0 0 0 0 0 0 0 0 0 0 0 0 0 0 0 0 0 0 0 0 0 0 0 0 0 0 0 0 0 0 0 0 0 0 0 0 0 0 0 0 0 0 0 0 0 0
0 0 0 0 0 0 0 0 0 0 0 0 0 0 0 0 0 0 0 0 0 0 0 0 0 0 0 0 0 0 0 0 0 0 0 0 0 0 0 0 0 0 0 0 0 0 0 0 0
0 0 0 0 0 0 0 0 0 0 0 0 0 0 0 0 0 0 0 0 0 0 0 0 0 0 0 0 0 0 0 0 0 0 0 0 0 0 0 0 0 0 0 0 0 0 0 0 0
0 0 0 0 0 0 0 0 0 0 0 0 0 0 0 0 0 0 0 0 0 0 0 0 0 0 0 0 0 0 0 0 0 0 0 0 0 0 0 0 0 0 0 0 0 0 0 0 0
0 0 0 0 0 0 0 0 0 0 0 0 0 0 0 0 0 0 0 0 0 0 0 0 0 0 0 0 0 0 0 0 0 0 0 0 0 0 0 0 0 0 0 0 0 0 0 0 0
0 0 0 0 0 2 2 0 0 0 0 0 0 0 0 0 0 0 0 0 0 0 0 0 0 0 0 0 0 0 0 0 0 0 0 0 0 0 0 0 0 0 0 0 0 0 0 0 0
0 0 0 0 0 0 0 0 0 0 0 0 0 0 0 0 0 0 0 0 0 0 0 0 0 0 0 0 0 0 0 0 0 0 0 0 0 0 0 0 0 0 0 0 0 0 0 0 0

GFSSGP_con_sbcape_003.txt.gz
CAPE
0 0 0 0 0 0 0 0 0 10 89 72 77 70 235 353 151 212 295 159 455 851 1032 1205 1316 1498 1583 1703 1831 1878 2100 2081 1983 1885 1714 1549 1645 1708 1524 1197 814 705 665 944 1042 958 1572 1966 1771
0 0 0 0 0 0 0 0 0 89 229 152 208 324 432 431 673 462 367 255 467 782 1019 1225 1434 1674 1914 2097 2183 2431 2469 2338 2226 1998 1836 1713 1730 1840 1866 1317 549 575 572 822 1097 1454 1245 1211 1076
0 0 0 0 0 0 0 0 207 240 78 192 417 396 524 697 702 431 293 279 515 724 1005 1332 1443 1587 1821 2134 2519 2784 2955 2813 2546 2319 2263 2149 1966 1911 1865 1106 572 776 924 1059 1253 1343 1534 1603 1685
0 0 0 0 0 0 0 39 368 187 61 341 399 413 462 581 820 713 100 305 493 602 1004 1226 1359 1614 1776 1843 1962 2201 2339 2393 2295 2155 2181 2154 2050 1885 1333 1165 1096 958 1066 1166 1076 925 692 831 1322
0 0 0 0 0 0 0 0 136 41 25 175 190 498 521 700 713 252 363 461 346 496 882 1134 1282 1485 1744 1781 1805 1796 1904 2103 2221 2191 2171 2068 1796 1392 934 718 978 1039 1129 1106 1064 858 614 478 462
0 0 0 0 0 0 0 0 0 0 32 125 450 455 516 581 541 412 498 403 304 385 766 1002 1264 1440 1522 1614 1614 1573 1717 1814 1815 1805 1947 1853 1593 1413 1262 1135 820 673 480 515 540 730 987 949 842
0 0 0 0 0 0 0 0 0 0 3 0 165 350 490 784 727 615 505 320 418 570 712 882 884 895 882 958 1017 1186 1454 1486 1375 1319 1176 1133 1197 915 683 559 417 289 309 322 241 286 272 206 171
0 0 0 0 0 0 0 0 0 0 0 0 29 243 796 946 818 697 532 344 479 650 668 709 632 379 440 627 571 808 1060 1262 981 747 481 419 435 227 210 1 55 137 166 130 73 27 8 0 0
0 0 0 0 0 0 0 0 0 0 0 0 0 220 91 981 848 904 940 569 575 563 570 453 321 106 73 210 412 516 781 1049 912 513 234 155 225 87 11 3 0 5 1 0 0 0 0 0 0
0 0 0 0 0 0 0 0 0 0 0 0 0 0 349 883 1124 1221 1333 996 773 739 713 372 360 242 12 3 357 514 524 944 1137 917 502 279 252 115 55 1 0 0 0 0 0 0 0 0 0
0 0 0 0 0 0 0 0 0 0 0 0 0 30 717 1096 1360 1370 1563 1370 1154 1054 922 407 472 402 124 2 307 279 263 548 819 988 830 391 289 271 154 37 0 0 0 0 0 0 0 0 0
0 0 0 0 0 0 0 0 0 0 0 0 0 200 799 941 1178 1563 1642 1653 1309 1287 1389 1140 672 643 820 725 509 361 246 306 577 684 584 595 456 241 46 0 0 1 2 1 0 2 0 0 0
0 0 0 0 0 0 0 0 0 0 0 0 0 138 934 1050 926 1254 1548 1535 1150 1226 1329 1366 1108 1056 1227 711 623 506 429 388 545 638 574 338 286 229 13 0 0 0 2 1 2 0 0 0 0
0 0 0 0 0 0 0 0 0 0 0 0 0 2 759 1167 1108 558 266 689 473 622 919 799 440 477 439 94 176 144 150 359 359 498 573 360 204 181 55 39 23 30 0 1 0 0 0 0 0
0 0 0 0 0 0 0 0 0 0 0 0 0 0 151 857 1127 900 633 276 151 304 184 57 123 76 130 0 0 0 0 0 6 43 74 71 62 67 77 119 149 129 91 17 0 0 0 0 0
0 0 0 0 0 0 0 0 0 0 0 0 0 0 0 96 465 212 0 0 0 0 0 0 0 12 48 7 6 2 0 0 0 0 0 0 0 14 68 95 129 144 135 57 0 0 0 0 0
0 0 0 0 0 0 0 0 0 0 0 0 0 0 0 0 0 0 0 0 0 0 0 0 0 23 31 9 7 3 0 0 0 0 0 0 0 10 40 45 40 61 41 13 0 0 0 0 0
0 0 0 0 0 0 0 0 0 0 0 0 0 0 0 0 0 0 0 0 0 0 0 0 0 2 7 0 0 0 0 0 0 0 0 0 0 0 7 0 0 0 0 0 0 0 0 0 0
0 0 0 0 0 0 0 0 0 0 0 0 0 0 0 0 0 0 0 0 0 0 0 0 0 0 0 0 0 0 0 0 0 0 0 0 0 0 0 0 0 0 0 0 0 0 0 0 0
0 0 0 0 0 0 0 0 0 0 0 0 0 0 0 0 0 0 0 0 0 0 0 0 0 0 0 0 0 0 0 0 0 0 0 0 0 0 0 0 0 0 0 0 4 0 0 0 0
0 0 0 0 0 0 0 0 0 0 0 0 0 0 0 0 0 0 0 0 0 0 0 0 0 0 0 0 0 0 0 0 0 0 0 0 0 0 0 0 0 0 0 0 4 3 0 0 0
0 0 0 0 0 0 0 0 0 0 0 0 0 0 0 0 0 0 0 0 0 0 0 0 0 0 0 0 0 0 0 0 0 0 0 0 0 0 0 0 0 0 0 0 0 0 0 4 4
0 0 0 0 0 0 0 0 0 0 0 0 0 0 0 0 0 0 0 0 0 0 0 0 0 0 0 0 0 0 0 0 0 0 0 0 0 0 0 0 0 0 0 0 0 0 0 0 0
0 0 0 0 0 0 0 0 0 0 0 0 0 0 0 0 0 0 0 0 0 0 0 0 0 0 0 0 0 0 0 0 0 0 0 0 0 0 0 0 0 0 0 0 0 0 0 0 0
0 0 0 0 0 0 0 0 0 0 0 0 0 0 0 0 0 0 0 0 0 0 0 0 0 0 0 0 0 0 0 0 0 0 0 0 0 0 0 0 0 0 0 0 0 0 1 6 13
0 0 0 0 0 0 0 0 0 0 0 0 0 0 0 0 0 0 0 0 0 0 0 0 0 0 0 0 0 0 0 0 0 0 0 0 0 0 0 0 0 0 0 0 0 3 0 0 2
0 0 0 0 0 0 0 0 0 0 0 0 0 0 0 0 0 0 0 0 0 0 0 0 0 0 0 0 0 0 0 0 0 0 0 0 0 0 0 0 0 0 0 0 2 0 0 0 0
0 0 0 0 0 0 0 0 0 0 0 0 0 0 0 0 0 0 0 0 0 0 0 0 0 0 0 0 0 0 0 0 0 0 0 0 0 0 0 0 0 0 0 0 1 18 16 1 0
0 0 0 0 0 1 0 0 0 0 0 0 0 0 0 0 0 0 0 0 0 0 0 0 0 0 0 0 0 0 0 0 0 0 0 0 0 0 0 0 0 0 1 1 7 13 10 9 0
0 0 0 0 0 0 0 0 0 0 0 0 0 0 0 0 0 0 0 0 0 0 0 0 0 0 0 0 0 0 0 0 0 0 0 0 0 0 0 0 1 2 0 12 6 0 0 0 0

GFSSGP_con_sbcape_006.txt.gz
CAPE
0 0 0 0 0 0 0 0 0 143 140 186 135 124 271 436 325 496 504 392 185 607 1012 1167 1208 1508 1754 1790 1773 1783 1806 1876 1840 1764 1574 1437 1685 1714 1499 1131 832 756 732 932 1349 1393 1530 1639 1575
0 0 0 0 0 0 0 0 31 98 214 175 176 252 210 317 499 527 468 280 242 645 1124 1292 1215 1591 1851 1903 1922 2087 2037 2122 1982 1811 1767 1786 1782 1896 1535 907 746 878 994 1202 1316 1407 1692 1626 1488
0 0 0 0 0 0 0 0 150 189 165 236 262 364 385 283 347 312 327 129 246 570 850 1225 1266 1512 1839 2145 2311 2422 2415 2243 2219 2139 2113 2025 1941 1707 1458 1063 908 1039 1186 1288 1402 1253 980 1139 1549
0 0 0 0 0 0 0 31 96 188 299 296 126 229 512 683 471 500 325 189 153 321 586 861 1140 1428 1561 1616 1730 1895 2043 2041 1929 1839 1940 1906 1800 1299 755 916 1003 1020 1183 1185 1211 1038 833 638 693
0 0 0 0 0 0 13 98 198 156 221 336 263 266 431 872 971 529 453 250 149 187 388 441 1022 1221 1407 1491 1465 1458 1652 1803 1845 1840 1818 1658 1447 1300 1004 1019 1068 1104 1051 808 865 1100 1170 1108 1017
0 0 0 0 0 0 21 91 65 20 128 188 194 157 410 983 724 571 488 224 85 202 404 422 783 1101 1309 1403 1350 1367 1481 1489 1469 1555 1672 1443 1275 1157 1089 826 610 491 429 403 409 422 494 495 498
0 0 0 0 0 0 0 0 0 0 2 3 52 24 550 951 695 573 305 167 160 154 326 519 544 690 800 847 922 1087 1362 1269 1116 1007 906 1022 947 710 570 432 251 228 215 166 90 81 105 93 65
0 0 0 0 0 0 0 0 0 0 0 70 63 0 217 677 891 771 350 205 220 375 380 627 795 658 760 748 471 636 866 1043 759 552 317 359 425 193 43 0 21 44 16 12 0 0 0 0 0
0 0 0 0 0 0 0 0 0 0 0 0 0 20 233 894 1045 1005 643 395 424 591 819 918 832 754 670 474 457 232 533 838 682 465 154 262 540 505 153 0 0 0 0 0 0 0 0 0 0
0 0 0 0 0 0 0 0 0 0 0 0 0 24 649 1215 1243 1238 1042 662 814 906 1122 1173 1254 1046 745 220 704 652 535 688 1066 1150 1221 836 912 750 168 1 0 0 0 0 0 0 0 0 0
0 0 0 0 0 0 0 0 0 0 0 0 0 0 822 1154 1276 1122 959 492 923 1135 1279 1243 1486 1436 1079 290 480 348 307 445 712 1358 1550 1203 1143 868 599 422 99 51 0 0 0 0 0 0 0
0 0 0 0 0 0 0 0 0 0 0 0 0 0 496 873 606 468 356 471 613 1074 1330 1487 1443 1642 1622 656 312 363 388 369 505 719 1441 1216 863 730 632 246 11 0 0 1 0 0 0 0 0
0 0 0 0 0 0 0 0 0 0 0 0 0 13 193 323 257 295 222 148 413 1051 1593 1885 1888 1747 1138 1240 473 604 627 330 576 571 499 919 583 418 197 20 0 0 0 2 9 4 0 0 0
0 0 0 0 0 0 0 0 0 0 0 0 0 0 107 178 80 201 372 565 880 1207 1597 2147 2155 1633 690 525 574 300 171 122 127 69 55 375 554 142 8 0 0 0 0 0 1 0 0 0 0
0 0 0 0 0 0 0 0 0 0 0 0 0 0 12 123 56 63 100 497 687 895 1197 1962 1850 676 512 258 84 10 0 13 0 0 13 54 85 26 30 0 0 0 0 0 34 0 0 0 0
0 0 0 0 0 0 0 0 0 0 0 0 0 0 0 122 259 104 226 690 940 784 1038 1486 734 199 148 43 33 16 15 33 26 18 17 22 44 61 57 22 3 5 23 1 12 0 0 0 0
0 0 0 0 0 0 0 0 0 0 0 0 0 0 0 0 380 679 793 703 309 303 727 1190 545 14 10 49 45 53 61 29 0 0 0 1 12 29 66 30 26 63 57 32 23 6 0 0 0
0 0 0 0 0 0 0 0 0 0 0 0 0 0 0 0 212 36 0 0 1 183 703 705 103 40 67 35 6 0 0 0 0 0 0 0 0 0 3 5 23 47 52 34 13 18 12 2 0
0 0 0 0 0 0 0 0 0 0 0 0 0 0 0 0 0 0 0 0 0 185 225 61 31 0 0 0 0 0 0 0 0 0 0 0 0 0 0 0 4 16 22 35 63 55 53 32 15
0 0 0 0 0 0 0 0 0 0 0 0 0 0 0 0 0 0 0 0 0 2 1 0 0 0 0 0 0 0 0 0 0 0 0 0 0 0 0 0 0 0 0 0 12 41 50 57 38
0 0 0 0 0 0 0 0 0 0 0 0 0 0 0 0 0 0 0 0 0 0 0 0 0 0 0 0 0 0 0 0 0 0 0 0 0 0 0 0 0 0 0 0 0 0 2 8 55
0 0 0 0 0 0 0 0 0 0 0 0 0 0 0 0 0 0 0 0 0 0 0 0 0 0 0 0 0 0 0 0 0 0 0 0 0 0 0 0 0 0 0 0 0 0 0 9 14
0 0 0 0 0 0 0 0 0 0 0 0 0 0 0 0 0 0 0 0 0 0 0 0 0 0 0 0 0 0 0 0 0 0 0 0 0 0 0 0 0 0 0 0 0 0 0 2 22
0 0 0 0 0 0 0 0 0 0 0 0 0 0 0 0 0 0 0 0 0 0 0 0 0 0 0 0 0 0 0 0 0 0 0 0 0 0 0 0 0 0 0 0 0 2 5 7 12
0 0 0 1 0 0 0 0 0 0 0 0 0 0 0 0 0 0 0 0 0 0 0 0 0 0 0 0 0 0 0 0 0 0 0 0 0 0 0 0 0 0 0 0 5 13 14 8 9
0 0 0 0 0 0 0 0 0 0 0 0 0 0 0 0 0 0 0 0 0 0 0 0 0 0 0 0 0 0 0 0 0 0 0 0 0 0 0 1 5 13 20 44 55 33 11 22 41
0 0 0 0 0 0 0 0 0 0 0 0 0 0 0 0 0 0 0 0 0 0 0 0 0 0 0 0 0 0 0 0 0 0 0 0 0 0 2 16 12 3 5 8 6 12 10 13 22
0 0 0 0 0 0 0 0 2 0 3 0 0 0 0 0 0 0 0 0 0 1 0 0 0 0 0 0 0 0 0 0 0 0 0 0 5 21 11 4 5 7 13 23 20 15 3 12 4
0 0 0 0 0 0 0 0 0 0 0 0 0 0 0 0 2 9 1 0 0 0 0 0 2 2 0 0 0 0 0 0 0 0 1 8 17 9 7 8 14 21 19 10 15 16 23 16 12
0 0 0 0 0 3 2 0 0 0 0 0 5 2 0 1 13 15 11 2 5 2 0 0 0 0 0 0 0 0 0 1 4 18 18 15 33 39 39 33 20 23 24 18 11 20 17 12 8

GFSSGP_con_sbcape_009.txt.gz
CAPE
0 0 0 0 0 0 3 16 36 30 39 60 1 45 45 179 354 356 249 115 423 766 808 982 1304 1497 1530 1406 1366 1434 1591 1567 1519 1449 1302 1455 1584 1581 1321 969 836 865 1016 1168 1323 1551 1782 1736 1552
0 0 0 0 0 0 15 0 48 69 17 0 0 23 57 128 314 293 138 128 550 883 1018 1188 1226 1698 1656 1667 1705 1803 1811 1679 1563 1537 1604 1635 1681 1592 1306 873 838 1041 1246 1401 1489 1483 1409 1423 1645
0 0 0 0 0 8 15 12 46 13 3 41 14 29 88 118 124 143 83 178 473 731 1092 1169 1186 1476 1921 2120 2109 1971 1961 1870 1885 1886 1886 1903 1732 1478 1120 900 935 1057 1255 1335 1240 1074 827 660 867
0 0 0 0 13 0 6 54 24 16 53 57 2 59 264 179 151 124 50 106 249 383 752 829 1135 1321 1441 1485 1594 1680 1771 1706 1558 1599 1704 1691 1435 954 746 890 1041 1182 1201 958 1013 1200 1201 1121 918
0 0 0 2 6 8 49 43 38 88 74 42 12 13 300 598 272 92 40 23 44 48 184 646 911 1144 1179 1155 1128 1250 1402 1516 1516 1627 1574 1383 1237 1086 969 959 873 619 546 499 519 577 673 771 928
0 0 9 11 13 9 41 42 19 17 28 2 31 89 441 492 237 140 23 0 0 51 135 95 503 885 938 949 987 1138 1237 1210 1205 1374 1350 1165 957 875 746 565 420 365 317 237 186 207 272 303 313
0 0 14 9 1 0 0 0 0 0 0 0 0 37 278 250 231 119 0 0 0 41 175 206 255 344 638 648 764 980 1087 950 835 658 740 795 619 487 372 227 127 107 73 54 16 0 4 23 23
0 0 0 0 0 0 0 0 0 0 0 0 0 0 116 370 232 68 0 0 0 44 300 476 405 283 443 705 502 657 837 797 539 345 224 369 407 262 53 26 21 2 0 0 0 0 0 0 0
0 0 0 0 0 0 0 0 0 0 0 0 0 27 23 469 380 140 31 3 158 228 475 601 518 284 169 58 189 227 564 787 558 433 197 296 676 466 310 0 0 0 0 0 0 0 0 0 0
0 0 0 0 0 0 0 0 0 0 0 0 0 0 209 394 456 284 44 37 304 581 503 1046 941 604 253 0 206 179 46 380 552 716 808 652 679 559 264 14 0 0 0 0 0 0 0 0 0
0 0 0 0 0 0 0 0 0 0 0 0 0 0 196 295 256 363 313 154 257 639 468 949 1488 974 344 79 108 178 120 157 293 591 832 612 585 548 363 258 128 78 2 7 1 2 6 0 0
0 0 0 0 0 0 0 0 0 0 0 0 0 0 122 353 330 362 415 161 323 510 326 900 1530 904 523 330 175 203 175 184 199 411 434 441 303 274 239 35 5 8 8 7 9 5 6 0 0
0 0 0 0 0 0 0 0 0 0 0 0 0 0 55 299 300 170 270 230 308 347 359 753 1500 616 176 208 257 295 314 271 297 157 99 124 140 136 11 0 0 0 2 7 4 3 1 0 0
0 0 0 0 0 0 0 0 0 0 0 0 0 0 1 28 40 49 119 173 242 226 504 798 1259 664 81 89 176 198 77 25 11 0 1 16 54 61 18 0 0 0 0 0 0 0 0 0 0
0 0 0 0 0 0 0 0 0 0 0 0 0 0 0 5 4 41 156 293 457 299 392 924 1141 454 51 107 72 6 0 0 0 0 0 3 19 36 50 27 26 0 38 97 34 7 9 7 1
0 0 0 0 0 0 0 1 0 0 0 0 0 0 0 0 0 7 16 113 189 325 381 664 907 197 36 23 21 6 13 6 14 3 0 5 4 0 35 14 28 91 108 39 54 7 9 12 11
0 1 0 0 0 0 0 17 0 0 0 0 0 0 0 0 10 52 33 122 212 217 288 626 1022 11 4 45 50 36 20 15 0 0 0 0 0 0 10 17 71 226 120 190 171 121 138 65 30
4 0 0 0 0 0 0 0 0 0 0 0 0 0 0 0 20 240 413 93 101 109 279 591 649 3 34 63 59 1 0 0 0 0 0 0 0 0 0 2 37 69 29 73 130 266 108 240 193
0 0 0 0 0 0 0 0 0 0 0 0 0 0 0 0 154 102 0 0 41 440 559 537 94 35 15 5 0 0 0 0 1 3 0 0 0 0 0 0 0 0 0 25 89 120 148 173 219
0 0 0 0 0 0 0 0 0 0 0 0 0 0 0 0 0 0 0 1 28 166 114 7 0 0 0 0 0 0 0 0 1 3 0 0 0 0 0 0 0 0 0 4 54 95 72 110 193
0 0 0 0 0 0 0 0 0 0 0 0 0 0 0 0 0 0 0 0 0 0 0 0 0 0 0 0 0 0 0 0 0 0 0 0 0 0 0 0 0 0 0 0 25 26 39 34 50
0 0 0 0 0 13 0 135 0 0 0 0 0 0 0 0 0 0 0 0 0 0 0 0 0 0 0 0 0 0 0 0 0 0 0 0 0 0 0 0 0 0 0 0 0 2 6 30 11
0 0 0 0 0 0 0 2 17 0 0 0 0 0 0 0 0 0 0 0 0 0 0 0 0 0 0 0 0 0 0 1 7 0 0 0 0 0 0 0 0 0 0 0 6 16 17 19 33
0 0 0 1 16 21 33 3 184 23 0 0 0 0 0 0 0 0 0 0 0 0 0 0 0 0 0 0 0 0 0 0 0 0 0 0 0 0 0 0 0 0 8 11 12 28 38 19 34
0 0 141 188 129 176 0 0 58 0 0 0 0 0 0 0 0 0 0 0 0 0 0 0 0 1 0 0 0 0 0 0 0 0 0 0 0 0 0 0 4 7 18 37 56 54 1 4 0
0 0 99 0 24 47 0 0 30 0 0 0 0 0 0 0 0 0 0 0 4 2 0 0 6 2 0 3 0 0 0 0 0 0 0 0 0 0 2 13 28 34 33 42 34 32 26 7 18
0 0 0 0 0 0 0 4 1 0 0 0 0 0 9 2 4 3 8 18 3 4 4 0 0 0 0 2 5 6 4 2 1 0 0 0 0 0 12 25 29 45 39 34 15 26 8 29 34
0 0 4 0 0 0 4 0 82 6 6 15 15 17 14 20 32 32 27 17 23 16 6 10 5 3 19 26 5 3 1 0 0 0 0 5 13 20 32 51 43 43 3 2 2 32 32 31 33
1 4 0 0 0 1 1 0 6 0 0 0 0 12 16 20 36 41 39 21 29 34 46 35 22 11 1 5 1 0 3 0 3 7 21 17 17 24 32 29 32 39 30 47 65 42 46 54 59
0 0 0 0 0 3 1 0 0 0 0 3 24 23 18 8 28 27 37 26 22 28 17 21 0 0 0 1 1 1 6 9 16 27 7 28 41 49 46 51 44 47 59 50 36 41 52 37 33

GFSSGP_con_sbcape_012.txt.gz
CAPE
0 0 0 0 0 0 0 17 42 8 1 0 0 0 7 42 254 140 63 295 636 592 678 869 1261 1474 1447 1428 1561 1583 1549 1516 1495 1468 1552 1412 1412 1239 1007 900 980 1095 1273 1357 1459 1481 1440 1402 1521
0 0 0 0 0 0 0 8 5 0 0 0 0 21 23 19 81 26 97 443 560 824 893 1025 1267 1505 1610 1668 1703 1704 1562 1427 1615 1492 1444 1473 1470 1373 992 798 918 1091 1145 1131 1038 965 804 689 683
0 0 0 0 0 0 0 30 24 0 0 13 1 47 29 21 6 17 153 476 995 980 853 962 1170 1504 1774 1843 1888 1856 1842 1733 1725 1754 1633 1607 1386 857 675 763 1051 1103 1038 881 927 1031 1009 955 856
0 0 0 0 0 1 0 21 0 0 0 29 45 48 41 2 0 11 111 281 391 580 633 669 884 1122 1339 1464 1583 1666 1563 1462 1465 1610 1489 1306 973 679 759 932 872 584 492 465 512 518 590 641 803
0 0 0 0 2 12 18 2 0 7 11 0 28 124 135 21 0 0 21 42 59 298 430 505 708 991 1116 1133 1179 1280 1326 1351 1438 1299 1159 1063 877 794 631 475 383 270 187 145 132 174 255 299 391
0 0 0 0 9 3 5 0 3 62 25 0 52 139 176 26 0 0 0 0 0 141 141 118 700 790 835 914 1030 1073 1062 1118 1173 1142 968 792 667 556 450 287 199 118 83 44 18 1 9 52 79
0 0 0 0 3 2 0 0 0 0 3 2 3 99 156 82 0 0 0 0 0 0 0 19 120 368 562 599 756 873 874 821 689 643 637 582 471 430 221 116 65 19 0 0 0 0 0 0 0
0 0 0 0 0 0 0 0 0 1 0 0 0 19 67 125 0 0 0 0 0 76 158 297 275 390 299 225 451 672 723 599 491 343 349 423 338 330 119 116 1 0 0 0 0 0 0 0 0
0 0 0 0 0 0 0 0 0 0 0 0 0 0 166 127 15 0 0 0 0 121 431 370 249 299 636 229 271 517 726 606 442 361 238 124 437 284 111 0 0 0 0 0 0 0 0 0 0
0 0 0 0 0 0 0 0 0 0 0 0 0 80 379 219 118 0 0 0 39 348 356 814 613 414 96 5 153 681 475 628 638 652 679 698 641 528 193 80 1 2 0 2 0 0 0 1 0
0 0 0 0 0 0 0 0 0 0 0 0 0 16 319 307 219 46 0 0 187 386 418 1091 1205 753 443 294 97 356 402 361 782 1294 555 871 465 919 468 360 192 44 10 20 0 10 0 4 0
0 0 0 0 0 0 0 0 0 0 0 0 0 0 210 99 66 110 45 12 132 342 315 1235 1108 876 651 551 534 642 433 198 435 381 616 561 324 392 139 33 0 0 0 1 10 0 2 3 0
0 0 0 0 0 0 0 0 0 0 0 0 0 1 162 210 179 199 229 59 158 333 392 898 1083 846 1053 331 921 758 640 380 349 238 252 193 200 232 122 34 6 0 0 0 0 0 0 0 0
0 0 0 0 0 0 0 0 0 0 0 0 0 0 29 206 287 220 252 267 262 304 657 1256 1247 738 408 552 378 633 242 336 243 71 4 73 75 109 96 35 35 10 2 5 0 0 0 0 0
0 0 0 0 0 0 0 0 0 0 0 0 0 0 0 16 33 76 138 408 411 209 395 1061 1102 498 330 370 325 257 13 8 35 32 25 25 59 62 113 56 52 55 80 54 23 10 0 0 0
0 0 0 0 0 0 0 0 0 0 0 0 0 0 0 24 36 90 224 282 437 236 102 253 650 440 293 409 66 79 90 61 52 82 48 11 18 17 66 56 77 115 115 86 60 39 21 0 0
0 0 1 0 0 0 0 0 0 0 0 0 0 0 0 0 41 75 106 146 221 139 409 632 998 261 114 207 87 77 52 43 14 0 14 0 1 2 6 2 43 73 35 36 30 1 26 7 0
0 0 0 0 0 0 0 0 0 0 0 0 0 0 1 0 19 137 118 302 287 476 341 755 760 56 88 164 108 13 2 5 20 6 0 0 0 0 0 0 1 27 0 0 0 0 0 0 0
0 0 0 1 0 0 0 0 0 0 0 0 0 0 0 145 207 15 12 53 364 570 189 76 52 17 4 56 5 0 0 1 1 1 0 0 0 0 0 0 0 0 0 0 0 0 0 0 0
0 0 0 0 0 0 0 0 0 0 0 0 0 0 24 0 0 0 2 100 70 70 68 4 0 0 0 0 0 0 0 0 0 4 0 0 0 0 0 0 0 0 0 0 0 0 0 0 0
0 0 0 0 0 0 0 0 0 0 0 0 0 0 0 0 0 0 0 8 24 6 2 0 0 0 0 0 0 0 0 0 0 0 0 0 0 0 0 0 0 0 0 0 0 0 0 0 0
0 0 0 0 0 0 0 26 0 0 0 0 0 0 0 0 0 0 0 0 0 0 0 0 0 0 0 0 0 0 0 0 0 0 0 0 0 0 0 0 0 0 0 0 0 0 0 0 0
0 0 0 0 0 0 10 67 87 0 0 0 0 0 0 0 0 0 0 0 0 0 0 0 0 0 0 0 0 0 0 0 0 0 0 0 0 0 0 0 0 0 0 0 6 8 13 4 0
0 0 0 0 10 292 17 87 12 0 0 0 0 0 0 0 0 0 0 0 0 0 0 0 0 0 0 0 0 0 0 0 0 0 0 0 0 0 0 0 0 1 14 21 8 6 0 0 0
0 7 376 510 592 466 70 7 74 0 0 0 0 0 0 0 0 2 2 1 1 0 0 0 0 0 1 3 1 1 0 0 0 0 0 0 0 0 0 0 5 13 13 14 7 13 8 2 0
0 0 429 51 153 140 0 4 1 0 0 0 0 0 0 9 2 0 0 0 7 19 9 23 6 0 0 6 3 2 0 0 0 0 0 0 0 0 0 2 7 2 0 0 3 6 2 4 13
1 0 0 0 2 5 1 77 7 0 0 0 0 0 8 17 33 23 30 37 18 16 16 13 18 16 3 0 0 0 0 0 0 0 0 0 1 0 0 0 0 1 0 5 1 0 0 11 12
0 0 0 164 13 0 0 1 32 10 1 0 0 1 2 1 16 33 11 6 2 5 19 24 1 0 0 0 0 0 0 0 0 0 1 0 0 0 0 9 13 15 9 15 12 4 3 13 19
0 3 0 0 8 0 0 0 0 1 0 0 0 0 6 0 0 0 2 4 3 1 0 0 0 0 0 0 0 0 2 1 6 6 0 0 0 2 17 19 12 10 11 24 26 20 21 11 7
0 0 0 13 0 50 17 0 0 0 0 0 0 1 0 0 0 0 0 0 0 1 0 0 0 0 0 0 0 0 11 5 0 0 0 0 5 11 18 22 20 27 30 22 38 31 41 41 42

GFSSGP_con_sbcape_015.txt.gz
CAPE
0 0 0 0 0 0 0 0 0 0 0 0 2 44 27 20 16 0 372 316 416 503 703 854 945 1094 1251 1351 1345 1369 1351 1272 1146 1222 1303 1132 970 827 692 703 906 900 890 912 953 910 850 761 671
0 0 0 0 0 0 0 0 0 0 0 10 0 0 0 0 13 103 302 386 593 622 794 920 980 1167 1379 1393 1331 1302 1326 1226 1403 1360 1292 1251 1029 702 600 691 1116 935 751 687 767 820 821 843 885
0 0 0 0 0 0 2 1 0 0 0 18 0 0 0 0 29 105 599 713 624 678 895 1026 1098 1288 1429 1487 1477 1463 1476 1484 1518 1521 1232 861 584 537 676 857 1000 520 414 384 387 385 413 481 594
0 0 0 0 0 0 5 0 0 0 0 0 0 0 0 0 45 221 551 478 429 400 566 778 936 1042 1244 1399 1375 1265 1187 1256 1384 1341 964 726 619 685 678 423 305 163 108 80 67 70 106 162 281
0 0 0 0 0 0 0 0 0 1 0 17 0 0 0 0 0 15 227 257 250 239 352 506 660 813 1035 1146 1070 1099 1129 1180 1189 1135 962 715 676 473 312 230 120 55 19 5 0 0 0 3 96
0 0 0 0 0 0 0 0 26 3 4 36 21 0 0 0 0 0 56 60 121 115 150 347 589 640 739 862 839 793 840 979 1069 1023 885 619 556 494 217 111 32 1 0 0 0 0 0 0 2
0 0 0 0 0 0 0 0 1 1 0 134 34 0 0 0 0 0 0 0 0 0 0 63 176 312 364 426 447 462 584 592 592 619 649 554 476 391 276 116 10 0 0 0 0 0 0 0 0
0 0 0 0 0 0 0 0 0 0 0 0 2 66 0 0 0 0 0 0 0 0 0 0 0 3 23 110 265 282 307 264 184 303 410 283 296 237 235 94 33 0 0 0 0 0 0 0 0
0 0 0 0 0 0 0 0 0 0 0 7 0 48 0 0 0 0 0 0 0 0 0 0 0 0 0 0 138 276 352 230 115 206 237 121 99 123 46 34 18 1 0 0 0 0 0 0 0
0 0 0 0 0 0 0 0 0 0 0 11 74 24 0 0 0 0 0 0 0 5 19 0 0 85 0 0 17 40 235 178 109 109 116 48 92 110 47 3 0 5 3 3 0 0 0 0 0
0 0 0 0 0 0 0 0 0 0 0 0 154 76 2 0 0 0 0 0 1 10 224 68 0 0 0 2 0 15 57 138 146 159 25 2 88 26 0 10 8 0 3 0 1 0 0 0 0
0 0 0 0 0 0 0 0 0 0 0 0 22 175 90 63 1 0 0 0 0 32 421 87 0 0 0 0 0 0 0 2 26 20 0 0 0 0 0 0 0 0 0 0 0 0 0 0 0
0 0 0 0 0 0 0 0 0 0 0 0 6 145 92 40 13 0 0 0 2 94 566 213 17 42 0 19 0 0 7 0 5 0 0 0 0 0 0 0 0 0 0 0 0 0 0 0 0
0 0 0 0 0 0 0 0 0 0 0 0 0 44 1 1 0 0 0 0 1 20 641 156 58 144 10 22 37 5 0 0 0 0 0 0 0 0 0 0 0 0 0 0 0 0 0 0 0
0 0 0 0 0 0 0 0 0 0 0 0 0 0 0 15 4 38 4 0 41 11 303 144 63 191 1 20 17 8 0 0 0 0 0 0 0 0 0 0 0 0 0 0 0 0 0 0 0
0 0 0 0 0 0 0 0 0 0 0 0 0 0 0 0 6 0 0 8 5 326 612 375 461 148 17 0 1 0 0 0 0 0 0 0 0 0 0 0 0 0 0 0 0 0 0 0 0
0 0 0 0 0 0 0 0 0 0 0 0 0 0 0 0 0 7 8 2 6 80 241 0 26 76 9 0 0 0 0 0 0 0 0 0 0 0 0 0 0 0 0 0 0 0 0 0 0
0 0 0 0 0 0 0 0 0 0 0 0 0 0 0 0 0 0 0 0 0 0 117 138 47 11 0 0 0 0 0 0 0 0 0 0 0 0 0 0 0 0 0 0 0 0 0 0 0
0 0 0 0 0 0 0 0 0 0 0 0 0 0 0 0 0 0 0 0 0 0 0 0 0 0 0 0 0 0 0 0 0 0 0 0 0 0 0 0 0 0 0 0 0 0 0 0 0
0 0 0 0 0 0 0 0 0 0 0 0 0 0 0 0 0 0 0 0 0 0 0 0 0 0 0 0 0 0 0 0 0 0 0 0 0 0 0 0 0 0 0 0 0 0 0 0 0
0 0 0 0 0 0 0 0 0 0 0 0 0 0 0 0 0 0 0 0 0 0 0 0 0 0 0 0 0 0 0 0 0 0 0 0 0 0 0 0 0 0 0 0 0 0 0 0 0
0 0 0 0 0 0 0 0 0 0 0 0 0 0 0 0 0 0 0 0 0 0 0 0 0 0 0 0 0 0 0 0 0 0 0 0 0 0 0 0 0 0 0 0 0 0 0 0 0
0 0 0 0 0 0 0 0 0 0 0 0 0 0 0 0 0 0 0 0 0 0 0 0 0 0 0 0 0 0 0 0 0 0 0 0 0 0 0 0 0 0 0 0 0 0 0 0 0
0 0 0 0 0 1 3 0 0 0 0 0 0 0 0 0 0 0 0 0 0 0 0 0 0 0 0 0 0 0 0 0 0 0 0 0 0 0 0 0 0 0 0 0 0 0 0 0 0
0 0 0 0 10 40 30 2 0 0 0 0 0 0 0 0 0 0 0 0 0 0 0 0 0 0 0 0 0 0 0 0 0 0 0 0 0 0 0 0 0 0 0 0 0 0 2 5 2
0 0 0 0 0 0 0 0 0 0 0 0 0 0 0 0 0 0 0 0 0 0 0 0 0 0 0 0 0 0 0 0 0 0 0 0 0 0 0 0 0 0 0 0 0 0 0 1 0
0 0 0 0 0 0 0 0 0 0 0 0 0 0 0 0 0 0 0 0 0 0 0 0 0 0 0 0 0 0 0 0 0 0 0 0 0 0 0 0 0 0 0 0 3 1 0 0 0
0 0 0 0 0 0 0 7 0 0 0 0 0 0 0 0 0 0 0 0 0 0 0 0 0 0 0 0 0 0 0 0 0 0 0 0 0 0 0 0 0 0 0 8 15 9 1 12 7
0 0 0 0 0 0 0 0 0 2 2 0 0 0 0 0 0 0 0 0 0 0 0 0 0 0 0 0 0 0 0 0 0 0 0 0 0 0 0 0 0 0 0 2 11 15 28 28 4
0 0 0 0 0 0 0 0 0 0 0 0 0 0 0 0 0 0 0 0 0 0 0 0 0 0 0 0 0 0 0 0 0 0 0 0 0 0 0 0 0 0 0 0 0 0 0 0 0

GFSSGP_con_sbcape_018.txt.gz
CAPE
0 0 0 0 0 0 0 0 0 0 0 31 31 1 0 5 22 104 191 253 452 568 593 665 893 1147 1216 1227 1245 1313 1213 1000 983 953 915 835 687 545 530 666 755 717 728 638 552 516 540 590 637
0 0 0 0 0 0 0 0 0 0 0 0 1 10 61 240 281 279 273 382 479 583 603 691 991 1128 1198 1165 1189 1159 1056 1005 1021 1035 940 687 503 435 596 711 638 482 331 277 262 213 189 226 316
0 0 0 0 0 0 0 0 0 0 0 0 0 0 0 227 295 297 346 503 557 610 682 838 972 1120 1190 1207 1270 1303 1293 1314 1318 1056 660 488 472 572 588 390 253 126 71 44 27 27 36 47 75
0 0 0 0 0 0 0 0 0 0 0 0 0 5 1 60 258 533 566 501 504 580 695 792 959 1149 1261 1217 1118 1116 1116 1111 1111 985 588 507 533 379 226 149 64 22 2 0 0 0 0 0 14
0 0 0 0 0 2 0 0 0 1 1 0 0 1 12 462 584 437 380 438 419 381 552 630 784 970 1124 1084 940 1028 1018 1019 1004 931 810 539 344 206 104 49 14 0 0 0 0 0 0 0 0
0 0 0 0 0 0 0 0 0 10 0 0 0 23 0 310 243 171 212 288 272 263 300 450 645 734 804 859 795 758 809 837 901 891 795 443 354 256 99 33 1 0 0 0 0 0 0 0 0
0 0 0 0 0 0 0 0 0 8 0 0 0 3 0 0 37 10 45 38 30 46 116 199 330 444 454 425 400 435 587 660 721 734 625 527 378 299 201 44 0 0 0 0 0 0 0 0 0
0 0 0 0 0 0 0 0 0 0 0 0 0 0 0 0 0 0 0 0 0 0 0 0 23 39 63 150 230 276 292 286 375 372 271 217 205 190 162 64 13 0 0 0 0 0 0 0 0
0 0 0 0 0 0 0 0 0 0 0 0 0 0 0 0 0 0 0 0 0 0 0 0 0 0 0 17 161 273 301 210 172 219 225 100 62 44 9 17 0 0 0 0 0 2 0 0 0
0 0 0 0 0 0 0 0 0 4 39 3 0 0 0 0 0 0 0 0 0 0 0 0 0 0 0 1 72 26 84 77 53 89 62 24 20 23 24 12 82 60 8 14 25 34 20 5 0
0 0 0 0 0 0 0 0 0 0 38 28 0 0 0 0 0 0 0 0 0 0 0 0 0 0 0 0 0 0 28 71 47 105 86 14 15 24 14 0 0 0 0 0 0 0 0 0 0
0 0 0 0 0 0 0 0 0 0 0 48 0 0 0 0 0 0 0 0 0 0 0 0 0 0 0 0 0 0 0 40 89 7 0 0 0 0 0 0 0 0 0 0 0 0 0 0 0
0 0 0 0 0 0 0 0 0 0 6 89 10 0 0 0 0 0 0 0 0 142 4 0 0 0 0 0 0 0 0 4 0 0 0 0 0 0 0 0 0 0 0 0 0 0 0 0 0
0 0 0 0 0 0 0 0 0 0 0 141 100 37 7 1 0 0 0 0 0 279 57 0 0 0 0 0 0 0 0 0 0 0 0 0 0 0 0 0 0 0 0 0 0 0 0 0 0
0 0 0 0 0 0 0 0 0 0 0 198 206 121 47 32 7 0 0 0 0 468 81 32 0 0 0 0 0 0 0 0 0 0 0 0 0 0 0 0 0 0 0 0 0 0 0 0 0
0 0 0 0 0 0 0 0 0 0 0 24 77 24 5 0 2 0 0 0 8 224 28 49 172 7 7 0 0 0 0 0 0 0 0 0 0 0 0 0 0 0 0 0 0 0 0 0 0
0 0 0 0 0 0 0 0 0 0 0 0 0 0 0 0 0 0 0 0 304 135 3 40 9 28 18 2 0 0 0 0 0 0 0 0 0 0 0 0 0 0 0 0 0 0 0 0 0
0 0 0 0 0 0 0 0 0 0 0 0 0 0 0 0 0 0 0 0 0 0 0 1 8 0 0 0 0 0 0 0 0 0 0 0 0 0 0 0 0 0 0 0 0 0 0 0 0
0 0 0 0 0 0 0 0 0 0 0 0 0 0 0 0 0 0 0 0 0 0 0 0 0 0 0 0 0 0 0 0 0 0 0 0 0 0 0 0 0 0 0 0 0 0 0 0 0
0 0 0 0 0 0 0 0 0 0 0 0 0 0 0 0 0 0 0 0 0 0 0 0 0 0 0 0 0 0 0 0 0 0 0 0 0 0 0 0 0 0 0 0 0 0 0 0 0
0 0 0 0 0 0 0 0 0 0 0 0 0 0 0 0 0 0 0 0 0 0 0 0 0 0 0 0 0 0 0 0 0 0 0 0 0 0 0 0 0 0 0 0 0 0 0 0 0
0 0 0 0 0 0 0 0 0 0 0 0 0 0 0 0 0 0 0 0 0 0 0 0 0 0 0 0 0 0 0 0 0 0 0 0 0 0 0 0 0 0 0 0 0 0 0 0 0
0 0 0 0 0 0 0 0 0 0 0 0 0 0 0 0 0 0 0 0 0 0 0 0 0 0 0 0 0 0 0 0 0 0 0 0 0 0 0 0 0 0 0 0 0 0 0 0 0
0 0 0 0 0 0 0 0 0 0 0 0 0 0 0 0 0 0 0 0 0 0 0 0 0 0 0 0 0 0 0 0 0 0 0 0 0 0 0 0 0 0 0 0 0 0 0 0 0
0 0 0 0 0 0 0 0 0 0 0 0 0 0 0 0 0 0 0 0 0 0 0 0 0 0 0 0 0 0 0 0 0 0 0 0 0 0 0 0 0 0 0 0 0 0 0 0 0
0 0 0 0 0 0 0 0 0 0 0 0 0 0 0 0 0 0 0 0 0 0 0 0 0 0 0 0 0 0 0 0 0 0 0 0 0 0 0 0 0 0 0 0 0 0 0 6 0
0 0 0 0 0 0 0 0 0 0 0 0 0 0 0 0 0 0 0 0 0 0 0 0 0 0 0 0 0 0 0 0 0 0 0 0 0 0 0 0 0 0 0 0 0 0 0 0 0
0 0 0 0 0 0 0 0 0 0 0 0 0 0 0 0 0 0 0 0 0 0 0 0 0 0 0 0 0 0 0 0 0 0 0 0 0 0 0 0 0 0 0 0 0 0 0 0 0
0 0 0 0 0 0 0 0 0 0 0 0 0 0 0 0 0 0 0 0 0 0 0 0 0 0 0 0 0 0 0 0 0 0 0 0 0 0 0 0 0 0 0 0 0 0 0 0 0
0 0 0 0 0 0 0 0 0 0 0 0 0 0 0 0 0 0 0 0 0 0 0 0 0 0 0 0 0 0 0 0 0 0 0 0 0 0 0 0 0 0 0 0 0 0 0 0 0

GFSSGP_con_sbcape_021.txt.gz
CAPE
0 0 0 0 0 0 0 0 0 0 0 0 0 0 49 98 41 30 130 190 464 448 511 694 863 1068 1154 1122 1062 1091 881 735 775 742 702 606 478 435 554 541 386 197 120 86 47 22 22 28 89
0 0 0 0 0 0 0 1 17 30 6 0 0 11 131 429 327 328 252 490 463 444 513 716 927 1058 1183 1214 1194 1113 871 849 845 748 626 436 426 547 450 273 125 47 17 0 0 0 0 0 0
0 0 0 0 0 0 0 0 7 15 1 0 0 0 110 494 302 243 306 509 529 472 584 848 894 989 1125 1137 1105 1064 1115 1138 913 683 474 488 548 383 189 100 36 3 0 0 0 0 0 0 0
0 0 0 0 0 0 0 0 0 0 0 0 0 48 10 185 422 323 443 583 527 502 620 732 862 973 1159 1197 1092 1067 1090 999 873 707 514 536 381 185 100 45 5 0 0 0 0 0 0 0 0
0 0 0 0 0 0 0 0 8 20 3 0 0 4 94 605 529 496 534 555 495 571 646 727 875 937 1031 955 905 928 939 869 873 759 624 467 289 155 48 14 1 0 0 0 0 0 0 0 0
0 0 0 24 6 0 3 0 0 2 0 7 128 52 0 463 480 420 416 380 440 537 510 688 826 870 919 904 870 790 731 767 816 840 726 415 365 236 42 9 0 0 0 0 0 0 0 0 0
0 0 0 0 0 0 0 0 8 0 1 16 22 1 103 198 230 241 205 197 287 284 244 329 490 597 590 512 488 486 562 608 640 698 706 557 413 249 164 31 0 0 0 0 0 0 0 0 0
0 0 0 0 0 0 0 0 2 52 23 0 0 30 219 1 81 0 21 28 16 0 17 25 65 138 99 151 233 289 349 354 445 475 344 205 180 152 128 35 13 0 0 0 9 11 5 0 0
0 0 0 0 0 0 0 0 0 1 0 0 0 0 151 0 0 0 0 0 0 0 0 0 0 0 0 0 56 194 256 226 264 244 147 53 17 18 22 66 27 40 26 30 45 88 42 0 0
0 0 0 0 0 0 0 14 20 21 0 0 0 0 0 0 0 0 0 0 0 0 0 0 0 0 0 2 25 0 64 10 2 18 24 9 0 0 0 8 93 164 111 138 86 33 30 0 0
0 0 0 0 0 0 0 0 0 18 14 0 0 0 0 0 0 0 0 0 0 0 0 0 0 0 0 0 0 0 2 0 0 25 14 5 7 0 0 0 0 0 0 0 0 0 0 0 0
0 0 0 0 0 0 0 0 0 0 51 0 0 0 0 0 0 0 0 0 0 0 0 0 0 0 0 0 0 0 10 2 21 34 0 0 0 0 0 0 0 0 0 0 0 0 0 0 0
0 0 0 0 0 0 0 0 0 0 4 0 0 0 0 0 0 0 0 0 0 0 0 0 0 0 0 0 0 0 7 49 72 1 0 0 0 0 0 0 0 0 0 0 0 0 0 0 0
0 0 0 0 0 0 0 0 0 0 1 0 0 0 0 0 0 0 0 0 0 16 0 0 0 0 0 0 0 0 0 2 0 0 0 0 0 0 0 0 0 0 0 0 0 0 0 0 0
0 0 0 0 0 0 0 0 0 0 34 14 0 0 0 0 0 0 0 0 0 35 0 0 0 0 0 0 0 0 0 0 0 0 0 0 0 0 0 0 0 0 0 0 0 0 0 0 0
0 0 0 0 0 0 0 0 0 0 135 65 19 0 0 0 0 0 0 0 0 42 0 0 0 0 0 0 0 0 0 0 0 0 0 0 0 0 0 0 0 0 0 0 0 0 0 0 0
0 0 0 0 0 0 0 0 0 0 147 100 0 0 0 0 0 0 0 0 5 0 0 0 0 0 0 0 0 0 0 0 0 0 0 0 0 0 0 0 0 0 0 0 0 0 0 0 0
0 0 0 0 0 0 0 0 0 0 0 0 0 0 0 0 0 0 0 0 0 0 0 0 0 0 0 0 0 0 0 0 0 0 0 0 0 0 0 0 0 0 0 0 0 0 0 0 0
0 0 0 0 0 0 0 0 0 0 0 0 0 0 0 0 0 0 0 0 0 0 0 0 0 0 0 0 0 0 0 0 0 0 0 0 0 0 0 0 0 0 0 0 0 0 0 0 0
0 0 0 0 0 0 0 0 0 0 0 0 0 0 0 0 0 0 0 0 0 0 0 0 0 0 0 0 0 0 0 0 0 0 0 0 0 0 0 0 0 0 0 0 0 0 0 0 0
0 0 0 0 0 0 0 0 0 0 0 0 0 0 0 0 0 0 0 0 0 0 0 0 0 0 0 0 0 0 0 0 0 0 0 0 0 0 0 0 0 0 0 0 0 0 0 0 0
0 0 0 0 0 0 0 0 0 0 0 0 0 0 0 0 0 0 0 0 0 0 0 0 0 0 0 0 0 0 0 0 0 0 0 0 0 0 0 0 0 0 0 0 0 0 0 0 0
0 0 0 0 0 0 0 0 0 0 0 0 0 0 0 0 0 0 0 0 0 0 0 0 0 0 0 0 0 0 0 0 0 0 0 0 0 0 0 0 0 0 0 0 0 0 0 0 0
0 0 0 0 0 0 0 0 0 0 0 0 0 0 0 0 0 0 0 0 0 0 0 0 0 0 0 0 0 0 0 0 0 0 0 0 0 0 0 0 0 0 0 0 0 0 0 0 0
0 0 0 0 0 0 0 0 0 0 0 0 0 0 0 0 0 0 0 0 0 0 0 0 0 0 0 0 0 0 0 0 0 0 0 0 0 0 0 0 0 0 0 0 0 0 0 0 0
0 0 0 0 0 0 0 0 0 0 0 0 0 0 0 0 0 0 0 0 0 0 0 0 0 0 0 0 0 0 0 0 0 0 0 0 0 0 0 0 0 0 0 0 0 0 0 0 0
0 0 0 0 0 0 0 0 0 0 0 0 0 0 0 0 0 0 0 0 0 0 0 0 0 0 0 0 0 0 0 0 0 0 0 0 0 0 0 0 0 0 0 0 0 0 0 0 0
0 0 0 0 0 0 0 0 0 0 0 0 0 0 0 0 0 0 0 0 0 0 0 0 0 0 0 0 0 0 0 0 0 0 0 0 0 0 0 0 0 0 0 0 0 0 0 0 0
0 0 0 0 0 0 0 0 0 0 0 0 0 0 0 0 0 0 0 0 0 0 0 0 0 0 0 0 0 0 0 0 0 0 0 0 0 0 0 0 0 0 0 0 0 0 0 0 0
0 0 0 0 0 0 0 0 0 0 0 0 0 0 0 0 0 0 0 0 0 0 0 0 0 0 0 0 0 0 0 0 0 0 0 0 0 0 0 0 0 0 0 0 0 0 0 0 0

GFSSGP_con_sbcape_024.txt.gz
CAPE
0 0 0 0 0 0 0 0 2 0 5 2 18 57 105 198 77 40 178 286 392 390 563 725 888 1045 1028 957 961 981 641 677 634 601 507 371 396 440 285 96 74 22 0 0 0 0 0 0 0
0 0 0 0 0 0 0 0 38 38 25 19 11 24 127 304 312 264 297 538 399 413 519 716 938 1043 1112 1097 1035 817 684 702 660 538 375 421 408 207 78 36 84 4 0 0 0 0 0 0 0
0 0 0 0 0 0 0 54 57 10 0 0 0 0 217 368 382 210 480 445 407 392 576 831 926 1010 1089 1022 990 963 968 865 645 459 412 454 225 59 19 9 54 1 0 0 0 0 0 0 0
0 0 0 0 0 0 0 41 15 1 0 0 0 1 0 206 268 299 606 449 394 414 607 715 813 922 1055 1045 1046 1102 1009 826 685 596 471 338 113 17 4 0 4 0 0 0 0 0 0 0 0
0 0 0 0 0 0 0 18 5 15 0 0 0 1 136 451 364 578 608 467 398 572 582 619 769 894 1030 1028 960 999 859 772 719 722 595 274 114 30 5 0 0 0 0 0 0 0 0 13 37
0 0 0 0 0 0 4 36 12 0 1 18 98 6 61 637 434 501 649 520 475 550 572 698 763 832 891 917 897 777 711 711 759 761 649 362 265 144 10 0 0 0 0 0 0 0 9 60 53
0 0 0 0 0 0 2 23 7 7 16 66 8 131 366 446 366 452 383 386 420 438 516 591 654 726 692 637 552 487 530 588 654 679 590 531 298 136 69 21 11 2 20 86 98 112 117 75 30
0 0 0 0 0 0 0 0 7 32 21 0 63 337 403 211 179 153 214 202 182 205 280 264 305 351 235 247 292 321 390 411 446 540 422 254 125 66 56 0 8 101 126 152 146 195 165 104 49
0 0 0 1 1 6 0 0 0 1 4 5 0 162 225 109 30 43 3 0 11 35 0 0 10 0 0 0 120 313 343 339 342 345 214 50 0 0 0 6 76 156 129 154 180 86 57 0 0
0 0 0 0 0 0 0 0 8 30 7 0 0 0 66 46 112 111 64 66 0 0 0 0 0 0 0 0 7 0 49 59 62 63 74 0 0 0 0 0 8 2 0 0 0 0 0 0 0
0 0 0 0 0 0 0 0 0 38 43 0 48 32 44 47 3 1 0 0 0 0 0 0 0 0 0 0 0 0 0 1 0 4 1 0 0 0 0 0 0 0 0 0 0 0 0 0 0
0 0 0 0 0 0 0 0 61 2 27 0 36 23 2 0 0 0 0 0 0 0 0 0 0 0 0 0 0 0 0 1 9 33 35 0 0 0 0 0 0 0 0 0 0 0 0 0 0
0 0 0 0 0 0 0 0 47 0 0 0 0 0 0 0 0 0 0 0 0 0 0 0 0 0 0 0 0 0 0 16 40 31 0 0 0 0 0 0 0 0 0 0 0 0 0 0 0
0 0 0 0 0 0 0 0 0 0 0 0 0 0 0 0 0 0 0 0 0 0 0 0 0 0 0 0 0 0 0 1 4 0 0 0 0 0 0 0 0 0 0 0 0 0 0 0 0
0 0 0 0 0 0 0 0 0 0 0 0 0 0 0 0 0 0 0 0 0 0 0 0 0 0 0 0 0 0 0 0 0 0 0 0 0 0 0 0 0 0 0 0 0 0 0 0 0
0 0 0 0 0 0 0 0 0 0 0 0 0 0 0 0 0 0 0 0 0 0 0 0 0 0 0 0 0 0 0 0 0 0 0 0 0 0 0 0 0 0 0 0 0 0 0 0 0
0 0 0 0 0 0 0 0 0 0 0 0 0 0 0 0 0 0 0 0 0 0 0 0 0 0 0 0 0 0 0 0 0 0 0 0 0 0 0 0 0 0 0 0 0 0 0 0 0
0 0 0 0 0 0 0 0 0 0 1 0 0 0 0 0 0 0 0 1 0 0 0 0 0 0 0 0 0 0 0 0 0 0 0 0 0 0 0 0 0 0 0 0 0 0 0 0 0
0 0 0 0 0 0 0 0 0 0 0 0 0 0 0 0 0 0 0 0 0 0 0 0 0 0 0 0 0 0 0 0 0 0 0 0 0 0 0 0 0 0 0 0 0 0 0 0 0
0 0 0 0 0 0 0 0 0 0 0 0 0 0 0 0 0 0 0 0 0 0 0 0 0 0 0 0 0 0 0 0 0 0 0 0 0 0 0 0 0 0 0 0 0 0 0 0 0
0 0 0 0 0 0 0 0 0 0 0 0 0 0 0 0 0 0 0 0 0 0 0 0 0 0 0 0 0 0 0 0 0 0 0 0 0 0 0 0 0 0 0 0 0 0 0 0 0
0 0 0 0 0 0 0 0 0 0 0 0 0 0 0 0 0 0 0 0 0 0 0 0 0 0 0 0 0 0 0 0 0 0 0 0 0 0 0 0 0 0 0 0 0 0 0 0 0
0 0 0 0 0 0 0 0 0 0 0 0 0 0 0 0 0 0 0 0 0 0 0 0 0 0 0 0 0 0 0 0 0 0 0 0 0 0 0 0 0 0 0 0 0 0 0 0 0
0 0 0 0 0 0 0 0 0 0 0 0 0 0 0 0 0 0 0 0 0 0 0 0 0 0 0 0 0 0 0 0 0 0 0 0 0 0 0 0 0 0 0 0 0 0 0 0 0
0 0 0 0 0 0 0 0 0 0 0 0 0 0 0 0 0 0 0 0 0 0 0 0 0 0 0 0 0 0 0 0 0 0 0 0 0 0 0 0 0 0 0 0 0 0 0 0 0
0 0 0 0 0 0 0 0 0 0 0 0 0 0 0 0 0 0 0 0 0 0 0 0 0 0 0 0 0 0 0 0 0 0 0 0 0 0 0 0 0 0 0 0 0 0 0 0 0
0 0 0 0 0 0 0 0 0 0 0 0 0 0 0 0 0 0 0 0 0 0 0 0 0 0 0 0 0 0 0 0 0 0 0 0 0 0 0 0 0 0 0 0 0 0 0 0 0
0 0 0 0 0 0 0 0 0 0 0 0 0 0 0 0 0 0 0 0 0 0 0 0 0 0 0 0 0 0 0 0 0 0 0 0 0 0 0 0 0 0 0 0 0 0 0 0 0
0 0 0 0 0 0 0 0 0 0 0 0 0 0 0 0 0 0 0 0 0 0 0 0 0 0 0 0 0 0 0 0 0 0 0 0 0 0 0 0 0 0 0 0 0 0 0 0 0
0 0 0 0 0 0 0 0 0 0 0 0 0 0 0 0 0 0 0 0 0 0 0 0 0 0 0 0 0 0 0 0 0 0 0 0 0 0 0 0 0 0 0 0 0 0 0 0 0

GFSSGP_con_sbcape_027.txt.gz
CAPE
0 0 0 0 0 0 0 0 1 22 41 63 99 87 77 149 140 140 295 370 599 821 838 564 656 1035 997 998 957 884 617 527 487 422 329 374 296 111 23 62 105 12 0 0 0 0 0 0 0
0 0 0 0 0 0 0 0 65 99 54 5 4 29 92 55 314 372 399 608 701 931 860 575 734 1065 1157 1095 858 803 639 575 508 380 397 295 82 13 7 3 53 11 0 0 0 0 0 0 0
0 0 0 0 0 0 5 124 116 32 5 0 0 17 50 213 357 365 597 667 790 911 853 877 846 1104 1181 1075 842 858 806 721 584 479 390 109 0 0 0 7 27 43 0 0 0 0 0 0 0
0 0 0 0 0 0 1 150 82 8 0 6 0 0 155 257 261 422 774 733 731 896 938 830 970 1014 1112 1142 1069 999 865 694 622 608 393 38 0 0 0 23 44 4 0 0 0 0 0 10 20
0 0 0 0 0 0 0 99 44 12 4 2 0 18 301 592 392 906 685 607 768 929 1058 1110 821 985 1139 1104 1026 996 785 698 703 714 512 241 0 0 0 28 39 13 0 0 0 0 3 34 48
0 0 0 5 0 4 53 81 55 24 2 25 66 74 346 723 667 864 716 634 696 817 994 1031 832 938 1017 1072 991 755 710 710 747 737 578 291 147 129 8 22 52 15 9 23 28 13 8 35 14
0 0 0 3 0 0 20 49 72 58 39 43 47 371 593 666 557 835 736 753 645 673 748 910 933 885 810 766 654 552 598 656 706 666 583 406 233 150 150 129 87 71 131 94 73 42 54 0 0
0 0 0 14 17 6 0 104 8 24 11 0 133 437 506 399 545 540 711 615 571 592 581 636 974 875 844 635 483 395 440 466 527 512 358 148 92 126 180 1 112 163 142 154 68 16 0 0 0
0 0 0 22 57 12 1 4 7 1 7 0 0 437 498 467 382 374 352 357 396 487 581 608 780 658 490 434 381 327 407 367 373 362 169 56 169 158 102 36 148 7 0 11 0 0 0 0 0
0 0 0 2 47 26 4 0 0 20 30 0 134 327 416 367 431 468 489 482 397 549 526 437 355 271 165 97 335 344 302 306 380 351 363 237 252 221 194 12 0 0 0 0 0 0 0 0 0
0 0 0 0 42 5 3 3 22 41 115 8 347 475 400 345 417 488 483 630 593 470 256 81 97 55 36 64 193 117 230 279 289 328 318 311 220 275 116 0 0 0 0 0 0 0 0 0 0
0 0 0 0 27 0 0 0 39 117 92 12 455 725 606 532 495 586 564 340 6 2 0 0 0 0 0 2 38 80 229 290 376 412 395 355 169 5 0 0 0 0 0 0 0 0 0 0 0
0 0 0 0 0 2 0 5 165 65 0 68 349 530 591 485 424 223 64 0 0 0 0 0 0 0 0 1 34 84 241 333 367 339 69 0 0 0 0 0 0 0 0 0 0 0 0 0 0
0 0 0 0 0 0 0 0 24 0 0 211 363 425 365 296 78 0 0 0 0 0 0 0 0 0 0 0 1 55 148 87 80 0 2 0 0 0 0 0 0 0 0 0 0 0 0 0 0
0 0 0 0 0 0 0 0 0 0 2 116 207 61 35 2 0 0 0 0 0 0 12 5 0 0 0 0 0 0 0 0 0 0 0 0 0 0 0 0 0 0 0 0 0 0 0 0 0
0 0 0 0 0 0 0 0 0 0 0 0 5 0 0 0 0 0 0 0 5 26 115 48 0 0 0 0 0 0 0 0 0 0 0 0 0 0 0 0 0 0 0 0 0 0 0 0 0
0 0 0 0 0 0 0 0 0 0 0 0 0 0 0 0 2 37 3 0 107 150 75 1 8 8 0 0 0 0 0 0 0 0 0 0 0 0 0 0 0 0 0 0 0 0 0 0 0
0 0 0 0 0 0 0 0 0 0 0 0 0 0 0 0 0 0 1 26 78 121 26 26 39 2 0 0 0 0 0 0 0 0 0 0 0 0 0 0 0 0 0 0 0 0 0 0 0
0 0 0 0 0 0 0 0 0 0 0 0 0 0 0 0 0 2 0 42 150 124 104 67 0 0 0 0 0 0 0 0 0 0 0 0 0 0 0 0 0 0 0 0 0 0 0 0 0
0 0 0 0 0 0 0 0 0 0 0 0 0 0 0 0 0 2 11 138 143 139 160 61 6 0 0 0 0 0 0 0 0 0 0 0 0 0 0 0 0 0 0 0 0 0 0 0 0
0 0 0 0 0 0 0 0 0 0 0 0 0 0 0 6 0 7 34 127 82 54 22 26 0 0 0 0 0 0 0 0 0 0 0 0 0 0 0 0 0 0 0 0 0 0 0 0 0
0 0 0 0 0 0 0 0 0 0 0 0 0 0 0 0 0 1 0 0 0 0 0 0 0 0 0 0 0 0 0 0 0 0 0 0 0 0 0 0 0 0 0 0 0 0 0 0 0
0 0 0 0 0 0 0 0 0 0 0 0 0 0 0 0 0 0 0 0 0 0 0 0 0 0 0 0 0 0 0 0 0 0 0 0 0 0 0 0 0 0 0 0 0 0 0 0 0
0 0 0 0 0 0 0 0 0 0 0 0 0 0 0 0 0 0 0 0 0 0 0 0 0 0 0 0 0 0 0 0 0 0 0 0 0 0 0 0 0 0 0 0 0 1 0 3 8
0 0 0 3 0 0 0 0 0 0 0 0 0 0 0 0 0 0 0 0 0 0 0 0 0 0 0 0 0 0 0 0 0 0 0 0 0 0 0 0 0 0 0 2 4 4 20 27 4
0 0 0 0 0 0 0 0 0 0 0 0 0 0 0 0 0 0 0 0 0 0 0 0 0 0 0 0 0 0 0 0 0 0 0 0 0 0 0 0 0 0 9 3 11 20 37 50 9
0 0 0 0 0 0 0 0 0 0 0 0 0 0 0 0 0 0 0 0 0 0 0 0 0 0 0 0 0 0 0 0 0 0 0 0 0 0 0 0 0 0 2 14 20 12 19 12 5
0 0 0 0 0 0 0 0 0 0 0 0 0 0 0 0 0 0 0 0 0 0 0 0 0 0 0 0 0 0 0 0 0 0 0 0 0 0 0 0 0 0 1 0 0 0 0 0 10
0 0 0 0 0 0 0 0 0 0 0 0 0 0 0 0 0 0 0 0 0 0 0 0 0 0 0 0 0 0 0 0 0 0 0 0 0 0 0 0 0 0 0 1 18 0 0 0 1
0 0 0 0 0 0 0 0 0 0 0 0 0 0 0 0 0 0 0 0 0 0 0 0 0 0 0 0 0 0 0 0 0 0 0 0 0 0 0 0 0 6 28 14 3 0 0 0 0

GFSSGP_con_sbcape_030.txt.gz
CAPE
0 0 0 0 0 0 0 0 4 331 439 279 257 186 281 484 357 389 439 538 794 747 490 468 753 965 994 922 756 728 578 495 449 366 378 239 78 0 0 99 42 2 0 0 0 0 0 0 0
0 0 0 0 0 0 1 0 88 461 247 14 18 133 85 101 595 492 496 657 839 777 598 564 719 1025 1167 1087 1047 886 565 490 367 376 237 71 0 0 0 1 25 17 0 0 0 0 0 0 0
0 0 0 0 0 0 8 138 323 106 17 0 2 65 20 76 370 480 886 869 880 779 771 812 802 1072 1004 1063 995 898 812 647 568 518 96 0 0 0 0 18 137 106 0 0 0 0 0 0 0
0 0 0 0 0 0 75 376 176 97 21 3 0 2 153 94 284 396 875 841 909 930 911 685 919 926 1100 1096 1100 898 802 680 674 514 222 0 0 0 0 137 183 22 0 0 0 0 0 0 0
0 0 0 0 0 0 132 466 333 181 22 0 12 3 214 510 454 698 799 734 862 879 1125 1111 672 817 1253 1206 1037 882 764 731 759 560 352 118 0 0 0 82 122 22 0 0 0 3 13 8 0
0 0 0 7 39 8 127 430 364 87 37 31 3 20 625 796 733 574 281 572 954 1175 1080 1015 684 891 1149 1221 1028 740 717 789 798 639 448 166 92 125 5 15 13 0 0 15 5 5 10 0 0
0 0 1 73 139 244 238 436 226 84 27 84 98 184 891 934 975 528 551 816 914 1040 1062 1051 1001 979 931 849 635 577 647 703 718 661 492 319 233 247 116 78 114 104 101 88 4 0 0 0 0
0 0 34 180 171 156 444 389 66 11 41 204 304 252 1003 917 1073 891 689 948 951 1006 1098 1032 846 788 822 626 475 462 482 529 567 498 263 155 177 179 39 167 118 10 88 11 0 0 0 0 0
0 0 49 214 269 238 129 93 73 46 130 188 109 589 890 1055 970 916 790 857 882 989 906 1006 727 692 560 319 384 287 420 430 410 357 171 110 246 191 104 41 4 0 0 0 0 0 0 0 0
0 0 0 18 159 120 54 59 50 139 207 153 580 1183 1217 1008 986 733 890 875 968 977 1247 885 738 627 344 43 173 185 129 389 509 493 545 526 653 543 241 14 0 0 0 0 0 0 0 0 0
0 0 0 50 170 129 85 5 1 147 268 274 582 1144 791 827 1031 752 961 1042 1087 1195 655 617 579 347 63 74 134 162 528 684 817 833 847 919 851 873 324 16 6 0 0 0 0 0 0 0 0
0 0 0 107 118 37 58 38 63 212 228 287 545 1335 1261 1118 1370 1396 1388 969 626 396 211 141 155 208 153 85 185 466 635 739 778 925 1053 1049 986 610 94 10 0 0 0 0 0 0 0 0 0
0 0 0 1 12 31 69 78 147 241 164 455 1112 1313 1293 912 972 731 474 283 154 54 63 25 70 97 217 346 537 688 844 938 1058 978 820 632 492 248 32 0 0 0 0 0 0 0 0 0 0
0 0 0 0 0 32 95 93 260 82 361 1055 1250 1058 708 353 186 193 106 28 0 50 146 118 85 134 270 510 677 763 648 619 660 207 193 160 253 128 0 0 0 0 0 0 0 0 0 0 0
0 0 0 0 0 46 98 46 0 4 279 787 795 654 553 346 145 14 0 0 4 158 314 332 349 290 367 609 476 140 85 87 105 33 4 30 11 0 0 0 0 0 0 0 0 0 0 0 0
0 0 0 0 0 0 50 21 0 46 254 577 791 643 535 296 60 0 0 0 43 319 489 483 444 456 308 12 13 8 0 0 0 0 0 0 0 0 0 0 0 0 0 0 0 0 0 0 0
0 0 0 0 0 0 3 0 0 21 193 392 519 445 330 156 134 217 122 7 127 444 650 562 635 309 0 0 0 3 0 0 0 0 0 0 0 0 0 0 0 0 0 0 0 0 0 0 0
0 1 0 0 0 0 0 7 0 45 230 239 322 338 293 263 281 269 271 241 494 690 691 701 607 41 0 0 0 0 0 0 0 0 0 0 0 0 0 0 0 0 0 0 0 0 0 0 0
0 1 1 0 0 0 0 24 1 129 301 297 278 323 283 268 294 322 366 566 684 739 758 832 569 22 1 0 0 0 0 0 0 0 0 0 0 0 0 0 0 0 0 0 0 0 0 0 1
2 0 1 0 0 74 104 143 51 89 299 350 313 303 335 379 444 413 501 638 686 751 768 900 563 591 381 135 16 0 0 0 0 0 0 0 0 0 0 0 0 0 0 0 0 0 0 0 1
20 37 15 36 4 38 95 137 98 3 34 67 170 330 388 551 582 622 636 660 751 790 813 772 841 489 102 22 1 0 0 0 0 0 0 0 0 0 0 0 0 0 0 0 0 0 0 3 1
49 0 10 25 51 75 15 152 180 111 72 135 141 246 489 597 735 727 849 915 910 881 854 762 218 1 0 0 0 15 6 11 0 0 0 0 0 0 0 0 0 0 0 0 0 0 11 16 16
62 0 16 6 51 50 19 46 181 157 156 244 415 585 685 661 568 464 298 148 21 4 153 362 36 0 0 0 0 0 0 0 0 0 0 0 0 0 0 0 0 0 6 19 9 13 41 32 27
10 44 43 35 39 47 21 15 30 188 213 315 380 275 456 191 119 7 0 0 0 0 0 0 0 0 0 0 0 0 0 0 0 0 0 0 0 1 5 7 15 28 38 44 40 55 68 70 66
63 113 48 73 52 18 0 0 0 4 12 274 286 16 84 0 0 0 0 0 0 0 0 0 0 0 0 0 0 0 0 0 0 0 0 0 0 4 7 24 53 72 77 72 61 84 70 72 59
23 39 3 0 0 0 0 4 30 0 0 76 125 0 0 0 0 0 0 0 0 0 0 0 0 0 0 0 0 0 0 0 0 0 0 0 0 0 1 19 29 33 65 74 80 85 67 76 61
0 0 0 9 0 2 0 2 2 0 0 4 104 0 0 0 0 0 0 0 0 0 0 0 0 0 0 0 0 0 0 0 0 0 0 0 0 0 0 4 12 22 38 58 81 70 78 59 41
0 0 0 1 0 0 0 0 0 0 0 0 52 0 0 0 0 0 0 0 0 0 0 0 0 0 0 0 0 0 0 0 0 0 0 0 0 0 0 0 0 6 30 60 60 68 59 47 58
0 0 0 0 0 0 0 0 0 0 0 0 5 0 0 0 0 0 0 0 0 0 0 0 0 0 0 0 0 0 0 0 0 0 0 0 0 0 0 0 1 10 35 66 69 76 54 31 22
0 0 0 0 0 0 0 0 0 0 0 0 0 0 0 0 0 0 0 0 0 0 0 0 0 0 0 0 0 0 0 0 0 0 0 0 0 0 1 9 19 26 35 53 51 40 13 13 18

GFSSGP_con_sbcape_033.txt.gz
CAPE
0 0 0 0 0 0 1 31 58 519 459 531 412 428 559 792 792 500 310 654 589 370 221 302 756 903 873 735 679 694 514 453 413 402 273 144 57 0 29 96 67 0 0 0 0 0 0 0 0
0 0 0 0 0 0 18 56 699 423 160 328 235 274 125 407 655 679 546 785 671 473 292 302 757 996 1035 986 859 713 496 398 382 261 98 46 0 0 0 4 157 12 0 0 0 0 0 0 0
0 0 0 0 0 0 50 426 525 310 138 252 293 19 10 361 589 603 623 754 668 414 391 662 828 1047 1118 1079 888 772 644 596 529 278 38 0 0 0 0 165 202 124 0 0 0 0 0 0 0
0 0 0 0 6 24 13 552 298 138 131 76 39 47 6 120 351 628 690 832 759 573 673 541 721 944 1061 1134 918 623 580 686 479 266 92 0 0 0 43 270 246 30 0 0 0 0 0 0 0
0 0 0 6 17 5 15 367 393 217 238 87 139 16 0 5 55 497 935 887 779 775 873 782 691 748 1077 1047 730 607 656 736 530 327 165 4 0 0 18 69 57 4 0 0 0 0 0 0 0
0 0 0 27 49 35 46 318 509 246 28 12 34 117 56 133 50 155 588 752 655 595 581 787 643 745 1051 1068 743 636 694 744 622 426 269 36 53 109 29 48 52 48 46 8 0 0 0 0 0
0 0 0 25 165 218 85 309 465 35 49 20 37 62 721 735 294 265 217 154 271 538 608 849 667 776 753 562 488 512 633 661 676 560 363 274 315 326 243 190 139 105 91 1 0 0 0 0 0
0 0 6 61 278 270 185 228 142 28 0 245 308 265 238 910 824 205 64 47 413 702 1141 1028 858 625 625 486 397 457 504 514 505 323 198 150 116 68 196 172 10 81 22 0 0 0 0 0 0
0 0 9 188 30 321 477 246 80 10 0 21 532 340 783 1296 728 277 288 493 819 875 614 751 506 548 469 256 301 381 547 502 346 143 124 44 121 138 164 0 14 5 0 0 0 0 0 0 0
0 0 6 91 34 127 229 46 34 63 24 145 490 1011 1433 1380 883 722 754 707 799 935 673 666 585 487 269 0 48 36 154 189 325 304 287 578 434 555 125 0 0 0 0 0 0 0 0 0 0
0 1 10 2 136 113 26 16 0 22 131 175 417 1556 1312 1115 1328 1075 1043 1103 987 888 430 516 534 344 25 87 88 165 403 534 597 660 773 844 560 695 592 84 48 49 0 3 0 0 0 0 0
0 0 0 48 90 34 4 54 8 77 53 255 945 1633 1383 1307 1365 1307 1091 1103 793 407 338 291 202 116 118 25 127 359 522 709 797 846 887 773 1051 713 329 67 27 25 0 0 0 0 0 0 0
0 2 0 130 3 0 40 8 69 72 194 316 1452 1602 1459 1173 1094 1256 774 401 333 135 32 30 59 137 213 273 512 719 830 955 1052 1105 961 691 699 1174 329 93 21 15 0 1 1 0 0 0 0
0 0 1 12 44 29 62 76 51 152 251 681 1053 1027 814 629 488 396 278 251 114 73 78 51 90 220 454 664 783 969 992 894 897 803 735 350 276 525 253 86 3 3 0 0 0 0 0 0 0
0 0 0 0 37 103 36 36 7 139 269 417 422 393 201 161 114 112 104 84 151 183 220 191 322 472 725 714 294 101 42 37 118 308 259 174 255 73 165 67 0 0 0 0 0 0 0 0 0
0 0 3 0 2 86 81 42 37 109 261 341 313 280 192 101 17 0 0 47 247 381 358 422 397 636 552 165 1 17 45 78 101 48 15 0 0 0 0 0 0 0 0 0 0 0 0 0 0
0 2 2 0 0 21 65 49 9 81 230 383 443 493 436 300 109 34 7 30 236 599 625 591 672 527 194 0 2 12 30 0 2 0 0 0 0 0 0 0 0 0 0 0 0 0 0 0 0
0 0 1 12 1 38 50 12 18 131 173 343 507 532 489 315 225 329 227 79 173 651 912 784 746 407 58 26 4 0 0 0 0 0 0 0 0 0 0 0 0 0 0 0 0 0 0 0 0
0 0 9 17 3 4 7 0 0 111 193 274 398 525 497 469 538 582 439 321 576 987 1010 953 955 537 237 240 59 27 11 0 0 0 0 0 0 0 0 0 0 0 0 0 0 0 0 0 0
0 0 15 0 0 27 0 6 53 115 200 236 289 426 520 586 695 675 706 824 877 1084 1087 892 771 597 442 464 182 50 7 3 1 0 0 0 0 0 0 0 0 0 0 0 0 0 0 0 1
1 6 18 20 7 12 103 77 74 147 327 367 391 388 456 593 762 837 826 953 1002 811 774 793 721 633 639 312 68 51 63 28 0 0 0 0 0 0 0 0 0 0 0 0 0 4 3 4 5
39 44 48 78 59 19 80 28 24 194 259 354 462 554 549 641 808 995 1070 893 804 782 866 1047 931 721 255 43 33 57 52 18 28 9 1 0 0 0 0 0 0 0 0 2 8 10 17 25 19
50 43 110 122 74 17 104 84 28 278 207 259 360 499 645 801 872 947 1015 1123 1211 1103 950 816 449 60 4 23 37 66 32 41 18 2 0 0 1 2 0 0 7 9 13 19 28 37 39 38 29
82 118 142 153 119 175 94 96 149 339 236 273 406 539 721 876 963 924 761 544 372 487 617 439 4 3 0 0 4 10 7 0 4 4 0 0 0 0 0 4 9 15 20 34 47 49 27 56 58
137 172 205 111 157 162 102 77 52 78 129 249 562 680 807 735 579 207 16 0 0 17 100 60 1 0 0 0 0 0 0 0 0 0 0 0 0 0 0 0 1 3 5 10 30 47 56 88 69
134 103 205 73 57 75 103 3 92 53 14 181 509 447 625 393 141 0 0 0 0 0 0 0 0 1 0 0 0 0 0 0 0 0 0 0 0 0 0 0 0 1 7 14 42 78 108 101 67
96 55 102 115 154 26 0 29 143 37 21 86 434 297 385 128 0 0 0 0 0 0 0 0 2 4 2 0 0 0 0 0 0 0 0 0 0 0 0 0 0 0 0 3 25 76 93 100 99
60 35 22 11 4 0 32 0 136 31 0 47 371 299 223 59 0 0 0 0 0 0 2 3 3 1 0 0 0 0 0 0 0 0 0 0 0 0 0 0 0 0 0 6 22 40 68 62 102
67 9 0 20 19 0 0 21 0 0 0 5 154 283 140 78 0 1 0 0 0 2 3 0 0 0 0 0 0 0 0 0 0 0 0 0 0 0 0 0 0 0 6 16 16 42 62 49 43
14 34 14 0 0 0 15 0 0 0 0 0 21 145 136 73 8 6 3 0 1 2 1 0 0 0 0 0 0 0 0 0 0 0 0 0 0 0 0 0 3 10 13 11 30 39 15 29 26

GFSSGP_con_sbcape_039.txt.gz
CAPE
0 0 0 0 0 0 0 0 605 761 713 485 745 782 737 788 803 471 333 30 268 529 503 528 578 806 885 915 787 605 453 266 190 155 113 68 83 64 138 138 66 39 0 0 0 0 0 0 0
0 0 0 0 0 0 0 16 613 740 706 513 82 257 773 979 881 487 135 75 204 388 345 398 594 787 869 791 627 488 287 225 184 130 60 140 85 58 141 170 89 61 0 0 0 0 0 0 0
0 0 0 0 0 0 0 388 439 707 573 353 41 11 379 850 747 768 217 21 78 148 309 587 668 683 750 657 581 371 263 210 139 104 111 67 41 45 47 205 95 61 0 0 0 0 0 0 0
0 0 0 0 0 0 0 519 404 377 294 231 8 80 35 205 509 738 460 56 34 197 350 443 507 594 775 756 551 318 229 125 116 165 219 91 100 84 79 211 155 6 0 0 0 0 0 0 0
0 0 0 0 0 9 357 369 385 272 120 219 69 1 26 12 684 773 527 331 226 313 340 322 311 538 750 796 474 311 215 163 179 244 246 219 72 55 76 243 201 28 0 0 0 0 0 0 0
0 0 0 0 0 0 476 140 12 2 50 74 113 8 0 39 532 445 334 311 223 214 189 141 244 443 526 598 391 265 219 213 232 248 275 232 220 246 234 287 243 56 0 0 0 0 0 0 0
0 0 0 0 0 282 411 303 160 57 87 139 91 429 10 0 291 195 42 117 28 67 92 154 343 371 382 351 249 222 212 218 256 267 251 253 257 287 326 326 241 27 2 0 0 0 0 0 0
0 0 0 0 0 281 166 166 112 43 43 195 150 321 87 32 0 31 11 9 70 112 99 366 223 186 182 237 212 170 158 166 162 138 110 124 141 164 87 188 201 39 0 0 0 0 0 0 0
0 0 0 0 119 124 314 282 140 13 10 123 413 388 175 0 0 19 8 21 17 124 132 149 173 147 113 141 160 136 145 84 85 88 57 20 0 5 0 0 11 0 0 0 0 0 0 0 0
0 0 0 0 139 85 72 151 83 6 0 597 2 746 119 0 0 2 12 50 1 79 201 206 182 97 63 88 42 36 33 4 0 0 0 0 0 0 0 0 0 0 0 0 0 0 0 0 0
0 0 0 40 205 63 31 0 7 18 0 76 490 533 68 47 7 59 51 27 23 30 168 234 201 27 0 1 1 3 1 0 0 0 0 0 48 0 0 0 0 0 0 0 0 0 0 0 0
0 0 0 222 202 50 0 1 1 0 45 670 654 466 148 369 266 210 123 25 35 110 122 190 132 2 0 0 1 0 17 34 81 247 250 74 71 4 0 0 0 0 0 0 0 0 0 0 0
0 0 132 325 181 10 0 0 0 0 694 1228 1042 1019 916 788 417 377 152 106 12 53 63 40 10 0 0 5 90 156 258 282 352 225 10 0 0 0 0 0 0 0 0 0 0 0 0 0 0
0 1 88 68 66 48 2 25 0 3 60 1197 944 981 813 658 429 288 178 171 137 42 9 13 15 0 172 271 230 254 303 221 116 112 10 0 0 0 0 0 0 0 0 0 0 0 0 0 0
2 1 81 6 13 0 0 20 0 7 166 1134 992 970 653 726 709 421 221 39 2 0 0 0 9 199 239 89 0 0 0 0 16 12 4 0 0 0 0 0 0 0 0 0 0 0 0 0 0
0 0 0 0 24 3 0 1 6 0 112 872 808 401 271 322 677 140 84 1 0 0 0 3 202 197 0 0 0 0 0 0 0 0 0 0 0 0 0 0 0 0 0 0 0 0 0 0 0
0 0 0 0 12 0 0 11 0 9 263 341 252 145 46 45 30 41 1 0 0 0 2 95 257 3 0 0 0 0 0 0 0 0 0 0 0 0 0 0 0 0 0 0 0 0 0 0 0
0 0 0 0 10 33 4 0 0 0 64 38 52 1 1 0 0 0 0 0 0 5 89 268 22 0 0 0 0 0 0 0 0 0 0 0 0 0 0 0 0 0 0 0 0 0 0 0 0
0 0 0 0 0 10 0 0 0 0 11 67 14 0 0 0 0 0 0 19 21 100 240 238 22 0 0 0 0 0 0 0 0 0 0 0 0 0 0 0 0 0 0 0 0 0 0 0 0
0 0 0 0 0 1 0 0 0 0 0 51 52 34 0 12 6 9 0 12 136 225 312 191 111 14 0 0 0 0 0 0 0 0 0 0 0 0 0 0 0 0 0 0 0 0 0 0 0
0 1 0 0 0 0 0 0 0 0 0 15 122 120 62 46 161 178 142 162 366 329 358 197 64 15 0 2 0 0 0 0 0 0 0 0 0 0 0 0 0 0 0 0 0 0 0 0 0
0 0 2 9 0 0 0 4 1 0 0 0 136 165 109 40 347 292 273 244 509 451 318 328 209 132 14 33 0 0 0 0 0 0 0 0 0 0 0 0 0 0 0 0 0 0 0 0 0
0 0 0 1 0 0 0 0 0 0 0 2 0 0 43 82 346 356 334 387 539 457 484 407 270 320 151 103 0 0 0 0 0 0 0 0 0 0 0 0 0 0 0 0 0 0 0 0 0
0 11 8 6 0 0 4 0 0 0 0 11 8 8 12 0 366 398 349 519 527 529 521 348 206 214 241 0 0 0 0 0 0 0 0 0 0 0 0 0 0 0 0 0 0 0 0 0 0
1 0 1 2 0 16 17 0 0 0 0 0 0 6 105 275 267 428 512 516 383 249 210 245 274 130 0 0 0 0 0 0 0 0 0 0 0 0 0 0 0 0 0 0 0 0 0 0 0
1 0 2 2 0 0 5 15 0 0 0 0 3 0 176 333 292 411 468 367 466 377 322 420 52 0 0 0 0 0 0 0 0 0 0 0 0 0 0 0 0 0 0 0 0 0 0 0 0
24 6 0 2 0 0 0 1 0 0 30 3 0 6 390 491 350 319 115 97 269 112 6 0 0 0 0 0 0 0 0 0 0 0 0 0 0 0 0 0 0 0 0 0 0 0 0 0 0
13 0 36 1 0 12 0 0 1 0 3 9 224 383 414 320 154 7 0 0 0 0 0 0 0 0 0 0 0 0 0 0 0 0 0 0 0 0 0 0 0 0 0 0 0 0 0 0 0
2 0 2 0 0 2 4 0 0 0 1 7 237 307 347 236 10 0 0 0 0 0 0 0 0 0 0 0 0 0 0 0 0 0 0 0 0 0 0 0 0 0 0 0 0 0 0 0 0
1 76 25 0 0 0 0 0 0 0 0 0 0 120 146 67 0 0 0 0 0 0 0 0 0 0 0 0 0 0 0 0 0 0 0 0 0 0 0 0 0 0 0 0 0 0 0 0 0

GFSSGP_con_sbcape_042.txt.gz
CAPE
1 0 0 0 0 0 0 0 89 674 611 459 866 879 915 874 712 412 122 71 547 642 742 607 622 784 837 788 644 385 234 69 59 85 138 112 136 20 104 59 24 7 0 0 0 0 0 0 0
0 0 0 0 0 0 0 0 415 700 628 380 147 699 891 1082 762 364 303 557 463 707 598 525 633 724 802 662 476 254 117 65 126 114 128 202 151 20 64 116 71 45 0 0 0 0 0 0 0
0 0 0 0 0 0 0 109 637 700 704 337 67 188 677 936 905 502 334 592 521 575 460 623 579 615 687 565 325 200 154 137 207 214 184 139 53 31 27 153 96 72 0 0 0 0 0 0 0
0 0 0 0 0 0 0 50 574 728 368 92 86 180 173 82 727 462 354 585 416 416 529 516 562 531 629 501 321 208 140 155 230 264 260 124 52 36 65 169 125 40 0 0 0 0 0 0 0
0 0 0 0 0 0 359 175 133 214 170 195 55 9 189 179 587 331 271 312 492 533 458 362 436 540 493 421 314 214 185 238 268 275 271 205 49 36 71 155 106 48 0 0 0 0 0 0 0
0 0 0 0 0 602 458 335 4 45 51 88 10 14 5 385 555 455 358 359 218 181 131 194 259 355 312 285 258 200 228 282 273 262 237 237 222 184 191 139 108 51 9 0 0 0 0 0 0
0 0 0 0 0 278 574 313 146 108 0 162 26 160 4 149 298 347 61 35 84 95 78 50 176 349 278 228 207 161 190 220 228 199 199 219 225 258 281 194 72 27 0 0 0 0 0 0 0
0 0 0 0 0 56 204 197 271 106 41 73 49 178 0 24 207 99 0 6 4 5 48 118 79 170 274 180 156 163 164 167 133 131 145 148 182 207 232 156 57 5 0 0 0 0 0 0 0
0 0 0 0 0 207 286 234 57 118 79 648 704 370 90 45 48 29 35 8 5 60 125 120 66 179 185 109 96 129 173 123 121 123 81 8 0 0 2 4 6 0 0 0 0 0 0 0 0
0 0 0 0 84 82 259 187 50 37 402 366 95 16 28 29 21 10 21 17 8 12 4 104 138 129 141 86 38 16 31 16 4 0 0 0 0 0 0 0 0 0 0 0 0 0 0 0 0
0 0 0 12 46 13 72 4 10 1 0 21 224 1 0 11 33 0 0 12 5 66 45 131 160 102 35 30 2 0 0 0 0 0 0 0 0 0 0 0 0 0 0 0 0 0 0 0 0
0 0 0 87 58 34 24 0 0 14 33 76 432 86 0 46 79 2 12 18 28 41 102 167 65 14 0 0 0 0 0 0 0 1 1 0 0 0 0 0 0 0 0 0 0 0 0 0 0
0 0 32 134 74 22 23 0 0 509 768 629 233 103 44 103 82 21 7 18 10 20 27 117 28 0 0 0 0 0 7 21 25 0 0 4 0 0 0 0 0 0 0 0 0 0 0 0 0
0 6 88 132 72 20 11 0 0 21 1064 681 346 186 210 171 306 114 53 22 37 32 88 194 65 0 0 23 43 41 145 66 0 0 0 0 0 0 0 0 0 0 0 0 0 0 0 0 0
0 58 104 73 14 0 0 0 0 120 884 964 973 918 893 519 437 181 88 16 20 62 121 50 19 5 112 145 178 18 0 0 0 0 0 0 0 0 0 0 0 0 0 0 0 0 0 0 0
0 2 45 45 3 0 0 0 0 0 732 689 751 938 775 591 448 294 234 44 81 75 21 12 106 71 10 0 0 0 0 0 0 0 0 0 0 0 0 0 0 0 0 0 0 0 0 0 0
0 0 0 9 7 2 0 0 0 2 367 861 735 512 643 624 459 280 269 217 125 28 0 33 62 3 0 0 0 0 0 0 0 0 0 0 0 0 0 0 0 0 0 0 0 0 0 0 0
0 0 0 0 14 14 14 0 0 6 76 651 562 95 234 552 570 422 149 89 1 0 0 151 0 0 0 0 0 0 0 0 0 0 0 0 0 0 0 0 0 0 0 0 0 0 0 0 0
0 0 0 0 0 11 3 0 0 4 168 242 210 0 16 171 237 157 3 5 0 0 81 56 0 0 0 0 0 0 0 0 0 0 0 0 0 0 0 0 0 0 0 0 0 0 0 0 0
0 0 0 0 0 22 3 0 0 0 34 37 56 0 0 0 1 1 0 0 0 65 197 65 0 0 0 0 0 0 0 0 0 0 0 0 0 0 0 0 0 0 0 0 0 0 0 0 0
0 0 0 0 0 0 0 0 0 0 0 0 7 0 0 0 0 0 0 0 8 194 219 62 15 0 0 0 0 0 0 0 0 0 0 0 0 0 0 0 0 0 0 0 0 0 0 0 0
0 0 0 0 0 0 0 0 0 0 0 0 10 0 0 0 0 0 1 0 32 212 197 99 15 0 0 0 0 0 0 0 0 0 0 0 0 0 0 0 0 0 0 0 0 0 0 0 0
0 0 0 0 0 0 0 0 0 0 0 0 0 2 0 0 0 2 76 54 73 149 149 100 24 0 0 0 0 0 0 0 0 0 0 0 0 0 0 0 0 0 0 0 0 0 0 0 0
0 0 0 0 0 0 0 0 0 0 0 0 0 0 0 0 7 13 49 283 220 178 136 110 162 124 22 0 0 0 0 0 0 0 0 0 0 0 0 0 0 0 0 0 0 0 0 0 0
0 0 0 0 0 0 0 0 0 0 0 0 0 0 0 0 110 60 303 447 355 311 226 213 311 230 45 0 0 0 0 0 0 0 0 0 0 0 0 0 0 0 0 0 0 0 0 0 0
0 0 0 0 0 0 0 0 0 0 0 0 0 0 0 0 155 220 377 470 538 454 334 288 170 78 0 0 0 0 0 0 0 0 0 0 0 0 0 0 0 0 0 0 0 0 0 0 0
0 0 0 0 0 0 0 0 0 0 7 0 0 0 80 67 246 381 380 309 232 126 49 88 68 0 0 0 0 0 0 0 0 0 0 0 0 0 0 0 0 0 0 0 0 0 0 0 0
0 0 4 2 0 0 0 0 0 0 46 3 0 0 174 90 103 161 111 137 134 59 1 0 0 0 0 0 0 0 0 0 0 0 0 0 0 0 0 0 0 0 0 0 0 0 0 0 0
0 0 0 0 0 0 2 0 0 0 18 64 9 18 262 193 34 31 21 16 5 0 0 0 0 0 0 0 0 0 0 0 0 0 0 0 0 0 0 0 0 0 0 0 0 0 0 0 0
0 0 0 0 0 0 0 0 0 0 0 5 100 74 110 95 10 0 0 0 0 0 0 0 0 0 0 0 0 0 0 0 0 0 0 0 0 0 0 0 0 0 0 0 0 0 0 0 0

GFSSGP_con_sbcape_045.txt.gz
CAPE
0 0 0 0 0 0 0 0 0 466 675 666 887 926 905 866 614 383 162 260 897 895 880 776 735 827 732 600 411 201 103 8 5 29 128 142 130 97 56 39 23 25 7 0 0 0 68 245 264
0 0 0 0 0 0 0 0 0 229 623 422 227 670 945 970 814 466 452 726 1059 993 789 657 734 745 704 502 298 141 37 23 78 170 118 127 17 87 113 97 62 36 46 3 0 0 0 24 259
0 0 0 0 0 0 0 0 300 712 452 231 172 384 731 691 578 545 640 717 1063 860 607 602 660 632 599 418 184 110 134 160 172 230 130 142 52 46 57 134 72 42 38 1 0 0 0 0 41
0 0 0 0 0 0 0 0 497 500 174 84 176 67 358 331 752 590 753 978 805 697 554 381 483 541 514 378 289 219 251 219 234 262 228 179 71 45 106 142 80 57 28 0 0 0 0 0 0
0 0 0 0 0 0 337 207 306 157 91 45 14 282 271 687 537 855 696 720 735 622 479 401 370 492 534 357 277 302 318 307 346 342 250 204 151 83 153 162 111 53 21 0 0 0 0 0 0
0 0 0 0 0 305 511 386 104 129 108 28 183 33 310 675 673 627 579 548 574 336 207 153 186 283 428 365 264 311 401 393 370 326 244 236 179 156 131 123 87 64 24 11 0 0 0 0 0
0 0 0 0 0 0 593 351 184 176 33 109 34 51 123 595 514 364 199 51 19 4 3 13 26 215 374 330 244 293 399 414 359 301 287 252 197 149 136 92 49 39 10 0 0 0 0 0 0
0 0 0 0 0 0 246 390 291 81 20 225 294 51 126 426 88 1 0 0 1 10 7 26 79 188 242 223 243 275 349 356 338 309 242 216 247 190 137 86 33 0 0 0 0 0 0 0 0
0 0 0 0 0 0 355 308 125 256 631 297 403 265 266 229 8 2 2 3 1 0 40 33 15 135 188 162 209 329 372 303 219 212 171 43 20 17 0 3 0 0 0 0 2 0 0 0 0
0 0 0 0 0 134 294 297 42 277 456 130 130 360 453 194 72 4 4 5 2 1 23 43 19 49 165 83 88 94 106 41 20 12 11 1 0 0 0 0 11 0 0 0 0 0 0 0 0
0 0 0 0 0 23 176 127 1 109 213 277 402 103 166 112 51 55 10 4 2 1 4 110 45 164 124 71 45 20 4 0 0 0 0 0 0 0 0 0 0 0 0 0 0 0 0 0 0
0 0 0 0 127 31 89 4 3 0 6 84 98 134 41 26 46 42 14 11 8 0 9 76 82 162 88 30 17 5 0 0 0 0 0 0 0 0 0 0 0 0 0 0 0 0 0 0 0
0 0 45 86 65 23 11 10 430 830 291 84 6 37 74 82 104 46 27 4 0 3 6 146 141 100 11 5 0 0 0 0 5 6 7 0 0 0 0 0 0 0 0 0 0 0 0 0 0
0 77 150 90 61 32 0 1 47 461 479 287 53 53 130 133 59 18 32 5 13 50 100 109 81 15 0 0 0 0 12 41 1 0 0 1 0 0 0 0 0 0 0 0 0 0 0 0 0
0 127 105 94 11 0 0 0 61 345 594 222 114 108 226 135 67 31 36 19 10 8 37 91 96 0 0 0 1 16 41 15 0 0 0 0 0 0 0 0 0 0 0 0 0 0 0 0 0
0 44 174 133 20 0 0 0 30 622 709 545 195 163 283 341 174 100 94 33 16 27 98 155 156 0 6 15 1 0 0 0 0 0 0 0 0 0 0 0 0 0 0 0 0 0 0 0 0
0 3 0 122 23 0 0 2 9 497 628 516 897 831 759 481 544 257 143 59 5 44 138 93 32 15 3 0 0 0 0 0 0 0 0 0 0 0 0 0 0 0 0 0 0 0 0 0 0
0 0 0 60 8 0 3 10 0 31 642 427 595 591 751 572 558 414 243 182 4 89 2 36 38 0 0 0 0 0 0 0 0 0 0 0 0 0 0 0 0 0 0 0 0 0 0 0 0
0 0 0 0 0 20 6 0 0 0 395 591 425 273 660 577 507 349 313 195 164 0 2 81 0 0 0 0 0 0 0 0 0 0 0 0 0 0 0 0 0 0 0 0 0 0 0 0 0
0 0 0 0 0 7 0 0 0 0 75 458 417 148 144 509 530 381 297 170 0 0 4 0 0 0 0 0 0 0 0 0 0 0 0 0 0 0 0 0 0 0 0 0 0 0 0 0 0
0 0 0 0 0 0 0 0 0 0 0 203 266 159 31 215 363 439 109 40 0 0 17 9 0 0 0 0 0 0 0 0 0 0 0 0 0 0 0 0 0 0 0 0 0 0 0 0 0
0 0 0 0 0 0 0 0 0 0 0 7 168 24 0 13 182 304 37 1 0 11 29 44 9 0 0 0 0 0 0 0 0 0 0 0 0 0 0 0 0 0 0 0 0 0 0 0 0
0 0 0 0 0 0 0 0 0 0 0 0 0 6 0 0 0 35 9 0 1 15 56 33 4 0 0 0 0 0 0 0 0 0 0 0 0 0 0 0 0 0 0 0 0 0 0 0 0
0 0 0 0 0 0 0 0 0 0 0 0 0 0 0 0 0 0 0 0 0 7 13 0 0 0 0 0 0 0 0 0 0 0 0 0 0 0 0 0 0 0 0 0 0 0 0 0 0
0 0 0 0 0 0 0 0 0 0 0 0 0 0 0 0 0 0 0 0 0 5 4 0 0 0 0 0 0 0 0 0 0 0 0 0 0 0 0 0 0 0 0 0 0 0 0 0 0
0 0 0 0 0 0 0 0 0 0 0 0 0 0 0 0 0 0 6 55 38 42 26 36 45 59 58 4 0 0 0 0 0 0 0 0 0 0 0 0 0 0 0 0 0 0 0 0 0
0 0 0 0 0 0 0 0 0 0 0 0 0 0 0 0 0 1 84 221 143 79 35 62 129 164 22 0 0 0 0 0 0 0 0 0 0 0 0 0 0 0 0 0 0 0 0 0 0
0 0 0 0 0 0 0 0 0 0 0 3 0 0 0 0 9 42 159 251 246 212 105 49 22 0 0 0 0 0 0 0 0 0 0 0 0 0 0 0 0 0 0 0 0 0 0 0 0
0 0 0 0 0 0 0 0 0 0 0 0 0 0 26 65 135 127 142 93 91 15 1 0 0 0 0 0 0 0 0 0 0 0 0 0 0 0 0 0 0 0 0 0 0 0 0 0 0
0 0 0 0 0 0 0 0 0 0 0 0 0 0 50 52 97 62 59 19 0 0 0 0 0 0 0 0 0 0 0 0 0 0 0 0 0 0 0 0 0 0 0 0 0 0 0 0 0

GFSSGP_con_sbcape_051.txt.gz
CAPE
0 0 0 0 0 0 0 0 0 0 104 1038 1069 1247 1115 779 762 689 538 524 1128 924 805 754 783 716 555 367 265 222 252 196 168 233 226 147 129 139 152 149 348 774 589 460 215 450 382 173 53
0 0 0 0 0 0 0 0 0 46 448 377 515 789 1023 909 768 687 691 767 1122 1005 815 778 699 537 433 288 257 286 219 200 258 253 208 181 170 189 190 150 316 798 866 615 428 515 397 124 72
0 0 0 0 0 0 0 0 0 806 560 483 668 696 891 808 860 742 789 1276 1323 1050 839 751 524 386 322 223 239 276 299 258 224 231 235 246 226 232 203 141 132 341 723 624 607 425 113 13 42
0 0 0 0 0 0 0 0 408 659 469 488 363 824 838 902 923 1099 1280 1366 1267 977 817 511 341 307 265 261 355 352 271 181 145 193 291 292 279 265 200 115 83 192 372 346 278 4 0 9 0
0 0 0 0 0 0 0 319 703 632 555 557 425 676 768 925 1240 1170 1299 1284 983 845 730 557 248 238 327 421 509 419 263 201 221 250 278 243 260 202 195 141 98 82 114 88 4 2 1 0 0
0 0 0 0 0 0 82 678 630 656 529 440 599 759 775 1044 723 451 431 346 485 422 502 279 347 323 393 436 436 322 282 272 279 305 311 280 210 142 164 167 135 90 24 0 0 9 7 0 0
0 0 0 0 0 0 99 695 596 586 645 499 500 700 685 1024 252 94 10 2 4 2 11 252 128 171 265 304 332 322 299 310 335 370 293 251 177 110 105 126 115 81 36 14 0 0 0 0 0
0 0 0 0 0 0 199 799 615 479 877 901 688 612 749 699 55 2 2 2 2 9 3 4 20 38 41 269 311 404 292 273 286 275 215 195 167 129 135 159 135 48 20 0 0 0 0 0 0
0 0 0 0 0 0 613 796 593 879 875 723 715 548 653 102 4 3 4 3 1 3 11 5 11 0 80 245 328 420 405 246 209 189 172 74 22 1 0 24 108 92 4 0 0 0 0 0 0
0 0 0 0 0 0 461 517 763 966 765 618 782 638 319 4 2 4 4 5 6 2 1 7 25 29 69 140 276 321 314 223 152 115 87 74 56 6 0 11 59 23 0 0 0 0 0 0 0
0 0 0 0 0 10 206 447 301 897 841 729 754 820 308 2 1 4 8 6 5 8 21 23 20 0 24 74 140 198 243 170 101 85 66 53 49 41 0 2 0 0 0 0 0 0 0 0 0
0 0 0 0 1 114 371 292 284 568 404 498 907 603 250 7 1 2 8 18 16 15 22 18 8 19 65 113 196 181 115 83 76 64 81 32 17 10 0 0 0 0 0 0 0 0 0 0 0
0 0 0 27 78 116 177 224 414 667 706 687 670 527 353 111 7 2 2 0 0 0 1 0 0 0 36 118 120 91 96 79 96 78 117 1 0 0 0 0 0 0 0 0 0 0 0 0 0
0 147 144 103 114 87 210 543 455 650 703 610 436 362 282 256 64 2 1 0 0 0 0 0 0 2 60 175 101 121 105 60 74 99 151 28 0 0 0 0 0 0 0 0 0 0 0 0 0
0 214 238 190 94 73 105 111 205 589 653 535 429 170 132 98 129 63 12 0 0 0 0 0 0 21 160 190 69 77 39 17 27 64 19 41 1 0 0 0 0 0 0 0 0 0 0 0 0
8 30 207 183 99 0 0 18 432 614 552 463 390 144 136 176 111 68 47 15 7 2 0 3 23 107 149 117 46 10 34 105 110 69 100 135 40 0 0 0 0 0 0 0 0 0 0 0 0
0 18 36 162 60 1 1 1 322 809 508 451 353 274 300 357 147 130 67 18 0 2 7 21 193 306 147 78 28 30 55 123 172 2 1 0 0 0 0 0 0 0 0 0 0 0 0 0 0
5 1 0 35 37 24 16 19 240 903 717 673 491 376 511 392 267 111 119 70 16 13 43 126 295 282 83 50 6 12 29 69 26 0 0 0 0 0 0 0 0 0 0 0 0 0 0 0 0
0 0 0 0 0 0 2 18 8 878 820 749 504 403 521 460 351 129 98 102 35 27 69 112 280 267 89 42 27 30 33 47 7 0 0 0 0 0 0 0 0 0 0 0 0 0 0 0 0
0 0 1 0 0 0 0 3 0 334 948 799 776 482 461 524 547 368 215 151 116 72 97 138 227 273 147 81 43 34 34 7 12 2 0 0 0 0 0 0 0 0 0 0 0 0 0 0 0
0 0 0 0 0 0 0 0 0 1 247 630 639 794 620 633 778 717 552 363 265 142 118 122 209 273 212 88 23 0 1 2 2 2 0 0 0 0 0 0 0 0 0 0 0 0 0 0 0
0 0 0 0 0 0 0 3 0 0 1 76 751 608 782 733 778 877 831 703 515 367 162 130 185 203 155 47 16 4 44 63 2 3 0 0 0 0 0 0 0 0 0 0 0 0 0 0 0
0 0 0 0 0 0 0 0 0 0 0 0 38 566 638 618 771 831 840 870 800 544 335 259 199 160 128 16 30 35 20 70 0 0 0 0 0 0 0 0 0 0 0 0 0 0 0 0 0
0 0 0 0 0 0 0 0 2 0 0 0 0 4 340 489 405 731 901 770 670 480 313 286 211 163 125 39 30 0 0 0 0 0 0 0 0 0 0 0 0 0 0 0 0 0 0 0 0
0 0 0 0 0 0 0 0 12 0 0 0 0 0 17 376 380 398 634 723 632 320 220 223 236 239 73 4 3 0 1 0 0 0 0 0 0 0 0 0 0 0 0 0 0 0 0 0 0
0 0 7 0 0 0 0 0 0 0 0 0 0 0 0 88 223 232 395 621 565 333 260 245 269 327 155 55 11 0 0 1 0 0 0 0 0 0 0 0 0 0 0 0 0 0 0 0 0
0 0 0 0 0 0 0 0 0 0 0 0 0 0 0 0 0 52 126 282 306 189 226 305 295 251 119 88 86 58 5 2 4 0 0 0 0 0 0 0 0 0 0 0 0 0 0 0 0
0 0 0 0 0 0 0 0 0 0 0 0 0 0 0 0 0 0 0 11 80 140 213 250 320 337 237 134 121 83 3 4 4 1 1 0 0 0 0 0 0 0 0 0 0 0 0 0 0
0 0 0 0 0 0 0 0 0 0 0 0 0 0 0 1 0 0 1 40 89 155 223 262 318 385 373 336 194 29 2 4 2 3 1 0 0 0 0 0 0 0 0 0 0 0 0 0 0
0 0 0 20 0 0 0 0 0 0 0 0 0 0 0 4 38 2 55 169 237 222 253 312 317 319 305 70 0 2 2 3 3 3 0 0 0 0 0 0 0 0 0 0 0 0 0 0 0

GFSSGP_con_sbcape_054.txt.gz
CAPE
0 0 0 0 0 0 0 0 0 1 149 928 1513 1118 711 1342 1381 820 961 1346 1301 1346 809 869 844 776 673 559 412 358 339 320 206 281 201 217 215 299 378 615 590 638 783 536 341 23 9 0 0
0 0 0 0 0 0 3 0 0 200 667 1075 1255 1576 1439 1113 1090 1079 1107 993 1484 1313 981 630 756 654 558 429 385 387 314 273 331 257 280 285 318 346 887 888 892 812 907 687 337 23 11 0 5
0 0 0 0 0 0 31 0 0 873 1229 1081 1415 1462 1446 1165 1318 999 955 1304 1416 1127 1036 833 626 560 470 423 412 337 359 309 249 284 359 403 331 392 580 813 784 835 1089 597 255 5 0 1 47
0 0 0 0 0 0 0 0 336 1096 1050 1130 1266 1448 1355 1399 1269 1463 1385 1488 1387 1134 879 393 368 313 471 484 453 430 335 216 225 300 383 454 343 318 365 503 945 1095 961 365 1 0 0 7 0
0 0 0 0 0 0 0 2 658 1110 1073 1006 1132 1346 1368 1512 1239 1496 1503 1431 1363 1050 797 392 177 236 394 581 534 413 237 228 270 316 352 371 343 257 201 323 547 712 483 94 0 0 0 0 0
0 0 0 1 0 0 0 82 908 1203 983 952 1067 1068 1377 1444 1198 583 504 575 754 746 714 434 201 278 382 455 395 265 195 231 281 282 314 342 301 243 229 188 216 185 186 135 13 0 0 0 0
0 0 0 0 0 0 28 789 942 1110 962 932 989 914 1481 1046 524 161 87 49 18 60 133 20 63 312 228 237 262 235 318 303 279 265 262 241 228 214 204 185 130 73 67 108 14 0 0 0 0
0 0 0 0 0 4 94 591 1035 1030 1155 1270 1142 1026 1327 704 110 6 3 5 3 3 2 5 7 199 238 242 234 191 322 315 284 264 231 207 198 203 188 142 139 114 8 0 0 0 0 0 0
0 0 11 0 0 11 290 115 1064 1251 1316 1343 1237 1255 836 317 218 85 6 9 5 8 7 0 0 0 9 57 219 308 312 309 247 191 133 76 40 31 16 78 133 100 32 0 0 0 0 0 0
0 1 5 0 0 0 2 141 644 1323 1293 1297 1339 830 361 256 72 2 3 6 9 7 8 1 0 0 20 99 62 290 304 229 154 109 65 25 45 23 45 76 80 14 0 0 0 0 0 0 0
0 2 0 0 0 0 1 145 881 1171 1087 1153 1297 710 309 204 44 2 7 6 8 8 13 14 12 46 65 41 8 123 350 232 163 185 68 50 39 32 19 7 0 0 0 0 0 0 0 0 0
0 0 0 0 0 8 73 794 909 1011 1060 926 1218 595 348 325 175 5 8 8 5 10 15 8 16 20 2 92 11 29 132 244 173 126 128 96 59 19 27 0 0 0 0 0 0 0 0 0 0
0 10 108 41 63 182 720 840 757 1068 1188 1415 937 718 511 514 316 18 6 12 20 16 26 11 38 41 88 95 39 147 240 172 101 133 110 84 76 23 0 5 0 0 0 0 0 0 0 0 0
6 160 491 230 358 565 685 952 942 1257 1289 1260 935 839 498 293 128 80 12 6 10 11 19 0 5 1 14 73 64 146 224 144 193 132 140 98 64 77 15 0 0 0 0 0 0 0 0 0 0
9 225 550 550 543 503 638 681 519 1268 1242 1145 935 805 541 329 69 76 87 15 7 2 13 1 8 89 128 180 164 201 112 74 64 163 346 164 73 68 23 0 0 0 0 0 0 0 0 0 0
44 259 136 591 551 182 311 91 608 1197 1211 1069 986 819 602 412 145 49 50 33 7 18 20 15 3 80 137 249 237 129 67 65 67 296 431 381 225 52 43 0 0 0 0 0 0 0 0 0 0
44 70 105 226 197 174 213 163 468 1185 1105 919 838 731 571 435 330 171 126 73 23 14 12 5 6 36 137 355 362 55 167 103 68 281 397 384 521 317 82 18 2 0 0 0 0 0 0 0 0
44 51 87 104 139 228 217 179 137 1160 860 741 931 766 824 692 466 319 265 156 123 84 11 0 57 157 338 428 474 199 66 124 246 490 442 367 478 479 226 73 6 0 0 0 0 0 0 0 0
4 37 59 78 71 54 56 88 90 901 1009 849 1036 794 678 934 755 355 321 208 139 118 121 149 194 298 569 507 385 197 77 153 312 492 496 226 272 253 231 74 0 0 0 0 0 0 0 0 0
13 43 26 45 10 10 49 61 64 499 1057 921 948 987 841 1003 737 316 373 266 160 123 201 221 254 454 641 496 349 128 46 117 260 397 142 92 51 18 23 3 0 0 0 0 0 0 0 0 0
33 35 28 27 8 1 24 51 69 112 693 941 1058 988 694 775 927 762 349 364 320 208 287 392 514 675 842 627 481 209 159 211 270 269 210 8 3 0 0 0 0 0 0 0 0 0 0 0 0
11 20 2 8 25 61 7 51 25 66 179 528 880 1166 1135 575 777 1080 857 511 378 342 298 301 347 471 780 821 516 219 112 135 245 296 94 7 1 0 0 0 0 0 0 0 0 0 0 0 0
16 0 10 18 48 48 32 43 81 2 37 68 243 758 1150 1184 763 998 1265 1130 872 608 473 475 468 501 651 823 836 523 211 127 416 438 189 5 0 2 0 0 0 0 0 0 0 0 0 0 0
0 0 1 36 73 81 32 40 70 63 43 36 20 109 577 1019 1125 869 1115 1410 1464 1416 1249 1063 722 580 690 770 884 943 688 552 703 460 274 115 6 3 0 0 0 0 0 0 0 0 0 0 0
0 38 91 108 118 109 0 16 60 26 19 43 82 140 81 480 1093 1116 1028 1273 1491 1594 1669 1457 1181 942 844 944 1008 1063 1017 881 731 519 296 75 6 0 0 0 0 0 0 0 0 0 0 0 0
0 55 114 54 95 91 0 29 70 6 3 4 133 73 9 63 433 1034 1086 1257 1405 1530 1679 1562 1368 1271 1047 1133 1137 1073 862 885 667 412 201 94 1 0 2 0 0 0 0 0 0 0 0 0 0
2 15 30 56 12 137 38 4 2 0 0 15 57 89 12 14 255 503 834 1165 1399 1531 1525 1586 1504 1378 1314 1049 1152 941 786 578 555 259 53 9 0 0 0 0 0 0 0 0 0 0 0 0 0
1 15 32 79 59 51 35 0 20 0 0 0 0 31 252 162 109 176 397 821 1148 1353 1375 1473 1436 1350 1373 1200 1058 859 673 570 383 175 34 3 0 0 0 0 0 0 0 0 0 0 0 0 1
4 9 7 66 61 61 24 34 0 0 0 0 8 92 170 359 288 276 213 280 502 799 961 1121 1207 1247 1259 1218 1139 951 934 746 214 31 6 2 0 0 0 0 0 0 0 0 0 0 0 0 8
70 59 41 80 56 66 106 42 0 0 0 0 0 6 233 494 655 469 493 522 549 638 749 878 991 1080 1110 1165 1170 1023 372 12 6 3 2 0 0 0 0 0 0 0 0 0 0 0 0 10 9

GFSSGP_con_sbcape_057.txt.gz
CAPE
0 0 0 0 0 0 0 43 44 29 79 122 300 107 146 58 555 492 730 1702 1638 1239 914 1216 1172 1290 1212 1032 787 626 583 555 521 453 397 388 419 488 561 752 927 849 626 34 0 0 0 0 0
0 0 0 0 0 19 57 20 15 39 241 292 839 725 853 698 1167 1379 1225 1825 1839 1429 910 1127 972 1019 990 806 663 611 543 492 461 431 446 511 587 782 781 838 887 924 647 1 7 0 0 0 0
0 0 0 0 0 14 32 17 36 240 578 469 602 890 1144 1224 1350 1232 1326 1467 1617 1416 748 1051 740 710 726 608 570 490 525 430 397 459 600 651 1159 1200 1227 920 892 922 591 66 17 0 0 0 0
0 0 0 0 0 47 38 23 40 414 652 776 641 371 1402 1585 1588 1586 1429 1700 1755 1400 718 459 393 444 538 563 522 522 441 354 371 476 590 814 1025 1165 1141 943 858 881 486 37 0 0 0 0 0
0 0 0 18 18 44 0 0 47 410 573 822 642 502 1234 1774 1640 1613 1915 1650 1870 1142 794 675 167 345 550 601 608 487 380 370 459 513 495 528 664 917 1128 987 870 590 231 29 0 0 0 0 0
0 0 1 36 9 10 17 33 184 704 118 825 661 794 1910 1920 1254 1004 1759 1532 731 301 215 218 196 246 335 484 428 351 371 421 495 441 405 374 351 545 739 730 352 256 200 87 0 0 0 0 0
0 6 20 29 31 16 36 484 593 521 252 497 684 752 1760 1346 543 445 935 640 347 344 122 92 102 226 173 136 145 185 340 394 438 369 323 257 203 220 294 300 303 254 173 63 3 0 0 0 0
0 0 17 21 18 30 146 362 816 903 714 1065 1004 1117 1243 934 299 110 126 35 125 162 21 67 45 104 107 150 122 197 236 269 271 235 203 220 212 200 183 160 222 255 160 41 0 0 0 0 0
0 0 31 28 20 47 70 185 665 1226 992 939 1618 1753 1273 879 428 159 37 17 2 4 23 87 61 42 128 154 187 169 318 333 205 191 169 91 73 42 45 131 128 113 78 23 0 0 0 0 0
0 36 32 5 24 34 4 9 231 1118 1155 1235 1650 902 616 726 912 642 137 13 6 5 4 2 15 18 44 11 54 103 206 269 152 135 200 98 115 116 83 114 138 64 15 1 0 0 0 0 0
5 5 18 22 9 0 8 24 304 955 692 103 1428 894 587 423 277 271 10 7 10 7 3 0 0 0 12 11 29 66 118 203 134 238 216 287 260 227 123 31 2 0 0 0 0 0 0 0 0
0 8 13 22 0 17 136 321 745 801 1041 1035 1576 935 618 469 214 81 10 8 8 7 6 3 16 16 1 0 0 32 127 202 208 229 325 366 251 303 185 37 2 0 0 0 0 0 0 0 0
0 3 13 66 14 65 355 735 732 878 1240 1530 1146 969 959 777 571 44 8 7 8 7 16 9 4 14 8 0 12 12 70 60 54 166 285 263 204 325 221 184 24 9 0 0 0 0 0 0 0
14 0 69 109 43 91 383 591 582 1030 1622 1319 1111 968 617 620 272 7 12 8 14 14 21 20 10 28 33 33 68 68 226 213 195 234 301 430 407 390 245 166 38 2 0 0 0 0 0 0 0
0 1 95 202 141 230 329 107 76 1218 1460 1233 965 876 696 474 260 68 5 9 9 1 1 4 2 41 42 34 53 130 266 240 203 187 475 312 256 305 200 77 59 8 0 0 0 0 0 0 0
0 28 80 0 92 133 117 32 1 1031 1072 910 649 283 794 487 214 81 27 17 8 5 2 8 6 16 37 25 45 179 238 219 62 181 271 447 213 304 146 106 48 10 3 0 0 0 0 0 0
17 19 43 95 277 110 72 53 306 769 678 692 733 503 611 816 360 142 121 56 23 16 4 4 7 51 71 152 148 216 288 152 160 149 366 551 422 204 167 88 92 95 8 0 0 0 2 0 0
26 40 66 110 19 52 103 169 71 674 674 718 859 848 700 857 602 232 137 75 59 0 0 6 17 64 204 200 223 99 102 223 106 64 341 536 591 692 298 186 216 80 0 0 0 0 0 0 0
0 22 41 50 38 125 71 53 69 431 696 650 930 821 887 1047 690 374 158 99 83 52 42 23 41 231 70 102 107 89 13 45 58 162 433 700 529 609 755 537 423 52 0 0 0 0 0 0 0
0 42 50 76 41 21 30 84 14 216 712 691 848 1070 592 888 768 492 328 235 191 112 26 3 4 19 76 46 38 58 75 8 119 245 506 583 490 484 525 624 433 62 0 0 0 0 0 0 0
4 48 63 56 29 24 5 33 3 48 529 656 721 996 733 812 740 516 368 332 283 224 134 48 158 182 207 249 191 133 77 68 70 196 393 475 255 23 17 57 159 44 22 0 0 0 0 0 0
35 43 20 25 36 69 27 100 77 51 190 582 703 747 812 631 894 732 573 540 377 283 287 270 280 313 384 492 406 334 135 63 64 228 306 392 12 0 0 0 3 171 86 1 0 0 0 0 10
19 9 21 29 66 110 108 56 77 22 14 99 392 627 768 607 837 905 712 658 611 482 546 514 515 593 630 688 572 517 366 171 154 266 394 361 116 11 0 0 2 99 5 0 0 0 2 0 0
5 3 22 75 100 103 113 94 16 36 10 22 45 269 621 828 553 859 1012 858 759 755 908 955 572 542 553 646 856 968 870 502 267 324 751 457 211 106 63 24 0 0 0 0 0 13 2 0 0
0 27 103 119 147 139 60 81 55 30 38 11 37 79 205 599 884 646 868 1180 1107 1046 1071 1195 777 728 719 963 960 1035 1083 1126 867 708 1000 581 417 194 37 9 0 0 0 0 7 0 0 0 0
14 44 124 102 211 213 93 27 90 13 0 0 0 108 192 239 631 972 836 993 1294 1635 1781 1376 1277 1208 970 991 1149 1218 1294 1329 1406 1025 1060 961 665 241 0 0 0 0 0 0 0 0 0 0 0
23 68 86 107 175 169 184 106 93 1 3 0 14 107 209 188 273 648 988 1004 1246 1550 2127 2365 1876 1640 1441 1382 1311 1220 1541 1813 1490 1370 1128 795 606 26 2 1 1 0 0 0 0 0 0 0 0
10 67 89 116 92 153 168 167 102 1 0 0 0 9 212 210 188 395 685 1091 1249 1523 2098 2093 2137 1881 1739 1530 1512 1500 1675 1276 1085 901 532 277 91 1 2 0 0 0 0 0 0 0 0 0 0
8 53 65 112 134 149 237 181 64 6 0 0 0 1 17 270 425 359 477 696 1124 1416 1777 2068 2053 1993 1813 1650 1709 1338 947 887 810 521 269 149 1 1 1 0 0 0 0 0 0 0 0 0 0
20 43 61 134 177 204 192 304 50 35 4 0 0 0 93 255 405 588 540 498 748 1168 1514 1676 1789 1841 1807 1773 1719 1391 1007 414 256 85 4 0 0 0 0 0 0 0 0 0 0 0 0 0 0

GFSSGP_con_sbcape_060.txt.gz
CAPE
0 0 0 0 0 0 0 0 0 0 146 247 357 238 185 102 211 393 160 0 1 247 1434 1678 1465 1483 1422 1216 979 857 810 766 748 647 662 709 789 1050 1039 836 450 334 122 2 0 0 0 0 0
0 0 0 0 0 0 0 0 2 46 312 289 61 210 5 0 838 1101 592 90 0 956 1324 1714 1530 1460 1350 1083 945 831 735 694 634 597 602 668 795 1033 1074 830 409 332 191 1 0 0 0 0 0
0 0 0 0 0 0 0 0 0 3 193 351 337 93 318 703 853 1164 1257 1274 1584 1244 1237 1610 1380 1218 1118 929 837 740 709 567 531 567 738 821 945 1145 1122 833 376 362 173 13 0 0 0 0 0
0 0 0 0 0 0 1 4 0 0 100 349 225 443 34 4 1117 1517 1409 1276 1677 1128 1343 803 807 847 911 905 835 737 499 470 506 602 1031 1246 1202 1182 1067 775 408 378 141 0 0 0 0 0 0
0 0 0 0 0 0 5 0 0 0 252 223 142 14 24 0 1224 1066 1580 1185 1355 560 700 550 506 626 813 884 864 612 510 517 587 919 1194 1272 1352 1113 946 730 319 237 121 0 0 0 0 0 0
0 0 0 0 0 2 1 0 0 18 123 54 30 0 5 734 536 809 599 811 1188 592 337 267 286 355 516 619 572 462 480 573 619 740 969 1259 1170 1021 907 384 230 171 84 6 0 0 0 0 0
0 0 0 0 3 2 4 0 37 271 35 77 0 3 614 526 221 311 155 454 653 174 9 5 7 32 65 119 209 340 428 468 450 398 506 641 680 572 378 271 204 135 74 19 1 0 0 0 0
0 0 0 0 5 0 8 1 11 42 5 0 22 390 78 194 227 156 26 277 381 196 48 10 0 15 3 1 98 184 213 254 275 210 178 204 249 293 270 209 173 106 55 2 0 0 0 0 0
0 0 0 15 9 5 0 0 0 0 236 218 788 1042 861 629 380 348 76 39 152 161 57 40 10 9 8 10 61 129 242 250 243 196 130 100 101 77 77 177 154 113 58 5 0 0 0 0 0
0 0 0 0 0 0 0 0 0 51 175 0 290 474 577 808 711 361 154 2 2 1 8 26 17 3 5 0 0 1 99 109 201 97 28 3 29 30 83 118 103 85 35 0 0 0 0 0 0
0 0 0 0 0 0 0 0 0 5 0 0 38 578 482 410 339 98 13 9 5 2 0 0 2 0 0 11 29 38 58 81 124 238 163 115 57 59 92 23 10 1 0 0 0 0 0 0 0
0 0 0 0 0 0 0 4 175 126 2 0 56 640 404 393 268 6 5 4 3 2 5 2 3 1 1 0 1 7 30 95 142 223 251 248 191 103 46 33 4 0 0 0 0 0 0 0 0
0 0 0 0 6 0 0 19 158 20 51 237 772 725 612 489 46 3 6 6 4 4 8 8 1 0 0 0 2 0 7 112 163 202 263 278 226 165 76 41 4 0 0 0 0 0 0 0 0
0 0 0 18 30 41 5 86 15 1 16 921 828 725 549 173 0 5 5 5 6 6 3 4 3 0 0 0 0 0 19 36 89 253 250 249 217 355 121 172 59 19 0 0 0 0 0 0 0
0 0 0 0 0 1 129 69 7 0 0 396 703 591 324 161 0 3 7 4 3 4 4 8 7 0 0 0 0 0 10 66 169 273 293 253 283 341 220 189 195 52 0 0 0 0 0 0 0
0 0 1 5 0 2 88 62 13 0 0 312 413 403 352 74 26 0 2 4 6 1 0 1 3 1 0 0 0 8 34 135 147 231 243 227 328 309 280 136 150 44 6 0 0 0 0 0 0
0 0 9 24 3 41 82 34 0 0 5 291 110 78 560 217 91 17 0 1 1 0 2 11 14 6 0 0 0 1 77 99 82 43 229 304 306 295 220 208 95 122 2 0 0 0 0 0 0
1 0 19 12 39 40 30 21 21 143 131 498 189 10 594 318 98 66 9 0 0 0 1 6 5 0 0 0 0 38 74 79 100 91 304 413 368 179 243 170 165 132 14 0 0 0 0 0 0
2 0 0 14 13 9 52 21 34 72 45 302 531 172 380 809 271 96 44 5 0 0 1 1 0 2 0 0 0 18 62 111 102 62 167 427 393 417 333 197 204 140 32 0 0 0 0 0 0
0 0 0 21 15 10 6 1 14 111 153 307 444 619 528 638 494 145 59 44 0 0 0 0 0 0 3 10 4 43 1 18 88 43 141 445 552 418 351 344 300 164 1 0 0 0 0 0 0
0 0 0 6 0 2 5 0 2 1 94 165 565 898 400 817 581 272 111 60 0 0 0 0 0 0 0 72 35 17 0 0 0 37 68 385 372 278 291 425 282 91 25 0 0 0 0 0 0
15 9 0 0 20 20 3 7 23 7 23 163 343 867 558 536 746 372 201 142 137 34 11 0 0 7 5 17 34 7 21 11 1 34 77 346 306 113 23 6 2 15 0 0 0 0 0 0 0
0 10 3 4 0 21 19 2 6 18 27 98 341 391 812 529 750 640 369 234 245 205 94 0 0 7 80 74 235 144 151 38 44 69 154 343 102 18 3 1 0 0 0 0 0 0 0 0 0
0 9 0 0 0 17 11 16 53 29 27 59 160 226 648 620 905 788 605 492 339 261 303 197 238 241 236 186 252 579 546 351 113 139 178 334 128 40 6 2 0 2 0 0 0 0 0 0 0
0 5 22 60 79 94 16 42 166 3 0 101 57 142 441 668 601 865 776 629 622 438 353 414 383 422 435 578 754 687 637 865 294 399 528 319 231 68 36 1 0 0 0 0 0 0 0 0 0
0 0 56 16 33 126 79 62 35 22 4 9 0 3 212 451 700 597 810 751 660 729 620 505 502 472 526 567 710 984 768 704 700 531 528 452 298 137 37 14 0 0 0 0 0 0 0 0 0
0 36 16 59 23 74 138 60 86 11 0 0 0 32 169 194 461 825 540 1049 983 906 963 923 816 649 633 628 698 734 643 656 827 631 829 615 381 40 0 0 0 0 0 0 0 0 0 0 0
0 1 65 67 47 46 67 31 17 0 0 0 0 52 236 160 242 326 828 817 1226 1258 1314 1272 1133 1086 1076 1161 948 833 718 808 672 1019 847 247 14 0 0 0 0 0 0 0 0 0 0 0 0
0 0 48 68 82 139 145 62 0 1 0 0 0 8 57 218 384 321 515 958 1070 1423 1587 1789 1817 1696 1710 1532 1165 954 1044 1131 567 491 226 122 0 0 0 0 0 0 0 0 0 0 0 0 0
0 16 22 124 40 154 213 103 11 28 6 1 7 0 91 170 306 467 468 596 1078 1294 1463 1989 2054 1996 1805 1736 1418 1090 683 556 192 48 3 0 0 0 0 0 0 0 0 0 0 0 0 0 0

GFSSGP_con_sbcape_063.txt.gz
CAPE
0 0 0 0 0 0 0 0 0 56 161 222 340 171 199 237 629 556 158 49 32 14 0 691 662 1578 1555 1391 1151 1018 1004 1021 940 870 807 1066 1138 934 597 369 193 115 2 0 0 0 0 0 0
0 0 0 0 0 0 0 0 0 149 288 301 281 247 140 908 295 371 192 59 22 20 0 0 742 1053 1416 1287 1147 1048 1082 994 973 889 1010 1230 1050 732 471 271 158 165 5 0 0 0 0 0 0
0 0 0 0 0 0 0 0 0 27 329 272 182 84 708 554 276 260 1433 309 8 0 403 716 728 1108 1305 1191 1080 980 939 843 852 872 1210 1282 1121 745 500 270 214 225 0 0 0 0 0 0 0
0 0 0 0 0 0 0 0 0 0 208 167 413 359 316 0 1148 1222 1571 1508 481 261 1212 894 765 969 1146 1120 996 924 749 697 755 844 1221 1431 1310 795 509 306 284 193 0 0 0 0 0 0 0
0 0 0 0 0 0 0 0 34 198 333 152 320 321 52 669 536 758 923 1196 950 1100 700 626 680 786 972 1076 1021 780 741 765 796 940 1171 1367 1235 734 492 327 203 92 0 0 0 0 0 0 0
0 0 0 0 0 0 0 0 130 192 196 224 106 110 76 302 239 381 541 914 601 227 72 47 246 575 625 819 704 615 710 883 1110 1147 1211 1297 1065 636 431 261 112 60 0 0 0 0 0 0 0
0 0 0 0 0 0 8 10 85 121 31 19 4 7 0 0 273 222 280 699 266 12 7 3 3 4 17 12 121 261 515 627 908 1073 976 938 714 340 278 170 118 65 10 0 0 0 0 0 0
0 0 0 0 0 0 2 11 114 88 1 44 28 10 0 31 164 137 403 361 223 77 3 4 0 0 1 29 35 97 183 226 325 423 535 380 277 220 141 115 88 52 28 0 0 0 0 0 0
0 0 0 0 0 0 1 1 0 47 204 298 371 766 298 187 182 130 243 363 189 90 24 2 4 5 2 4 8 8 222 153 149 119 76 69 67 37 22 80 83 71 39 18 0 0 0 0 0
0 0 0 0 0 0 0 0 5 128 61 1 31 231 629 321 324 147 75 20 7 35 13 12 4 1 0 2 0 1 28 20 23 5 13 0 35 53 52 102 125 68 43 24 0 0 0 0 0
0 0 0 0 0 0 0 5 35 15 0 0 45 459 521 285 35 49 25 2 2 1 1 2 3 2 1 3 0 0 0 0 13 16 22 42 62 34 24 18 6 2 2 0 0 0 0 0 0
0 0 0 0 0 0 0 1 0 0 0 17 45 419 288 209 9 3 3 3 1 1 3 2 2 0 0 0 0 0 1 14 49 50 19 22 26 3 0 0 0 0 0 0 0 0 0 0 0
0 0 0 1 0 14 6 18 6 0 0 0 123 411 432 133 0 1 2 1 2 4 4 1 0 0 0 0 0 0 0 36 36 75 91 63 47 0 3 0 0 0 0 0 0 0 0 0 0
0 0 0 0 0 0 0 0 0 2 7 134 462 667 104 0 0 2 3 3 4 4 4 2 1 0 0 0 0 1 0 0 24 51 90 123 101 29 8 0 0 0 0 0 0 0 0 0 0
0 0 0 0 0 0 0 0 0 10 0 174 15 342 3 0 0 0 2 3 2 6 3 3 2 0 0 0 0 0 0 0 0 54 99 163 143 69 28 19 11 0 0 0 0 0 0 0 0
0 0 0 0 0 0 0 0 4 0 0 61 111 180 56 2 0 0 2 2 1 2 2 3 4 0 0 0 0 0 0 0 0 70 113 113 144 142 77 48 10 1 0 0 0 0 0 0 0
0 0 0 0 0 0 0 0 0 0 6 5 0 11 97 15 0 0 0 0 0 0 2 2 0 0 0 0 0 0 0 0 0 54 68 76 117 150 54 6 0 0 0 0 0 0 0 0 0
0 0 0 4 1 0 6 1 0 0 0 0 0 8 134 58 6 0 0 0 0 0 0 0 0 0 0 0 0 0 0 22 28 0 16 54 39 119 35 29 5 0 0 0 0 0 0 0 0
0 0 0 0 25 7 2 0 36 0 14 2 1 7 160 71 34 0 0 0 0 0 0 0 0 0 0 0 0 0 0 7 1 2 0 63 126 50 52 72 28 0 0 0 0 0 0 0 0
0 0 0 0 1 0 3 0 40 23 29 0 41 85 237 136 44 3 0 0 0 0 0 0 0 0 0 0 0 0 0 0 1 0 0 85 143 196 109 83 94 33 0 0 0 0 0 0 0
0 0 0 0 8 0 0 0 33 25 1 0 17 12 152 59 13 2 0 0 0 0 0 0 0 0 0 0 0 0 0 0 0 0 0 28 127 144 185 171 128 22 0 0 0 0 0 0 0
0 0 0 0 1 0 0 0 4 36 80 63 237 153 193 81 16 0 0 0 0 0 0 0 0 0 0 0 0 0 0 0 0 0 0 46 177 177 79 70 73 8 0 0 0 0 0 0 0
0 0 0 0 0 0 0 0 1 4 0 0 519 294 118 231 22 0 0 0 0 0 0 0 0 0 0 0 0 0 0 0 0 0 0 4 62 26 4 8 0 0 0 0 0 0 0 0 0
0 0 0 0 0 0 0 0 0 0 0 1 67 409 179 265 131 23 0 0 0 0 0 0 0 0 0 0 0 0 0 0 0 0 0 13 129 95 4 1 1 2 0 0 0 0 0 0 0
0 0 0 0 0 0 4 23 0 0 0 0 9 448 69 40 328 142 18 0 0 0 0 0 0 0 0 0 0 0 8 0 0 0 0 60 78 17 0 0 0 0 0 0 0 0 0 0 0
0 0 0 0 0 0 19 5 0 0 0 0 0 9 201 152 270 269 144 43 18 0 0 0 0 0 0 0 0 0 37 109 3 0 0 26 55 27 0 0 0 0 0 0 0 0 0 0 0
0 0 0 2 8 0 1 0 0 0 0 0 0 0 76 256 351 352 277 167 84 45 5 0 0 0 0 5 14 66 15 42 93 9 4 2 23 21 0 0 0 0 0 0 0 0 0 0 0
0 0 4 6 18 7 0 10 2 0 0 0 0 0 4 1 177 429 366 273 212 124 38 2 7 8 10 30 38 61 200 141 134 71 76 88 12 15 0 0 0 0 0 0 0 0 0 0 0
0 0 0 1 3 2 0 0 0 0 0 0 0 0 38 78 15 16 203 349 235 214 160 101 54 86 109 86 99 121 149 152 28 159 80 4 0 0 0 0 0 0 0 0 0 0 0 0 0
0 0 0 0 0 8 0 0 0 0 0 0 0 0 0 51 62 44 0 119 401 269 283 329 235 226 263 236 176 207 126 85 3 0 27 0 0 1 0 0 0 0 0 0 0 0 0 0 0

GFSSGP_con_sbcape_069.txt.gz
CAPE
0 0 0 0 0 0 0 0 0 0 0 14 30 45 246 302 478 428 361 271 372 1717 1512 1667 1628 1679 1554 1427 1441 1442 1529 1663 1495 1319 1092 914 776 592 437 285 200 335 300 60 26 17 31 15 4
0 0 0 0 0 0 0 0 0 0 0 9 41 140 476 426 367 528 607 521 302 584 1537 1684 1679 1665 1486 1270 1264 1251 1465 1673 1536 1326 1118 939 775 564 333 172 172 341 315 35 15 11 11 15 79
0 0 0 0 0 0 0 0 0 0 0 23 18 145 405 489 576 535 492 951 778 333 147 1499 1637 1432 1248 895 831 636 851 1526 1471 1242 1112 866 730 579 343 114 114 312 244 12 1 0 0 1 72
0 0 0 0 0 0 0 0 0 0 8 0 90 201 75 481 1130 1058 848 843 922 468 81 110 1239 923 804 682 695 907 830 1060 1387 1138 1021 882 787 615 329 93 91 277 161 1 0 0 0 0 0
0 0 0 0 0 0 0 0 0 6 9 29 74 58 183 674 533 542 541 815 1067 369 451 361 105 0 0 3 372 940 540 960 1296 1074 836 824 749 534 239 49 20 27 4 0 0 1 0 0 0
0 0 0 0 0 0 0 0 36 31 29 32 44 39 58 181 131 377 513 1026 581 278 342 25 0 0 8 4 4 332 235 853 1046 868 767 756 577 314 111 4 0 0 0 0 0 0 0 0 0
0 0 0 0 0 0 0 10 33 13 0 2 16 12 0 1 164 242 358 232 109 25 5 1 0 0 2 0 3 263 35 400 756 561 549 485 282 80 3 0 0 0 0 0 0 0 0 0 0
0 0 0 0 0 0 0 22 11 7 6 21 10 76 10 0 95 323 155 71 36 43 7 7 6 0 0 0 0 25 49 482 490 449 350 200 105 10 0 0 0 0 0 0 0 0 0 0 0
0 0 0 0 0 0 0 0 24 17 52 57 135 295 124 83 129 260 233 128 43 31 33 4 4 2 0 0 3 0 1 386 368 325 187 62 0 0 0 0 0 0 0 0 0 0 5 4 0
0 0 0 0 0 0 0 0 19 1 0 0 0 24 92 123 53 26 67 77 42 2 2 3 3 3 1 10 2 0 0 49 162 134 69 16 0 0 0 0 0 0 0 0 0 0 0 0 0
0 0 0 0 0 0 0 0 1 0 0 0 0 4 55 100 29 0 0 0 0 4 3 2 3 2 5 1 2 14 15 3 41 66 40 11 0 0 0 0 0 0 0 0 0 0 0 0 0
0 0 0 0 0 0 0 0 0 0 0 0 0 46 20 32 0 1 0 1 1 2 2 1 4 6 2 0 0 0 42 31 34 36 26 5 0 0 0 0 0 0 0 0 0 0 0 0 0
0 0 0 0 0 0 0 0 0 0 0 0 0 99 18 0 0 0 0 0 1 1 2 1 1 1 0 3 0 4 0 0 1 22 28 5 1 0 0 0 0 0 0 0 0 0 0 0 0
0 0 0 0 0 0 0 0 0 0 0 0 73 56 2 0 0 0 0 1 2 1 1 1 1 0 0 0 0 0 0 0 0 3 0 0 0 0 0 0 0 0 0 0 0 0 0 0 0
0 0 0 0 0 0 0 0 0 0 0 0 138 14 0 0 0 0 0 1 3 1 2 2 2 2 0 0 0 0 0 0 0 0 0 0 0 0 0 0 0 0 0 0 0 0 0 0 0
0 0 0 0 0 0 0 0 0 0 0 0 68 58 0 0 0 0 0 2 1 1 2 4 10 3 0 0 0 0 0 0 0 0 2 0 0 0 0 0 0 0 0 0 0 0 0 0 0
0 0 0 0 0 0 0 0 0 0 2 16 0 34 0 0 0 0 0 2 2 1 5 4 3 2 0 0 0 0 0 0 13 22 9 8 0 0 0 0 0 0 0 0 0 0 0 0 0
0 0 0 0 0 0 0 0 0 0 0 0 0 0 0 0 0 0 0 1 2 0 3 2 2 1 0 0 0 0 0 1 22 51 40 23 8 4 2 0 0 0 0 0 0 0 0 0 0
0 0 0 0 0 0 0 0 0 0 0 0 0 0 0 0 0 0 0 0 2 1 2 2 1 0 0 0 0 0 0 0 5 9 37 38 50 55 11 18 1 0 0 0 0 0 0 0 0
0 0 0 0 0 0 0 0 0 0 0 0 0 0 0 0 0 0 0 0 0 6 2 1 0 0 0 0 0 0 0 0 0 0 4 15 29 42 26 11 3 0 0 0 0 0 0 0 0
0 0 0 0 0 0 0 0 0 0 0 0 0 0 0 0 0 0 1 0 0 0 1 0 0 0 0 0 0 0 0 0 0 0 0 1 13 37 27 23 10 1 0 0 0 0 0 0 0
0 0 0 0 0 0 0 0 0 0 0 0 0 0 0 0 0 0 0 0 0 0 0 0 0 0 0 0 0 0 0 0 0 0 0 0 0 1 28 18 19 11 0 0 0 0 0 0 0
0 0 0 0 0 0 0 0 0 0 0 0 0 0 0 0 0 0 0 0 0 0 0 0 0 0 0 0 0 0 0 0 0 0 0 0 0 0 6 10 0 1 0 0 0 0 0 0 0
0 0 0 0 0 0 0 0 0 0 0 0 0 0 0 0 0 0 0 0 0 0 0 0 0 0 0 0 0 0 0 0 0 0 0 0 0 0 0 0 1 0 0 0 0 0 0 0 0
0 0 0 0 0 0 0 0 0 0 0 0 0 0 0 1 0 0 0 0 0 0 0 0 0 0 0 0 0 0 0 0 0 0 0 0 0 0 0 1 10 0 1 0 0 0 0 0 0
0 0 0 0 0 0 0 0 0 0 0 0 0 0 0 0 0 0 0 0 0 0 0 0 0 0 0 0 0 0 0 0 0 0 0 0 0 0 0 13 4 0 0 0 0 0 0 0 0
0 0 0 0 0 0 0 0 0 0 0 0 0 0 0 0 0 0 0 0 0 0 0 0 0 0 0 0 0 0 0 0 0 0 0 0 0 0 0 0 0 0 0 0 0 0 0 0 0
0 0 0 0 0 0 0 0 0 0 0 0 0 37 0 0 19 10 0 0 0 0 0 0 0 0 0 0 0 0 0 0 0 0 0 0 0 0 0 0 0 0 0 0 0 0 0 0 0
0 0 0 0 0 0 0 0 0 0 0 0 0 0 3 0 45 70 28 0 0 0 0 0 0 0 0 0 0 0 0 0 0 0 0 0 0 0 0 0 0 0 0 2 0 0 0 0 0
0 0 0 0 0 0 0 0 0 0 0 0 0 0 0 0 0 3 68 34 0 0 0 0 0 0 0 0 0 0 0 0 0 0 0 0 11 2 0 2 0 0 0 0 0 0 0 0 0

GFSSGP_con_sbcape_072.txt.gz
CAPE
0 0 0 0 0 0 0 0 0 0 0 0 6 6 38 122 241 136 259 335 410 1648 1591 1644 1617 1681 1749 1646 1566 1524 1546 1604 1561 1512 1322 1209 1117 921 689 591 500 466 380 38 25 23 20 20 14
0 0 0 0 0 0 0 0 0 0 0 0 30 48 215 291 170 387 625 569 513 951 1283 1443 1590 1676 1713 1657 1689 1726 1706 1599 1590 1428 1254 1116 995 781 619 562 445 431 396 79 22 39 15 5 3
0 0 0 0 0 0 0 0 0 0 0 0 0 30 201 299 423 422 628 810 889 595 541 1250 1552 1279 1399 1564 1659 1721 1608 1479 1393 1236 1247 1070 836 636 627 500 411 534 567 309 197 103 25 3 3
0 0 0 0 0 0 0 0 0 0 0 0 0 10 0 278 944 679 589 636 789 874 399 399 378 172 618 764 402 810 1354 1301 1187 1144 1102 884 667 554 600 480 473 454 276 21 29 28 133 2 1
0 0 0 0 0 0 0 0 0 0 0 0 13 11 31 476 321 291 473 669 951 940 370 317 95 3 20 58 51 27 724 1006 1093 1077 883 751 679 489 398 471 365 141 3 1 29 17 3 0 0
0 0 0 0 0 0 0 0 0 3 0 2 2 5 3 57 46 294 541 920 778 717 415 59 93 13 0 2 0 39 336 751 907 873 788 751 520 305 367 365 79 0 36 146 28 5 0 0 0
0 0 0 0 0 0 0 0 0 0 0 0 0 11 0 0 97 343 476 311 280 173 4 0 5 0 0 0 0 44 326 502 589 504 661 452 270 214 152 32 0 0 60 99 2 0 0 0 0
0 0 0 0 0 0 0 0 0 0 0 2 0 2 4 0 145 312 223 127 36 6 2 3 5 0 0 0 0 13 161 393 281 337 418 255 142 120 0 0 0 0 0 25 0 0 0 0 0
0 0 0 0 0 0 0 0 0 0 2 11 28 199 35 60 176 290 132 80 49 7 3 1 1 0 0 0 0 0 157 212 199 285 257 161 43 1 0 0 0 0 0 12 12 0 0 0 0
0 0 0 0 0 0 0 0 0 0 0 0 0 0 71 167 170 236 188 106 34 14 2 1 1 1 0 0 0 7 59 45 79 102 125 94 0 0 0 0 0 0 0 15 11 0 0 0 0
0 0 0 0 0 0 0 0 0 0 0 0 0 0 40 114 63 25 74 104 1 1 2 2 1 1 5 0 0 0 1 72 77 79 105 2 2 0 0 0 0 0 0 0 2 0 0 0 0
0 0 0 0 0 0 0 0 0 0 0 0 0 2 10 32 9 0 1 0 0 1 1 2 2 1 2 4 0 0 0 23 29 36 35 0 0 0 0 0 0 0 0 0 0 0 0 0 0
0 0 0 0 0 0 0 0 0 0 0 0 0 58 12 0 0 0 0 0 0 1 2 3 2 7 0 2 0 0 7 8 41 15 11 0 0 0 0 0 0 0 0 0 0 0 0 0 0
0 0 0 0 0 0 0 0 0 0 0 0 1 31 19 0 0 0 2 1 1 4 5 2 4 1 0 0 0 0 2 14 38 34 1 0 0 0 0 0 0 0 0 0 0 0 0 0 0
0 0 0 0 0 0 0 0 0 0 0 0 82 30 5 0 0 0 0 0 0 0 1 1 3 1 1 0 2 0 0 8 13 19 12 0 0 0 0 0 0 0 0 0 0 0 0 0 0
0 0 0 0 0 0 0 0 0 0 0 0 3 124 8 0 0 0 0 0 0 0 2 1 6 2 0 0 0 0 0 0 0 3 11 0 0 0 0 0 0 0 0 0 0 0 0 0 0
0 0 0 0 0 0 0 0 0 0 0 0 0 82 34 4 0 0 0 0 1 1 4 6 4 3 1 0 0 0 0 0 0 0 3 0 0 0 0 0 0 0 0 0 0 0 0 0 0
0 0 0 0 0 0 0 0 0 0 0 0 0 0 7 0 0 0 0 0 0 0 4 4 4 2 1 0 0 0 0 0 0 0 0 0 0 0 0 0 0 0 0 0 0 0 0 0 0
0 0 0 0 0 0 0 0 0 0 0 0 0 0 0 0 0 0 0 2 0 0 2 3 2 1 0 0 0 0 0 0 0 0 2 0 1 0 0 0 0 0 0 0 0 0 0 0 0
0 0 0 0 0 0 0 0 0 0 0 0 0 0 0 0 0 0 1 0 4 0 1 1 1 0 0 0 0 0 0 0 0 0 6 29 26 10 6 14 9 2 0 0 0 0 0 0 0
0 0 0 0 0 0 0 0 0 0 0 0 0 0 0 0 0 0 0 0 1 0 1 0 0 0 0 0 0 0 0 0 0 0 0 11 29 41 65 18 11 4 0 0 0 0 0 0 0
0 0 0 0 0 0 0 0 0 0 0 0 0 0 0 0 0 0 0 0 0 1 0 0 0 0 0 0 0 0 0 0 0 0 0 0 3 7 29 48 10 3 0 0 0 0 0 0 0
0 0 0 0 0 0 0 0 0 0 0 0 0 0 0 0 0 0 0 0 0 0 0 0 0 0 0 0 0 0 0 0 0 0 0 0 0 0 0 9 14 14 3 0 0 0 0 0 0
0 0 0 0 0 0 0 0 0 0 0 0 0 0 0 0 0 0 0 0 0 0 0 0 0 0 0 0 0 0 0 0 0 0 0 0 0 0 0 0 6 12 5 9 0 0 0 0 0
0 0 0 0 0 0 0 0 0 0 0 0 0 0 0 0 0 0 0 0 0 0 0 0 0 0 0 0 0 0 0 0 0 0 0 0 0 0 0 0 0 13 16 9 4 0 0 0 0
0 0 0 0 0 0 0 0 0 0 0 0 0 0 0 0 0 0 0 0 0 0 0 0 0 0 0 0 0 0 0 0 0 0 0 0 0 0 0 0 0 4 5 0 0 0 0 0 0
0 0 0 0 0 0 0 0 0 0 0 0 0 0 0 0 0 0 0 0 0 0 0 0 0 0 0 0 0 0 0 0 0 0 0 0 0 0 0 0 0 0 0 0 0 0 0 0 0
0 0 0 0 0 0 0 0 0 0 0 0 0 0 0 0 0 0 0 0 0 0 0 0 0 0 0 0 0 0 0 0 0 0 0 0 0 0 0 0 0 0 0 0 0 0 0 0 0
0 0 0 0 0 0 0 0 0 0 0 0 0 0 0 0 0 0 0 0 0 0 0 0 0 0 0 0 0 0 0 0 0 0 0 0 0 0 0 0 0 0 0 0 0 0 0 0 0
0 0 0 0 0 0 0 0 0 0 0 0 0 0 0 0 0 0 0 0 0 0 0 0 0 0 0 0 0 0 0 0 0 0 0 0 0 0 0 0 0 0 0 0 0 0 0 0 0

GFSSGP_con_sbcape_075.txt.gz
CAPE
0 0 0 0 0 0 0 0 0 0 0 0 5 5 14 64 139 140 328 428 631 1833 1749 1556 1687 1762 1747 1848 1989 1921 1910 1852 1706 1653 1584 1491 1420 1262 1062 879 796 780 645 170 160 95 100 21 19
0 0 0 0 0 0 0 0 0 0 0 3 65 63 183 178 198 383 795 721 605 1727 1866 1602 1672 1775 1753 1755 1888 2012 2027 1921 1773 1736 1670 1516 1257 1062 974 788 647 583 434 12 13 24 39 23 28
0 0 0 0 0 0 0 0 0 0 0 0 0 49 204 216 312 383 655 580 783 599 1477 1427 1628 1462 1301 1595 1835 1945 1927 1779 1673 1591 1644 1455 1146 1030 877 652 597 598 484 129 22 36 33 19 26
0 0 0 0 0 0 0 0 0 0 0 0 9 38 38 165 687 712 564 643 877 700 906 979 995 930 696 788 1217 1320 1753 1577 1473 1432 1477 1337 1119 1012 794 590 508 470 384 272 43 18 7 6 3
0 0 0 0 0 0 0 0 0 0 0 0 17 9 43 353 429 187 436 640 896 850 764 542 742 680 640 377 304 243 1018 959 1153 1340 1214 1057 1038 861 663 579 512 588 712 513 323 9 1 0 0
0 0 0 0 0 0 0 0 0 0 0 0 0 0 23 107 84 270 662 706 883 802 566 467 602 706 547 289 68 54 385 316 835 867 980 846 794 559 535 447 261 154 287 350 341 7 1 1 0
0 0 0 0 0 0 0 0 0 0 0 0 0 9 2 22 73 504 248 251 479 359 343 266 276 399 262 142 106 98 450 566 589 683 707 493 429 309 366 125 33 120 326 263 126 3 0 0 0
0 0 0 0 0 0 0 0 0 0 0 0 0 16 17 0 165 328 137 144 113 23 26 81 109 41 5 14 0 52 277 432 442 507 386 176 217 252 89 0 135 330 239 125 3 0 0 0 0
0 0 0 0 0 0 0 0 0 0 0 0 4 35 21 81 266 240 144 101 45 59 33 12 11 4 0 0 0 36 307 320 283 271 180 56 91 76 17 0 82 247 149 40 0 0 0 0 0
0 0 0 0 0 0 0 0 0 0 0 4 7 27 33 79 325 268 139 157 103 20 19 26 44 3 3 0 3 6 10 266 191 121 80 13 12 11 0 14 24 156 110 26 4 0 0 0 0
0 0 0 0 0 0 0 0 0 0 0 0 0 0 3 79 250 246 177 89 77 44 7 6 1 1 0 0 0 4 36 88 17 32 42 0 9 14 4 5 0 100 102 0 2 3 0 0 0
0 0 0 0 0 0 0 0 0 0 0 0 0 0 1 128 54 25 23 42 51 4 2 2 1 3 5 0 0 4 2 3 13 30 10 13 0 0 0 0 0 0 54 78 18 1 0 0 0
0 0 0 0 0 0 0 0 0 0 0 0 0 0 1 59 0 0 0 0 2 15 7 4 3 4 1 3 0 11 12 2 0 36 0 4 0 0 0 0 0 0 0 0 0 0 0 0 0
0 0 0 0 0 0 0 0 0 0 0 0 9 59 2 10 16 1 0 0 3 22 11 8 6 6 0 1 0 6 12 5 2 4 5 0 0 0 0 0 0 0 0 0 0 0 0 0 0
0 0 0 0 0 0 0 0 0 0 0 0 29 69 77 0 6 0 0 0 0 5 20 22 20 4 1 0 1 3 11 14 12 4 32 2 0 0 0 0 0 0 0 0 0 0 0 0 0
0 0 0 0 0 0 0 0 0 0 0 0 93 103 118 3 7 2 1 0 2 2 20 20 9 3 1 6 20 3 2 39 2 19 10 3 0 0 0 0 0 0 0 0 0 0 0 0 0
0 0 0 0 0 0 0 0 0 0 0 0 12 141 168 65 4 2 1 2 0 0 13 5 5 3 3 6 37 3 1 1 0 8 2 1 0 0 0 0 0 0 0 0 0 0 0 0 0
0 0 0 0 0 0 0 0 0 0 0 0 0 24 175 122 0 0 2 2 0 8 9 7 6 4 3 9 4 1 1 3 1 10 1 0 0 0 0 0 0 0 0 0 0 0 0 0 0
0 0 0 0 0 0 0 0 0 0 0 0 0 18 71 95 25 2 1 5 4 9 15 10 6 3 1 2 13 2 2 2 2 16 4 1 0 0 0 0 0 7 17 0 0 0 0 0 0
0 0 0 0 0 0 0 0 0 0 0 0 0 0 7 1 3 3 3 5 7 5 7 10 4 3 3 0 14 5 1 2 5 9 7 4 0 0 0 11 34 12 54 7 0 0 0 0 0
0 0 0 0 0 0 0 0 0 0 0 0 0 0 0 0 1 1 5 0 7 1 2 1 3 3 2 0 0 1 1 1 1 1 10 5 1 0 6 34 77 74 59 59 16 4 7 2 0
0 0 0 0 0 0 0 0 0 0 0 0 0 0 0 0 0 1 0 1 1 5 0 11 5 3 3 0 0 1 0 0 0 0 0 2 6 19 39 52 59 125 103 112 84 15 19 6 7
0 0 0 0 0 0 0 0 0 0 0 0 0 0 0 0 0 0 1 1 0 1 3 3 4 1 1 4 3 0 1 0 2 0 0 21 18 7 36 68 148 172 144 187 113 36 14 33 8
0 0 0 0 0 0 0 0 0 0 0 0 0 0 0 0 0 0 0 1 1 1 6 2 5 6 0 0 2 0 0 0 0 0 0 0 3 7 49 68 126 191 254 253 236 129 39 28 0
0 0 0 0 0 0 0 0 0 0 0 0 0 0 0 0 0 0 0 1 2 0 0 0 5 4 2 0 2 0 0 0 0 0 2 4 10 3 17 23 41 77 113 157 173 199 65 48 40
0 0 0 0 0 0 0 0 0 0 0 0 0 0 0 0 0 0 0 0 0 2 1 0 0 4 4 0 0 0 0 0 0 0 0 0 0 1 1 19 22 30 50 85 133 151 138 106 43
0 0 0 0 0 0 0 0 0 0 0 0 0 0 0 0 0 0 0 0 0 0 1 3 4 1 2 1 0 0 0 0 0 0 0 0 0 0 0 0 3 5 18 47 83 99 102 76 14
0 0 0 0 0 0 0 0 0 0 0 0 0 0 0 0 0 0 0 0 0 0 0 1 0 0 0 0 0 0 0 0 0 0 0 0 0 0 0 0 0 0 3 40 71 70 67 9 1
0 0 0 0 0 0 0 0 0 0 0 0 0 0 0 0 0 0 0 0 0 0 0 0 0 0 0 0 0 0 0 0 0 0 0 0 0 0 0 0 0 0 0 2 12 25 23 3 2
0 0 0 0 0 0 0 0 0 0 0 0 0 0 0 0 0 0 5 0 0 0 0 0 0 0 0 0 0 0 0 0 0 0 0 0 0 0 0 0 0 0 0 0 5 0 0 0 0

GFSSGP_con_sbcape_078.txt.gz
CAPE
0 0 0 0 0 0 0 0 0 0 0 0 0 0 18 83 46 99 972 1052 1175 1785 1653 1509 1791 1823 1991 2231 2080 2020 2064 1978 1790 1621 1669 1716 1733 1754 1618 1314 1095 887 669 561 367 174 75 36 13
0 0 0 0 0 0 0 0 0 0 0 0 0 62 103 66 350 748 1181 1084 1172 1767 1999 1632 1674 1775 1977 2189 2201 2161 2225 2025 1813 1860 1859 1918 1830 1717 1596 1268 1032 910 710 381 231 103 34 17 8
0 0 0 0 0 0 0 0 0 0 0 0 8 65 154 109 548 857 1185 987 1357 1210 2304 1827 1708 1784 1856 1775 2057 2095 2079 1888 1818 1839 1911 1895 1764 1577 1356 963 717 667 710 294 154 80 24 6 0
0 0 0 0 0 0 0 0 0 0 0 0 14 43 153 404 826 958 1046 1019 1062 749 1771 1318 1603 1591 1624 1485 1628 910 1665 1798 1749 1817 1844 1798 1707 1494 1144 732 572 525 505 282 49 42 18 10 2
0 0 0 0 0 0 0 0 0 0 0 1 48 8 64 218 857 768 811 878 1119 1409 1318 1401 1220 1058 1000 1160 1190 883 970 1245 1457 1516 1656 1634 1590 1360 1041 711 474 400 352 223 30 22 11 2 0
0 0 0 0 0 0 0 0 0 0 0 23 15 15 43 199 515 652 782 892 1017 1352 1344 1571 1010 1067 911 784 585 535 1035 835 1261 846 1256 1493 1366 1127 929 634 528 597 296 164 47 13 5 0 0
0 0 0 0 0 0 0 0 0 0 0 3 14 8 18 85 192 555 309 392 724 943 1246 1248 1509 599 192 70 126 385 541 892 809 715 615 885 831 858 778 613 633 455 430 120 10 7 2 0 0
0 0 0 0 0 0 0 0 0 0 0 19 9 0 0 64 337 498 547 455 321 254 284 571 1028 699 594 358 0 35 494 347 427 472 502 422 462 546 404 285 480 463 325 100 3 2 1 0 0
0 0 0 0 0 0 0 0 0 0 0 10 29 24 152 199 468 533 469 168 113 12 38 62 34 327 338 171 110 24 167 313 286 313 252 222 444 231 201 181 325 240 142 64 3 3 1 0 0
0 0 0 0 0 0 0 0 0 0 0 4 24 68 245 365 469 447 475 136 207 44 18 6 14 50 75 22 73 193 240 422 325 338 200 190 136 108 223 341 214 123 20 0 1 0 0 0 0
0 0 0 0 0 0 0 0 0 0 0 0 0 0 226 318 351 459 457 493 237 315 12 21 33 50 7 17 32 75 285 256 216 146 1 133 102 214 287 390 285 106 0 0 0 0 0 0 0
0 0 0 0 0 0 0 0 0 0 0 0 0 0 81 179 301 401 412 446 381 511 365 145 5 14 8 0 2 40 204 218 238 18 2 4 58 151 246 296 163 67 1 0 0 0 0 0 0
0 0 0 0 0 0 0 0 0 0 0 0 0 1 53 123 268 293 305 252 287 319 456 270 125 61 52 38 22 13 5 84 2 2 0 2 34 54 65 181 217 130 89 37 6 7 0 0 0
0 0 0 0 0 0 0 0 0 0 0 0 0 13 68 122 315 284 264 75 0 209 55 102 25 14 17 14 33 16 4 5 2 1 0 5 26 49 33 18 26 114 190 89 42 24 0 0 0
0 0 0 0 0 0 0 0 0 0 0 0 0 31 118 201 345 321 221 143 26 14 23 26 51 25 6 13 10 10 25 12 3 0 0 13 36 45 4 4 5 13 66 41 32 7 0 0 0
0 0 0 0 0 0 0 0 0 0 0 0 37 58 228 295 337 243 82 25 7 10 31 28 48 14 18 18 44 12 7 5 4 0 0 6 23 26 16 0 0 0 2 7 6 4 0 0 0
0 0 0 0 0 0 0 0 0 0 0 0 8 94 229 429 361 257 109 38 15 6 25 42 27 9 4 14 14 14 12 4 4 0 0 5 18 18 27 14 9 0 0 0 0 0 0 0 0
0 0 0 0 0 0 0 0 0 0 0 0 0 65 218 396 428 228 116 32 1 4 17 44 18 5 7 12 19 7 11 10 0 0 0 0 10 78 43 2 2 0 0 0 0 0 0 0 0
0 0 0 0 0 0 0 0 0 0 0 0 0 34 86 302 465 177 121 22 2 7 19 26 5 8 10 16 45 7 15 23 1 5 10 20 0 17 39 56 24 3 0 0 0 0 0 0 0
0 0 0 0 0 0 0 0 0 0 0 0 0 9 68 200 468 112 39 4 4 7 14 17 10 10 14 26 31 20 16 41 3 5 10 5 2 0 12 36 54 47 52 3 6 1 2 26 0
0 0 0 0 0 0 0 0 0 0 0 0 0 0 14 155 392 169 11 2 5 6 7 8 13 7 10 19 37 26 7 25 20 12 11 8 7 1 0 17 44 22 61 45 55 15 11 62 11
0 0 0 0 0 0 0 0 0 0 0 0 0 0 11 35 224 220 43 0 3 3 5 7 15 9 8 9 18 28 23 2 14 2 8 7 5 1 17 20 95 91 86 115 152 93 145 166 129
0 0 0 0 0 0 0 0 0 0 0 0 0 0 0 12 135 185 95 12 0 2 4 14 20 12 10 4 12 17 20 22 38 0 9 5 8 30 0 35 45 82 195 177 234 203 165 194 225
0 0 0 0 0 0 0 0 0 0 0 0 0 0 0 15 43 168 121 40 0 1 12 11 7 10 21 10 7 11 8 5 8 5 18 2 0 0 10 14 106 126 256 233 329 382 336 296 230
0 0 0 0 0 0 0 0 0 0 0 0 0 0 0 0 43 172 158 82 10 0 2 9 8 7 11 15 12 18 6 1 3 4 8 0 0 0 0 5 31 136 219 323 315 407 425 303 280
0 0 0 0 4 2 0 0 0 0 0 0 0 0 0 0 29 122 154 117 44 0 0 4 2 7 11 6 21 26 17 5 22 61 47 15 0 5 0 3 22 99 167 258 228 401 361 355 339
0 0 0 0 0 0 2 4 0 0 0 0 0 0 0 0 15 127 139 154 102 5 0 1 0 0 7 13 18 21 49 37 39 33 50 27 10 24 30 115 116 196 187 138 147 191 240 257 298
20 4 1 8 11 13 5 2 1 0 0 0 0 0 0 0 0 76 152 170 144 49 1 0 0 0 0 6 13 10 15 22 28 41 45 48 53 53 91 87 153 138 73 102 106 136 149 175 401
0 1 0 6 14 13 14 14 0 0 0 0 0 0 0 0 50 59 103 146 171 123 41 2 0 0 1 1 5 4 6 14 20 39 31 20 41 24 23 32 43 35 38 60 136 122 131 156 223
0 0 1 15 9 6 14 12 0 0 0 3 4 0 0 0 49 189 175 136 157 178 104 38 8 3 2 4 2 36 6 3 18 89 71 76 52 38 6 10 3 16 16 60 115 99 75 73 69

GFSSGP_con_sbcape_081.txt.gz
CAPE
0 0 0 0 0 0 0 0 0 0 0 0 0 0 0 0 0 108 1263 1456 1663 1832 1727 1477 1731 1920 2199 2267 1991 1870 1953 2020 1900 1667 1558 1668 1820 1848 1723 1492 1314 1144 981 842 746 538 276 150 93
0 0 0 0 0 0 2 0 0 0 0 0 0 0 0 5 38 286 1117 1485 1550 1923 1740 1805 1679 1892 2160 2225 2042 1984 2104 2038 1878 1732 1834 1883 2012 2016 1767 1389 1137 1055 892 732 564 395 190 67 83
0 0 0 0 0 0 0 0 0 0 0 0 0 0 10 34 260 767 1409 1352 1700 1881 2019 2016 1625 1754 1945 2154 2053 2033 1940 1843 1749 1776 2057 2102 2184 1788 1708 1268 1025 913 878 611 470 218 32 6 5
0 0 0 0 0 0 0 0 0 0 0 0 0 0 13 197 622 1007 1268 1202 1427 1682 2112 1423 1405 1616 1824 1998 1850 1691 1398 1101 1659 1831 2103 2238 2165 1996 1637 1263 1034 1033 1044 570 268 53 10 1 0
0 0 0 0 0 0 0 0 0 0 0 0 0 0 1 213 900 979 1020 1021 1308 1775 1901 2104 1338 1426 1359 1299 808 651 692 723 1039 1859 1952 1956 1962 1614 1208 1023 967 750 801 599 109 19 1 0 0
0 0 0 0 0 0 0 0 0 0 0 0 0 0 0 443 490 882 1017 1054 1194 1509 1864 1867 1188 896 743 528 296 386 449 0 474 1336 1209 1436 1489 1199 1006 821 746 504 442 278 110 17 0 0 0
0 0 0 0 0 0 0 0 0 0 0 0 6 0 14 79 386 807 538 695 883 1287 1711 1863 1541 922 333 41 76 284 198 27 347 647 827 710 781 873 799 686 680 461 180 114 40 8 0 0 0
0 0 0 0 0 0 0 0 0 0 0 0 0 0 2 248 415 611 664 652 772 832 1153 1661 1241 858 522 244 127 131 298 243 261 545 428 399 450 598 568 430 473 332 183 76 13 4 0 0 0
0 0 0 0 0 0 0 0 0 0 0 0 0 0 16 181 509 546 640 298 397 139 164 396 800 805 447 417 83 29 20 276 217 392 297 191 271 180 352 253 311 263 149 52 10 3 0 0 0
0 0 0 0 0 0 0 0 0 0 0 0 1 1 188 150 402 529 606 358 309 366 74 65 427 238 187 187 312 334 406 568 494 459 446 244 275 160 295 318 261 172 89 18 3 0 0 0 0
0 0 0 0 0 0 0 0 0 0 0 0 0 0 23 304 315 427 537 578 381 390 322 112 1 170 334 140 206 269 678 971 967 595 286 72 174 158 88 332 284 179 41 0 0 0 0 0 0
0 0 0 0 0 0 0 0 0 0 0 0 0 0 0 130 183 242 375 533 489 490 273 42 4 38 165 137 79 205 306 492 425 478 123 103 84 57 153 194 178 179 0 0 0 0 3 0 0
0 0 0 0 0 0 0 0 0 0 0 0 0 0 0 38 94 218 339 379 546 497 558 226 74 1 4 34 32 1 240 248 330 288 201 16 13 79 57 114 262 124 39 0 0 0 0 1 0
0 0 0 0 0 0 0 0 0 0 0 0 0 0 4 48 97 228 415 436 398 329 323 305 109 49 52 75 113 71 39 81 186 8 41 20 0 29 35 37 134 228 161 61 17 10 1 0 0
0 0 0 0 0 0 0 0 0 0 0 0 0 0 14 77 165 263 396 457 373 346 212 121 101 6 22 19 15 9 8 8 1 0 1 0 0 42 93 83 162 298 235 251 140 39 0 0 0
0 0 0 0 0 0 0 0 0 0 0 0 0 0 20 117 226 297 408 410 347 250 77 109 30 33 38 26 13 10 6 4 3 3 0 0 0 10 6 76 131 269 266 184 120 38 0 2 0
0 0 0 0 0 0 0 0 0 0 0 0 0 0 24 179 372 404 411 329 223 120 25 54 79 45 62 67 19 11 3 2 1 0 0 0 0 0 0 44 116 137 100 100 112 94 79 13 3
0 0 0 0 2 0 0 0 0 0 0 0 0 0 9 184 426 468 443 291 233 114 8 8 44 30 39 8 38 4 12 7 0 2 0 0 0 10 31 32 63 59 15 57 98 102 65 35 3
0 0 4 14 0 0 0 0 0 0 0 0 0 0 5 40 257 585 505 343 196 23 3 15 25 13 10 13 15 3 7 9 0 0 0 0 9 40 37 70 73 62 16 10 68 30 46 5 4
0 0 0 0 0 0 0 0 0 0 0 0 0 0 5 7 91 586 550 424 187 16 4 7 23 18 13 17 17 5 2 6 2 0 0 0 18 36 141 158 147 45 24 67 64 52 56 15 17
0 0 0 0 0 0 0 0 0 0 0 0 0 0 0 2 34 616 516 457 230 60 4 7 10 14 20 19 20 6 3 8 4 0 0 3 39 85 154 158 131 94 191 140 233 225 206 146 22
0 0 0 0 0 2 2 0 0 0 0 0 0 0 0 0 2 446 506 369 310 102 3 8 8 14 11 15 10 7 6 8 1 0 0 0 34 61 78 113 112 170 170 206 191 179 194 158 111
0 0 0 0 0 0 0 0 0 0 0 0 0 0 0 0 0 298 527 359 220 117 3 7 9 6 6 13 10 26 13 5 9 4 0 0 0 2 13 56 99 86 105 253 233 192 131 191 243
0 0 0 0 0 0 0 0 0 0 0 1 0 0 0 0 0 163 455 330 247 147 2 5 14 14 7 20 21 31 22 23 17 1 0 4 3 11 31 59 24 59 79 199 269 313 230 230 278
0 2 4 4 2 2 0 0 0 0 0 0 0 0 0 0 0 40 362 352 228 125 4 0 7 5 17 15 12 27 58 30 2 0 0 0 0 0 0 6 37 33 67 219 321 296 348 294 303
1 1 2 5 31 16 8 0 0 0 0 0 0 0 0 0 0 0 269 397 250 132 34 2 1 8 12 13 15 23 42 39 37 1 0 0 0 0 0 0 0 10 34 101 320 294 315 573 435
0 0 0 1 3 4 10 5 7 0 0 0 0 0 0 0 0 0 149 435 304 201 71 8 20 23 16 13 17 28 57 40 31 22 30 4 2 0 1 1 0 6 81 92 235 224 193 331 160
1 0 0 1 5 17 14 19 25 1 0 0 0 2 0 0 0 15 95 423 400 330 128 26 0 34 38 33 20 21 38 46 58 56 57 63 76 66 39 55 26 23 15 74 118 170 211 271 332
9 1 2 17 5 15 12 5 4 1 0 1 20 6 0 0 11 31 215 341 452 426 246 75 2 1 44 65 65 153 138 108 122 269 283 203 140 50 45 43 29 41 61 114 140 169 219 241 271
5 1 5 9 9 26 21 3 0 0 0 0 35 4 0 0 5 111 137 315 424 492 397 259 39 0 104 73 149 326 415 307 253 219 317 394 226 54 14 41 23 42 70 134 129 153 135 186 235

GFSSGP_con_sbcape_087.txt.gz
CAPE
0 0 0 0 0 0 0 0 0 0 0 0 0 0 0 0 43 541 1094 1362 1374 1215 1347 1436 1578 2031 1964 1940 1862 1875 2015 1974 1741 1794 1828 1741 1575 1518 1415 1284 1198 1326 1428 1064 805 492 622 597 874
0 0 0 0 0 0 0 0 0 0 0 0 0 0 0 45 789 1194 1189 1477 1603 1219 1215 1318 1529 1868 2139 1975 1871 1930 2078 2076 1808 1889 1978 1941 1816 1706 1595 1407 1362 1368 1466 1215 1009 914 686 848 696
0 0 0 0 0 0 0 0 0 0 0 0 0 0 0 200 498 1113 1197 1427 1436 1548 1408 1347 1405 1781 2175 2032 1920 1915 2018 2016 1830 1881 2125 2071 2007 1871 1781 1425 1163 1252 1429 1152 1096 781 916 759 473
0 0 0 0 0 0 0 0 0 0 0 0 0 0 0 96 540 987 1010 1413 1290 1513 1286 1109 1313 1656 2169 2144 2053 1984 1998 1774 964 755 1392 2300 2160 2037 1679 1225 1168 1253 1373 1313 862 795 785 537 460
0 0 0 0 0 0 0 0 0 0 0 0 0 0 21 742 808 824 768 1000 1252 1464 1141 1012 1180 1413 1914 2195 2179 2017 1639 322 33 4 0 279 1710 1797 1501 1123 1105 1058 1190 1250 741 619 317 150 85
0 0 0 0 0 0 0 0 0 0 0 0 0 0 35 497 562 727 687 790 936 1414 1384 1056 1129 1233 1385 1661 1463 997 286 249 256 42 0 6 474 1294 1232 1055 968 827 958 677 459 212 129 9 3
0 0 0 0 0 0 0 0 0 0 0 0 0 0 69 390 688 575 321 331 408 585 948 1132 856 721 604 395 293 232 242 172 99 16 0 2 14 713 1037 925 885 824 597 415 210 87 40 0 0
0 0 0 0 0 0 0 0 0 0 0 0 0 0 8 481 290 132 151 140 27 21 476 1022 625 61 0 0 138 178 132 78 39 56 5 7 2 344 468 606 667 475 393 224 100 27 0 0 0
0 0 0 0 0 0 0 0 0 0 0 0 0 0 2 322 144 93 51 3 0 0 0 435 674 263 27 0 61 248 121 73 89 68 39 4 120 207 232 371 396 374 205 122 66 9 0 0 0
0 0 0 0 0 0 0 0 0 0 0 0 0 0 206 344 161 236 137 28 18 0 0 150 515 203 138 123 7 4 46 93 30 0 29 4 138 101 182 180 213 202 120 58 3 0 0 0 0
0 0 0 0 0 0 0 0 0 0 0 0 0 0 30 104 14 45 362 109 0 0 0 29 168 180 214 126 0 0 12 44 7 1 58 126 85 98 88 75 57 54 12 0 0 0 0 0 0
0 0 0 0 0 0 0 0 0 0 0 0 0 0 0 0 0 0 0 65 0 0 0 0 0 7 29 27 67 38 43 66 62 0 59 71 88 29 53 26 28 0 0 0 0 0 0 0 0
0 0 0 0 0 0 0 0 0 0 0 0 0 0 0 0 0 0 0 31 0 0 0 0 0 9 63 11 0 0 6 30 28 12 33 36 26 9 5 14 1 6 0 0 0 0 0 0 0
0 0 0 0 0 0 0 0 0 0 0 0 0 0 0 0 0 0 87 29 2 6 0 0 0 0 0 0 0 0 0 0 1 10 12 6 4 6 4 21 0 0 0 0 0 0 0 0 0
0 0 0 0 0 0 0 0 0 0 0 0 0 0 0 0 0 0 0 32 0 108 7 0 0 0 0 0 0 0 0 0 0 2 1 3 4 1 3 7 0 0 0 0 0 0 0 0 0
0 0 0 0 0 0 0 0 0 0 0 0 0 0 0 0 0 0 0 0 0 90 24 10 0 0 7 7 0 0 0 0 0 0 36 5 4 1 10 3 0 0 0 0 0 0 0 0 0
0 0 0 0 0 0 0 0 0 0 0 0 0 0 0 0 0 0 0 0 0 13 10 4 0 0 0 5 1 0 0 0 0 0 5 3 5 0 11 0 0 1 5 0 1 0 0 0 0
0 0 0 0 0 0 0 0 0 0 0 0 0 0 0 0 0 0 0 0 0 0 0 0 0 0 1 2 1 2 1 1 0 0 0 1 0 0 15 0 0 13 7 3 1 0 0 0 0
0 0 0 0 0 0 0 0 0 0 0 0 0 0 0 0 0 0 0 0 0 0 0 0 0 0 1 2 1 3 2 2 2 2 0 0 0 0 0 0 0 0 2 0 0 0 0 0 0
0 0 0 0 0 0 0 0 0 0 0 0 0 0 0 0 0 0 0 0 0 0 0 0 0 0 0 2 1 1 1 1 0 0 0 0 1 0 0 0 0 0 0 0 0 0 0 0 0
0 0 0 0 0 0 0 0 0 0 0 0 0 0 0 0 0 6 0 0 0 0 0 0 0 0 0 5 1 1 0 0 0 0 0 0 0 0 0 0 0 0 0 0 0 0 0 0 0
0 0 0 19 0 0 0 0 0 0 0 0 0 0 0 0 1 43 0 0 0 0 0 0 0 0 1 7 1 0 0 0 0 0 0 0 0 0 0 0 0 0 0 0 0 0 0 1 0
0 0 19 6 0 1 0 0 0 0 0 0 0 0 0 0 26 89 11 0 0 0 0 0 0 0 4 3 1 0 0 0 0 0 0 0 0 0 0 0 0 0 0 0 1 4 11 11 0
1 2 22 4 1 7 0 0 0 0 0 0 0 0 0 0 32 157 45 1 0 0 0 0 0 1 7 1 0 0 0 0 0 0 0 0 0 0 0 0 0 0 0 1 2 17 14 46 22
24 18 51 22 15 0 0 0 0 0 0 0 0 0 0 0 0 145 80 16 0 0 0 0 0 1 13 3 0 0 0 0 0 0 0 0 0 0 0 0 0 0 3 23 11 22 38 51 70
1 16 7 0 0 1 0 0 0 0 0 0 0 0 0 0 22 195 117 13 0 0 0 0 0 0 6 3 0 0 0 0 0 0 0 0 0 0 0 0 3 7 11 20 28 30 30 44 30
2 2 0 1 0 12 0 0 0 0 0 0 0 0 0 0 52 200 95 1 0 0 0 0 0 0 3 9 1 0 0 0 0 0 0 0 0 0 0 0 0 0 4 15 29 21 25 21 6
0 6 14 10 1 14 0 0 0 0 0 0 0 0 0 0 0 120 119 9 0 0 0 0 0 0 0 6 8 6 0 0 0 0 0 0 0 0 0 0 0 0 0 0 7 24 13 16 1
1 15 14 1 14 54 4 0 0 0 0 0 0 0 0 1 0 0 169 53 8 0 0 0 0 0 0 0 5 7 7 0 0 0 0 0 0 0 0 0 0 0 0 0 0 0 3 17 9
0 0 24 47 0 15 14 1 1 0 0 0 0 0 0 0 0 2 140 53 14 9 0 0 0 0 0 0 0 2 4 5 0 0 0 0 0 0 0 0 0 0 0 0 0 0 0 0 6

GFSSGP_con_sbcape_090.txt.gz
CAPE
0 0 0 0 0 0 0 0 0 0 0 0 0 0 0 12 19 11 574 1121 1110 1250 1432 1811 1761 1812 1887 1870 1816 1958 1948 1823 1916 1853 1697 1622 1556 1505 1399 1358 1283 1393 1605 1165 984 962 959 787 1001
0 0 0 0 0 0 0 0 0 0 0 0 0 0 26 517 894 1087 1148 1193 1108 1181 1248 1493 1858 1849 1950 1904 1947 2069 2056 1824 2001 1944 1801 1746 1690 1644 1578 1422 1323 1415 1577 1111 579 1029 787 925 814
0 0 0 0 0 0 0 0 0 0 0 0 0 0 0 359 1095 1143 902 1350 1169 1076 1113 1201 1688 1953 1941 1887 1919 2029 2100 1891 1935 2016 1987 1905 1820 1759 1609 1567 1547 1638 1555 1245 859 926 825 813 632
0 0 0 0 0 0 0 0 0 0 0 0 0 0 0 86 1136 842 1250 1552 1327 1057 1140 1159 1326 1932 2006 1976 1986 2042 2081 1795 1848 1993 2095 2073 1983 1841 1747 1465 1485 1565 1479 1394 1262 1149 802 565 389
0 0 0 0 0 0 0 0 0 0 0 0 0 0 144 619 553 844 1187 1172 1346 1119 1018 989 1210 1668 2068 2182 2080 1989 1990 1344 848 564 494 195 336 918 1328 1340 1378 1292 1336 1207 1031 715 573 402 282
0 0 0 0 0 0 0 0 0 0 0 0 0 0 129 543 614 457 756 1038 1288 1029 811 877 1103 1351 1875 2139 2096 1898 1064 447 309 121 69 1 11 500 714 997 1254 1126 1012 903 687 625 482 275 5
0 0 0 0 0 0 0 0 0 0 0 0 0 0 185 384 383 248 164 256 544 1045 894 1048 1103 963 1159 1569 1475 951 551 203 152 138 63 30 38 6 154 570 803 738 615 584 504 311 165 19 0
0 0 0 0 0 0 0 0 0 0 0 0 0 34 285 152 227 33 11 13 19 208 418 549 606 238 46 65 364 255 261 157 129 150 43 44 27 0 0 293 534 632 579 430 328 97 25 3 0
0 0 0 0 0 0 0 0 0 0 0 0 0 1 0 348 46 24 3 0 0 0 74 428 99 11 0 0 25 114 87 101 81 75 16 10 3 0 25 198 357 421 291 230 135 24 0 2 0
0 0 0 0 0 0 0 0 0 0 0 0 0 102 399 215 133 67 22 0 0 1 0 293 228 18 0 0 1 0 13 0 0 3 9 0 0 3 23 175 212 230 168 109 40 0 0 0 0
0 0 0 0 0 0 0 0 0 0 0 0 0 102 267 248 133 29 8 0 0 0 0 3 183 99 30 1 0 0 0 1 1 3 28 12 31 131 124 101 85 45 28 1 1 0 0 0 0
0 0 0 0 0 0 0 0 0 0 0 0 0 30 234 216 175 130 107 1 0 0 0 0 26 94 82 19 0 0 0 1 1 3 8 41 62 36 89 67 44 15 0 0 0 0 0 0 0
0 0 0 0 0 0 0 0 0 0 0 0 0 0 89 72 74 25 101 7 0 0 0 0 0 14 5 44 27 0 0 0 1 7 16 56 87 33 53 20 2 1 0 0 0 0 0 0 0
0 0 0 0 0 0 0 0 0 0 0 0 0 0 0 0 0 0 4 0 0 0 0 0 0 0 0 0 0 0 0 0 2 1 1 60 30 36 21 6 1 0 0 0 0 0 0 0 0
0 0 0 0 0 0 0 0 0 0 0 0 0 0 0 0 0 0 1 0 0 0 0 0 0 0 0 0 0 0 0 0 7 3 5 10 2 6 13 2 0 0 0 0 0 0 0 0 0
0 0 0 0 0 0 0 0 0 0 0 0 0 0 0 0 0 0 12 0 0 0 0 0 0 0 0 0 0 0 0 0 0 14 11 1 0 0 6 2 0 0 0 0 0 0 0 0 0
0 0 0 0 0 0 0 0 0 0 0 0 0 0 0 0 0 0 5 0 0 0 0 0 0 0 0 0 0 0 0 0 0 2 21 1 2 1 9 1 0 0 0 0 0 0 0 0 0
0 0 0 0 0 0 0 0 0 0 0 0 0 0 0 0 0 0 1 0 2 0 0 0 0 0 0 0 1 1 0 0 0 0 0 16 11 1 2 6 0 0 0 0 0 0 0 0 0
0 0 0 0 0 0 0 0 0 0 0 0 0 0 0 0 0 0 0 0 5 3 0 0 0 0 0 0 1 1 0 1 0 0 0 7 3 2 1 1 0 0 0 0 0 0 0 0 0
0 0 0 0 0 0 0 0 0 0 0 0 0 0 0 0 0 0 0 0 0 4 0 0 0 0 0 0 0 1 0 1 0 0 0 4 0 2 11 0 0 0 0 0 3 0 0 0 0
0 0 0 0 0 0 0 0 0 0 0 0 0 0 0 0 0 0 0 0 0 0 0 0 0 0 0 0 0 0 0 1 0 0 0 1 0 0 1 0 0 0 0 0 0 0 10 11 0
0 0 0 0 0 0 0 0 0 0 0 0 0 0 0 0 0 0 0 0 0 0 0 0 0 0 0 0 0 0 0 1 0 0 0 1 2 0 0 0 0 0 0 0 0 1 9 15 6
0 0 0 0 20 12 0 8 0 0 0 0 0 0 0 0 0 0 0 0 0 0 0 0 0 0 0 0 0 0 0 0 0 0 0 0 0 0 1 0 0 0 0 0 0 0 0 3 0
0 0 8 18 56 4 0 0 0 0 0 0 0 0 0 0 0 0 0 0 0 0 0 0 0 0 0 0 0 0 0 0 0 0 0 0 0 0 0 0 0 0 0 0 0 0 0 7 2
10 41 46 24 34 0 0 0 0 0 0 0 0 0 0 0 0 4 0 0 0 0 0 0 0 0 1 0 0 0 0 0 0 0 0 0 0 0 0 0 0 0 0 0 0 0 0 27 27
0 24 52 0 1 5 0 0 0 0 0 0 0 0 0 0 5 48 0 0 0 0 0 0 0 0 1 1 0 0 0 0 0 0 0 0 0 0 0 0 0 0 0 0 0 0 0 11 38
1 13 0 8 7 1 0 0 0 0 0 0 0 0 0 0 69 73 17 0 0 0 0 0 0 0 0 1 0 0 0 0 0 0 0 0 0 0 0 0 0 0 0 1 0 0 0 17 18
0 14 16 16 1 9 1 0 36 0 0 0 0 0 0 1 112 102 73 1 0 0 0 0 0 0 0 0 1 0 0 0 0 0 0 0 0 0 0 0 0 0 0 0 3 11 14 20 21
7 27 11 8 9 19 2 53 0 0 0 0 0 0 0 4 83 85 112 29 0 0 0 0 0 0 0 1 0 0 0 0 0 0 0 0 0 0 0 0 0 0 0 0 0 7 14 16 16
9 25 11 34 0 10 13 0 1 0 0 0 0 0 0 0 0 1 58 20 0 0 0 0 0 0 0 0 0 0 0 0 0 0 0 0 0 0 0 0 0 0 0 0 0 0 0 0 0

GFSSGP_con_sbcape_093.txt.gz
CAPE
0 0 0 0 0 0 0 0 0 0 0 0 0 0 0 13 0 0 245 743 914 1261 1501 1499 1581 1788 1832 1717 1671 1802 1979 2013 1946 1872 1859 1867 1886 1890 1782 1733 1749 1798 1288 1009 1269 1453 1184 1110 1087
0 0 0 0 0 0 0 0 0 0 0 0 0 0 28 262 760 695 1030 1075 984 1268 1554 1489 1543 1755 1894 1872 1939 1984 1970 1999 2017 1921 1896 1917 1892 1844 1780 1688 1677 1651 1549 1452 1287 1247 1165 1035 1020
0 0 0 0 0 0 0 0 0 0 0 0 0 0 13 179 917 931 818 1077 926 1096 1381 1674 1562 1664 1892 1912 1976 2037 2013 2093 2011 1939 1927 1887 1892 1822 1766 1554 1608 1721 1761 1659 1346 1265 1008 914 654
0 0 0 0 0 0 0 0 0 0 0 0 0 0 0 272 1080 985 1160 1129 925 895 995 1303 1630 1633 1892 1959 2017 2165 2023 1944 1961 1903 1982 1943 1909 1883 1746 1563 1605 1775 1547 1501 1623 1236 862 577 370
0 0 0 0 0 0 0 0 0 0 0 0 0 0 23 555 662 1051 1369 1274 943 751 850 954 1427 1734 1916 2086 2118 2120 1949 1875 1971 1990 1705 1911 1659 1550 1603 1332 1351 1406 1463 1307 1263 902 704 453 221
0 0 0 0 0 0 0 0 0 0 0 0 0 16 187 338 912 923 1047 1260 1043 871 749 842 1104 1604 1970 2064 2019 1989 1809 1407 1361 1071 631 807 815 560 537 589 1121 1029 980 804 680 613 586 307 86
0 0 0 0 0 0 0 0 0 0 0 0 0 9 59 458 272 482 623 964 834 722 639 714 946 1216 1679 1974 1945 1631 924 673 556 369 548 763 379 312 294 435 656 721 682 587 542 467 311 123 18
0 0 0 0 0 0 0 0 0 0 0 0 0 6 184 384 164 73 171 348 646 630 607 669 738 692 524 828 1471 887 400 151 190 180 120 303 353 442 427 319 289 559 661 691 465 344 63 0 0
0 0 0 0 0 0 0 0 0 0 0 0 0 11 3 158 1 45 10 0 12 43 258 196 220 109 36 45 509 357 149 282 299 261 91 66 22 12 65 148 204 209 337 322 359 143 0 0 0
0 0 0 0 0 0 0 0 0 0 0 0 0 87 192 251 145 184 146 57 0 0 1 120 23 0 0 11 35 2 65 33 0 2 9 1 2 0 2 76 98 236 192 176 160 2 0 0 0
0 0 0 0 0 0 0 0 0 0 0 0 0 15 216 246 169 64 27 2 0 0 0 32 15 0 0 0 0 0 0 0 0 0 0 0 2 1 4 63 126 133 139 62 18 0 0 0 0
0 0 0 0 0 0 0 0 0 0 0 0 0 0 171 187 182 82 23 0 0 0 0 0 6 1 0 0 0 0 1 0 0 0 0 10 3 7 98 101 113 19 2 5 0 0 0 0 0
0 0 0 0 0 0 0 0 0 0 0 0 0 6 124 250 291 149 1 0 0 0 0 0 0 1 1 0 0 0 0 0 1 0 0 34 35 26 68 59 28 3 0 0 0 0 0 0 0
0 0 0 0 0 0 0 0 0 0 0 0 0 0 3 89 213 25 7 6 0 0 0 0 0 0 0 0 2 0 1 6 1 0 2 28 17 42 29 76 54 0 0 0 0 0 0 0 0
0 0 0 0 0 0 0 0 0 0 0 0 0 0 0 1 16 0 2 6 0 8 0 0 0 0 0 0 0 0 0 21 2 0 0 39 43 40 50 54 39 1 0 0 0 0 0 0 0
0 0 0 0 0 0 0 0 0 0 0 0 0 0 0 0 0 0 0 25 6 0 0 0 0 0 0 0 0 0 0 1 12 1 11 31 43 23 31 29 3 0 0 0 0 0 0 0 0
0 0 0 0 0 0 0 0 0 0 0 0 0 0 0 0 0 0 0 14 0 11 0 0 0 0 0 0 0 0 0 0 1 10 17 21 18 12 26 5 0 0 0 0 0 0 0 0 0
0 0 0 0 0 0 0 0 0 0 0 0 0 0 0 0 0 0 0 13 15 0 0 0 0 0 0 0 0 0 0 0 0 0 3 6 13 5 21 1 0 0 0 0 0 0 0 0 0
0 0 0 0 0 0 0 0 0 0 0 0 0 0 0 0 0 0 3 5 22 3 0 0 0 0 0 0 0 0 0 0 0 0 0 1 18 1 2 2 0 0 0 0 0 0 0 0 0
0 0 0 0 0 0 0 0 0 0 0 0 0 0 0 0 0 0 12 0 21 25 8 0 0 0 0 0 0 0 0 0 0 0 0 0 3 2 1 2 0 0 0 0 0 0 0 0 0
0 0 0 0 0 0 0 0 0 0 0 0 0 0 0 0 0 0 9 5 25 22 7 0 0 0 0 0 0 0 0 1 1 0 1 2 6 8 5 1 0 0 0 0 0 0 0 0 0
0 0 0 0 0 0 0 0 0 0 0 0 0 0 0 0 0 0 10 9 35 12 0 0 0 0 0 0 0 0 0 0 0 0 0 2 10 12 8 1 0 0 0 0 0 0 6 22 0
0 0 0 0 0 0 0 3 0 0 0 0 0 0 0 0 0 0 24 12 17 0 0 0 0 0 0 0 0 0 0 0 0 0 0 0 1 0 0 0 0 0 0 0 0 0 10 34 13
0 0 0 0 9 3 0 1 0 0 0 0 0 0 0 0 0 0 10 0 0 0 0 0 0 0 0 0 0 0 0 0 0 0 0 0 0 0 0 0 1 0 0 0 0 0 8 16 21
6 25 8 9 12 0 0 0 0 0 0 0 0 0 0 0 0 0 0 0 0 0 0 0 0 0 0 0 0 0 0 0 0 0 0 0 0 0 0 1 1 0 0 0 0 0 0 0 1
1 23 3 0 1 0 0 0 0 0 0 0 0 0 0 0 0 0 2 0 0 0 0 0 0 0 0 0 0 0 0 0 0 0 0 0 0 0 0 0 0 0 3 0 0 0 0 0 0
0 15 12 34 17 1 0 0 0 0 0 0 0 0 0 0 0 0 4 0 0 0 0 0 0 0 0 0 0 0 0 0 0 0 0 0 0 0 0 0 0 0 0 0 0 0 0 0 0
4 2 30 27 27 23 0 0 2 0 0 0 0 0 0 0 0 3 1 0 0 0 0 0 0 0 0 0 0 0 0 0 0 0 0 0 0 0 0 0 0 0 0 0 0 0 0 0 0
1 28 11 24 10 32 3 17 56 3 0 0 0 0 0 0 34 52 15 0 0 0 0 0 0 0 0 0 0 0 0 0 0 0 0 0 0 0 0 0 0 0 0 0 0 0 0 0 0
9 7 39 12 44 4 4 0 24 2 0 0 0 0 0 0 0 76 39 0 0 0 0 0 0 0 0 0 0 0 0 0 0 0 0 0 0 0 0 0 0 0 0 0 0 0 0 0 0

GFSSGP_con_sbcape_096.txt.gz
CAPE
0 0 0 0 0 0 0 0 0 0 0 0 0 0 0 0 0 0 76 600 779 1009 1102 1377 1611 1725 1679 1704 1697 1781 2009 2151 2251 2214 2139 2100 2091 1992 1943 1945 1839 1782 1837 1618 1855 1618 1493 1223 1163
0 0 0 0 0 0 0 0 0 0 0 0 0 0 0 0 441 415 897 657 926 1010 1124 1314 1537 1737 1799 1743 1770 1924 2013 2150 2213 2251 2254 2236 2174 2045 2022 1950 1769 1686 1829 1728 1378 1354 1349 1281 1138
0 0 0 0 0 0 0 0 0 0 0 0 0 0 0 18 635 510 664 952 949 1200 1172 1263 1488 1652 1834 1807 1850 1983 1983 2014 2029 2092 2250 2283 2234 2108 1998 1878 1666 1509 1641 1828 1448 1302 1363 1198 945
0 0 0 0 0 0 0 0 0 0 0 0 0 0 0 200 757 728 908 912 921 1018 1164 1174 1404 1555 1837 1903 1952 1967 2028 1910 1886 2003 2122 2214 2051 2168 1857 1608 1507 1579 1661 1673 1526 1429 1249 892 661
0 0 0 0 0 0 0 0 0 0 0 0 0 0 0 275 574 889 1008 876 750 735 822 1171 1342 1444 1815 2026 2054 2048 1980 1866 1884 1945 1855 1676 872 786 1191 1310 1264 1106 1178 1499 1383 1245 955 672 458
0 0 0 0 0 0 0 0 0 0 0 0 0 0 0 148 837 1098 1081 869 656 577 598 746 1373 1492 1720 1895 1907 1899 1705 1630 1804 1731 1683 1309 720 608 869 1093 764 801 839 957 1195 933 729 450 288
0 0 0 0 0 0 0 0 0 0 0 0 0 0 0 350 409 753 962 861 691 500 568 582 902 1451 1714 1816 1760 1689 1543 1521 1404 1058 1260 965 722 610 724 617 489 446 678 843 974 713 493 291 124
0 0 0 0 0 0 0 0 0 0 0 0 0 0 0 256 245 293 580 672 604 425 455 464 582 801 1065 1256 1447 1369 1024 640 494 606 655 206 131 245 121 88 237 445 547 654 827 486 283 119 20
0 0 0 0 0 0 0 0 0 0 0 0 0 0 0 63 64 198 184 244 371 303 288 237 307 259 210 418 787 713 396 158 182 214 221 21 9 66 45 40 145 530 331 355 586 236 92 15 5
0 0 0 0 0 0 0 0 0 0 0 0 0 4 89 120 271 453 459 522 282 247 145 158 6 0 0 103 425 230 141 104 77 28 4 2 0 0 84 77 232 258 266 284 214 54 16 0 0
0 0 0 0 0 0 0 0 0 0 0 0 0 0 55 89 228 345 390 375 365 149 3 179 1 0 0 1 1 4 90 12 1 0 1 0 0 0 0 24 93 89 151 161 76 2 0 0 0
0 0 0 0 0 0 0 0 0 0 0 0 0 0 9 68 167 212 196 62 0 0 0 4 0 0 0 0 1 0 0 0 0 0 1 1 0 1 0 3 36 109 135 64 0 0 0 0 0
0 0 0 0 0 0 0 0 0 0 0 0 0 0 0 28 101 150 111 8 0 0 0 0 0 1 0 0 0 0 1 0 0 0 0 1 3 3 4 10 68 48 95 14 0 0 0 0 0
0 0 0 0 0 0 0 0 0 0 0 0 0 0 0 0 16 15 0 0 0 0 0 0 0 1 0 0 0 0 0 0 1 2 1 0 3 4 17 38 56 1 1 0 0 0 0 0 0
0 0 0 0 0 0 0 0 0 0 0 0 0 0 0 0 0 20 14 15 0 0 0 0 0 1 0 0 0 0 1 1 1 1 0 1 1 0 22 3 5 1 0 0 0 0 0 0 0
0 0 0 0 0 0 0 0 0 0 0 0 0 0 0 0 0 0 11 16 0 0 0 0 0 0 1 0 0 1 1 10 5 1 1 3 0 1 18 14 21 1 0 0 0 0 0 0 0
0 0 0 0 0 0 0 0 0 0 0 0 0 0 0 0 0 0 1 0 0 0 0 0 1 0 0 0 0 0 0 3 25 2 2 6 8 1 8 24 6 0 0 0 0 0 0 0 0
0 0 0 0 0 0 0 0 0 0 0 0 0 0 0 0 0 0 0 0 0 0 0 0 1 0 1 0 0 0 1 1 2 17 7 14 13 6 2 5 0 0 0 0 0 0 0 0 0
0 0 0 0 0 0 0 0 0 0 0 0 0 0 0 0 0 0 0 0 0 0 0 0 1 0 0 0 0 0 0 0 0 0 0 22 30 7 10 0 0 0 0 0 0 0 0 0 0
0 0 0 0 0 0 0 0 0 0 0 0 0 0 0 0 0 0 0 0 14 2 0 0 1 1 0 0 0 0 0 0 0 0 0 0 1 21 11 1 0 0 0 0 0 0 0 0 0
0 0 0 0 0 0 0 0 0 0 0 0 0 0 0 0 0 0 0 9 32 10 0 0 0 0 1 0 0 0 0 0 0 0 0 0 0 1 37 1 0 0 0 0 0 0 0 0 0
0 0 0 0 0 0 0 0 0 0 0 0 0 0 0 0 0 0 0 14 53 43 10 0 0 0 0 0 0 0 0 0 0 0 0 0 0 2 6 3 0 0 0 0 0 0 0 0 0
0 0 0 0 0 0 0 0 0 0 0 0 0 0 0 0 0 0 0 4 75 71 55 6 0 0 0 0 0 0 0 0 0 0 0 1 2 0 5 1 0 0 0 0 0 0 0 0 8
0 0 0 0 0 0 0 0 0 0 0 0 0 0 0 0 0 0 0 0 27 42 6 0 0 0 0 0 0 0 0 0 0 0 0 0 7 10 10 3 1 0 0 0 0 0 0 0 3
0 0 0 0 5 0 0 0 0 0 0 0 0 0 0 0 0 0 0 0 29 30 0 0 0 0 0 0 0 0 0 0 0 0 0 0 0 0 1 0 0 0 0 0 0 0 0 6 7
0 0 0 0 0 0 0 0 0 0 0 0 0 0 0 0 0 0 0 0 1 11 0 0 0 1 0 0 0 0 0 0 0 0 0 0 0 0 0 0 0 0 0 1 0 0 0 12 4
0 2 1 33 0 12 0 0 0 0 0 0 0 0 0 0 0 0 0 0 0 0 0 0 0 0 0 1 0 0 0 0 0 0 0 0 0 0 0 0 0 0 0 0 1 7 4 0 0
0 0 14 33 6 4 0 0 0 0 1 0 0 0 0 0 0 0 0 0 0 0 0 0 0 0 0 0 0 0 0 0 0 0 0 0 0 0 0 0 0 0 0 5 0 0 0 0 0
0 2 1 47 20 55 0 0 85 10 0 0 0 0 0 0 0 0 0 0 0 0 0 0 0 0 0 0 0 0 0 0 0 0 0 0 0 0 0 0 0 0 0 0 1 0 0 0 0
2 2 1 62 19 18 52 0 0 20 1 0 0 0 0 0 0 0 0 0 0 0 1 0 0 1 0 1 0 0 0 0 0 0 0 0 0 0 0 0 0 0 0 0 0 0 0 0 0

GFSSGP_con_sbcape_099.txt.gz
CAPE
0 0 0 0 0 0 0 0 0 0 0 0 0 0 0 0 0 0 97 1134 1083 1409 1389 1346 1264 1554 1609 1534 1618 1901 2270 2374 2295 2233 2224 2193 2166 2141 2006 2043 2060 2007 2085 1964 1752 1633 1575 1381 1314
0 0 0 0 0 0 0 0 0 0 0 0 0 0 0 0 67 100 899 1069 1173 1430 1300 1470 1350 1510 1651 1594 1695 2043 2307 2420 2376 2361 2331 2303 2259 2163 2153 2059 1998 2051 2094 2220 1753 1636 1547 1454 1352
0 0 0 0 0 0 0 0 0 0 0 0 0 0 0 0 504 151 930 1175 1243 1311 1298 1530 1408 1466 1633 1636 1716 1932 2210 1840 2298 2335 2475 2464 2336 2233 2118 1704 1548 1955 1953 2041 1851 1690 1641 1380 1113
0 0 0 0 0 0 0 0 0 0 0 0 0 0 0 81 780 720 995 1325 1512 1361 1367 1247 1326 1465 1642 1753 1819 1914 1983 1910 1814 2220 2454 2529 2328 2252 1705 1322 1115 1903 1978 1896 1808 1674 1465 1103 857
0 0 0 0 0 0 0 0 0 0 0 0 0 0 0 447 708 1007 1388 1450 1623 1525 1270 1289 1224 1438 1651 1821 1942 1944 1814 1774 1907 2132 2277 2230 1416 1253 769 595 772 1106 1484 1600 1416 1363 1173 883 686
0 0 0 0 0 0 0 0 0 0 0 0 0 0 0 362 1164 1390 1463 1553 1535 1635 1651 1704 1274 1354 1608 1672 1670 1679 1738 1670 1699 1694 1670 1511 1280 966 732 733 983 1194 998 956 1037 1004 811 739 563
0 0 0 0 0 0 0 0 0 0 0 0 0 0 0 430 1121 1527 1453 1403 1352 1403 1513 1747 1941 1606 1468 1538 1504 1511 1473 1560 1435 1264 1291 1118 932 700 695 805 1070 993 798 949 874 881 560 536 317
0 0 0 0 0 0 0 0 0 0 0 0 0 0 0 205 1068 1472 1452 1483 1389 1265 1422 1405 1989 2110 2074 2105 1388 1347 1416 1361 1422 1080 884 711 566 608 705 852 736 586 651 752 585 498 317 282 149
0 0 0 0 0 0 0 0 0 0 0 0 0 0 15 302 951 1349 963 921 1053 1109 1408 1350 1466 1646 1988 2140 1678 1204 1059 814 659 720 750 556 652 532 766 389 399 554 470 466 468 317 157 70 31
0 0 0 0 0 0 0 0 0 0 0 0 0 1 184 537 1049 1390 1239 1158 1059 1215 1016 1383 1346 1329 1356 1297 1095 1176 821 327 299 773 803 1099 642 601 277 104 80 300 281 374 348 161 51 64 50
0 0 0 0 0 0 0 0 0 0 0 0 0 0 23 506 1020 1299 1384 1261 1187 998 732 916 788 980 958 700 495 493 407 200 70 355 261 85 13 53 208 346 272 474 250 246 152 87 243 237 169
0 0 0 0 0 0 0 0 0 0 0 0 0 0 0 51 762 1134 1205 1218 1006 716 756 359 352 631 747 680 98 174 434 429 69 10 12 3 8 28 41 308 354 316 314 104 36 149 235 73 33
0 0 0 0 0 0 0 0 0 0 0 0 0 0 0 0 12 682 1026 1013 825 661 798 555 167 453 523 475 498 466 283 128 8 2 2 23 101 175 283 161 123 117 150 2 0 0 1 8 0
0 0 0 0 0 0 0 0 0 0 0 0 0 0 0 0 0 95 649 707 606 578 485 464 94 139 265 320 323 280 272 68 3 4 3 37 6 7 4 94 33 128 145 4 0 0 4 30 0
0 0 0 0 0 0 0 0 0 0 0 0 0 0 0 0 0 1 192 544 610 545 205 127 55 62 19 22 159 111 66 18 4 4 4 15 8 58 12 6 17 32 45 1 1 2 0 6 0
0 0 0 0 0 0 0 0 0 0 0 0 0 0 0 0 0 0 21 262 356 411 58 6 103 1 1 0 78 52 3 3 7 21 68 26 219 63 41 6 29 7 1 1 0 0 0 0 0
0 0 0 0 0 0 0 0 0 0 0 0 0 0 0 0 0 0 0 104 259 229 110 11 107 2 0 140 138 74 2 4 0 32 24 55 32 148 84 83 9 1 2 2 2 2 0 1 14
0 0 0 0 0 0 0 0 0 0 0 0 0 0 0 0 0 0 0 0 62 190 154 60 68 7 0 31 23 16 3 3 9 28 28 53 150 101 110 28 10 3 2 2 2 1 0 4 29
0 0 0 0 0 0 0 0 0 0 0 0 0 0 0 0 0 0 0 0 0 91 141 82 95 1 0 4 2 4 3 6 5 2 11 48 78 33 59 3 3 5 3 3 1 1 0 5 26
0 0 0 0 0 0 0 0 0 0 0 0 0 0 0 0 0 0 0 0 0 4 130 123 128 1 3 4 3 2 2 2 1 1 0 30 172 63 44 1 1 0 4 3 1 0 3 8 3
0 0 0 0 0 0 0 0 0 0 0 0 0 0 0 0 0 0 0 0 0 0 107 169 225 19 22 5 1 0 1 2 2 3 3 0 0 18 89 1 2 1 0 1 0 0 0 6 5
0 0 0 0 0 0 0 0 0 0 0 0 0 0 0 0 0 0 0 0 0 12 95 179 216 31 11 1 1 0 0 0 0 3 3 1 0 9 0 10 2 0 0 0 0 0 0 0 2
0 0 0 0 0 0 0 0 0 0 0 0 0 0 0 0 0 0 0 0 0 23 122 196 190 19 4 2 1 1 1 1 5 5 2 3 3 2 20 7 1 1 1 0 0 0 0 0 0
0 0 0 0 1 0 0 0 0 0 0 0 0 0 0 0 0 0 0 0 5 94 179 230 130 9 3 1 1 0 2 1 1 2 3 4 7 16 24 40 9 1 2 6 1 0 0 0 0
0 0 0 0 3 0 0 0 0 0 0 0 0 0 0 0 0 0 0 0 105 197 323 307 154 2 3 6 1 1 3 0 1 3 1 2 8 21 36 20 18 3 5 5 1 0 0 0 0
0 0 0 0 0 0 0 0 0 0 0 0 0 0 0 0 0 0 0 11 198 321 393 194 83 8 3 3 1 3 1 0 0 1 2 6 3 0 14 37 1 1 0 4 1 2 1 0 0
0 0 0 0 0 0 0 0 0 0 14 3 0 0 0 0 0 1 0 0 204 325 303 201 74 16 2 3 2 4 1 0 0 0 7 7 5 3 5 1 0 1 1 0 0 0 0 1 0
0 0 5 3 1 3 0 0 0 28 47 18 0 0 0 2 62 4 0 0 93 209 179 112 4 2 2 3 1 4 1 0 0 1 7 7 0 1 2 4 0 1 1 1 2 1 0 0 7
0 2 0 1 11 4 10 12 69 76 76 41 0 0 0 1 22 26 10 15 50 94 64 6 1 2 3 2 2 5 2 0 0 0 3 6 0 0 0 1 3 1 2 5 4 2 5 5 1
0 0 0 3 19 3 19 1 80 69 73 76 14 2 0 0 10 9 5 8 9 5 5 1 2 2 3 5 6 7 5 2 0 1 1 4 3 0 0 0 1 2 1 7 10 8 6 12 11

GFSSGP_con_sbcape_102.txt.gz
CAPE
0 0 0 0 0 0 0 0 0 0 0 0 0 0 0 0 0 0 185 1404 1736 1722 1568 1231 989 1593 1596 1691 1868 2183 2230 2320 2366 2302 2301 2357 2390 2399 2239 2226 2259 2218 2190 1896 1836 1800 1783 1605 1652
0 0 0 0 0 0 0 0 0 0 0 0 0 0 0 0 0 11 847 1351 1645 1594 1721 1610 1020 1550 1586 1754 2000 2295 2566 2528 2446 2431 2480 2456 2435 2335 2273 2247 2147 2200 2294 2181 1897 1799 1798 1695 1561
0 0 0 0 0 0 0 0 0 0 0 0 0 0 0 0 4 17 492 1250 1456 1483 1573 1794 1146 1445 1600 1583 1906 2187 2464 2444 2429 2464 2605 2563 2499 2269 2109 1993 1956 1752 1575 1935 1705 1797 1664 1630 1300
0 0 0 0 0 0 0 0 0 0 0 0 0 0 0 51 10 88 818 1333 1392 1480 1518 1270 1209 1374 1618 1624 1771 2102 2121 2044 2266 2419 2600 2607 2370 1600 1748 1524 1513 1224 1360 1535 1856 1792 1647 1264 1024
0 0 0 0 0 0 0 0 0 0 0 0 0 0 0 191 584 533 997 1453 1564 1757 1740 1952 1201 1370 1644 1778 1851 1911 1943 1745 1929 2303 2484 2416 1756 1659 1203 1164 1227 1200 1198 1201 1274 1346 1167 1061 841
0 0 0 0 0 0 0 0 0 0 0 0 0 0 0 332 970 906 1218 1606 1988 2182 2118 2084 1328 1356 1478 1714 1759 1659 1667 1766 1684 2171 2016 1612 1507 1182 1065 905 749 581 685 1086 1097 995 964 869 601
0 0 0 0 0 0 0 0 0 0 0 0 0 0 0 137 950 1404 1511 1709 2103 2445 2426 2379 2096 1834 1287 1319 1436 1493 1516 1616 1681 1675 1522 1189 1221 1052 892 856 815 501 851 974 1202 931 663 579 274
0 0 0 0 0 0 0 0 0 0 0 0 0 0 0 108 1324 1754 1603 1817 2184 2422 2457 2502 2420 2246 2248 2086 1208 1230 1402 1460 1447 1321 1046 761 709 832 874 767 846 1108 864 750 816 699 474 352 179
0 0 0 0 0 0 0 0 0 0 0 0 0 0 0 176 1243 1818 1647 1591 1940 2159 2256 2347 2377 2343 2085 2118 1800 1165 1226 1344 1269 1081 758 605 1334 1122 823 597 765 826 714 613 648 402 195 159 92
0 0 0 0 0 0 0 0 0 0 0 0 0 0 0 70 868 1716 1671 1422 1737 2086 2222 2232 2299 2279 2248 1878 2236 2353 2285 2071 1856 1547 1346 1228 1113 1103 615 461 464 556 445 412 220 153 129 134 313
0 0 0 0 0 0 0 0 0 0 0 0 0 0 0 0 7 664 1454 1013 1274 1646 1994 2114 2282 2273 2133 1883 1661 1762 2002 1748 1794 1411 1495 1409 1360 1085 796 922 621 550 326 710 145 93 152 175 583
0 0 0 0 0 0 0 0 0 0 0 0 0 0 0 0 0 2 404 1270 1375 1449 1720 1933 2017 2159 2101 1630 1620 1492 1052 1249 1341 1223 925 1121 1204 919 786 788 399 502 378 474 184 73 108 301 444
0 0 0 0 0 0 0 0 0 0 0 0 0 0 0 0 0 0 0 367 1136 1543 1586 1758 1787 1942 1764 1631 1287 1016 822 924 1027 912 555 774 894 637 279 352 497 609 835 251 132 77 111 505 355
0 0 0 0 0 0 0 0 0 0 0 0 0 0 0 0 0 0 0 44 814 1313 1461 1904 1595 1624 1553 1428 1351 1187 1192 859 681 602 411 360 722 598 618 569 507 740 755 407 129 73 103 495 399
0 0 0 0 0 0 0 0 0 0 0 0 0 0 0 0 0 0 0 0 403 909 1326 1680 1652 1421 1452 1349 1361 1054 756 1107 614 359 321 463 400 545 454 346 369 580 396 12 6 1 14 30 234
0 0 0 0 0 0 0 0 0 0 0 0 0 0 0 0 0 0 0 0 7 405 979 1405 1286 1176 958 1195 1221 899 654 841 765 479 261 320 432 482 443 340 256 274 142 11 3 0 4 44 157
0 0 0 0 0 0 0 0 0 0 0 0 0 0 0 0 0 0 0 0 0 182 699 1151 1348 1110 665 704 1037 922 594 308 608 428 455 388 517 419 391 281 67 62 1 2 2 2 0 17 165
0 0 0 0 0 0 0 0 0 0 0 0 0 0 0 0 0 0 0 0 0 52 552 952 1102 1144 460 412 1046 825 361 122 115 78 488 504 295 384 428 302 5 2 2 2 1 0 2 13 142
0 0 0 0 0 0 0 0 0 0 0 0 0 0 0 0 0 0 0 0 0 0 405 819 1001 1190 352 643 758 524 201 41 319 154 124 274 397 287 262 110 9 5 5 2 2 1 0 1 56
0 0 0 0 0 0 0 0 0 0 0 0 0 0 0 0 0 0 0 0 0 0 112 621 870 1116 837 979 859 547 336 77 103 30 172 402 419 274 232 40 40 6 10 7 3 2 3 3 30
0 0 0 0 0 0 0 0 0 0 0 0 0 0 0 0 0 0 0 0 0 0 9 424 701 1056 888 974 791 474 347 67 88 61 6 65 312 176 45 40 12 3 4 5 8 6 11 7 5
0 0 0 0 0 0 0 0 0 0 0 0 0 0 0 0 0 0 0 0 0 0 0 231 514 895 858 968 740 366 184 75 77 40 4 4 50 47 47 38 25 4 1 1 8 9 0 3 6
0 0 0 0 0 0 0 0 0 0 0 0 3 0 0 0 0 0 0 0 0 0 7 292 475 772 848 958 706 500 457 318 102 18 9 10 28 60 54 10 35 16 3 2 1 9 15 0 14
0 0 0 2 2 0 0 0 0 0 0 0 1 0 0 0 0 0 0 0 0 0 14 454 533 774 831 840 711 614 523 237 30 8 11 18 19 24 29 67 11 2 5 6 3 0 1 10 32
6 15 21 18 11 0 0 0 0 0 0 0 0 2 3 2 1 0 0 0 0 0 330 579 614 765 753 381 545 541 266 225 53 3 3 8 6 22 25 41 67 11 3 4 1 0 0 0 0
11 1 15 0 0 2 0 0 6 3 10 5 8 5 3 0 5 52 36 0 0 36 545 637 652 663 308 169 402 337 98 277 34 2 2 5 12 24 27 51 56 34 8 3 4 2 2 1 0
14 18 3 1 0 0 0 0 0 1 28 45 18 4 2 0 0 41 248 51 0 274 618 720 560 504 231 42 61 18 375 153 6 5 5 7 12 8 10 40 19 3 9 22 13 15 7 5 2
8 6 4 6 9 0 0 0 48 49 50 55 40 13 6 3 0 0 404 162 0 416 745 644 464 405 42 35 6 97 238 80 8 9 4 12 18 13 22 6 25 6 1 0 4 3 1 2 1
25 6 2 9 7 10 4 79 67 13 1 12 24 21 15 8 4 1 3 339 105 381 670 409 330 150 27 9 10 148 184 46 10 11 9 11 19 10 14 15 27 5 2 1 1 1 1 2 4
15 8 5 27 5 11 7 1 9 0 0 11 27 28 10 1 0 3 4 2 174 379 404 217 129 6 10 11 6 83 99 13 9 14 13 9 6 9 6 5 21 6 12 13 11 6 4 4 4

GFSSGP_con_sbcape_105.txt.gz
CAPE
0 0 0 0 0 0 0 0 0 0 0 0 0 0 0 0 0 6 191 1377 1492 1392 1437 1161 1392 1583 1702 1748 1936 2159 2297 2304 2338 2314 2322 2354 2429 2461 2454 2505 2465 2401 2471 2058 1881 1763 1817 1698 1724
0 0 0 0 0 0 0 0 0 0 0 0 0 0 0 0 0 75 489 1126 830 835 1596 1457 1280 1551 1763 1945 2161 2322 2437 2436 2421 2381 2424 2268 2524 2498 2433 2349 2225 1981 1927 2071 1919 1713 1786 1747 1677
0 0 0 0 0 0 0 0 0 0 0 0 0 0 0 0 0 2 400 485 495 667 1317 1793 1119 1444 1676 1878 2128 2396 2443 2405 2395 2362 2523 2546 2567 2329 2080 2188 2056 1751 2082 1700 1593 1521 1638 1694 1418
0 0 0 0 0 0 0 0 0 0 0 0 0 0 0 0 0 26 251 374 551 641 998 909 1022 1358 1580 1834 2105 2361 2405 2276 2254 2316 2499 2607 2341 1918 2069 1798 1964 1973 1807 2051 1995 1450 1348 1349 1197
0 0 0 0 0 0 0 0 0 0 0 0 0 0 0 1 13 156 434 523 666 892 1308 1910 1103 1338 1612 1759 2035 2199 2119 2107 2187 2337 2399 2498 2076 2100 1900 1638 1607 1747 1787 1699 1796 1741 1412 1189 1027
0 0 0 0 0 0 0 0 0 0 0 0 0 0 0 0 189 303 695 829 1020 1488 1706 2296 1245 1329 1522 1636 1678 1783 1750 1666 1897 2226 2241 1966 1886 1830 1584 1411 1388 1429 1479 1337 1535 1351 1270 1009 594
0 0 0 0 0 0 0 0 0 0 0 0 0 0 0 0 87 412 790 1178 1692 2027 2316 2547 1942 1610 1282 1381 1367 1399 1603 1602 1566 1875 1840 1586 1395 1163 1208 1060 966 958 1017 1309 1261 1028 845 614 344
0 0 0 0 0 0 0 0 0 0 0 0 0 0 0 189 485 1239 1013 1367 1947 2419 2554 2601 2425 2114 1993 1691 1236 1251 1305 1499 1553 1574 1551 1148 989 904 1002 822 832 633 567 1029 1072 756 460 254 152
0 0 0 0 0 0 0 0 0 0 0 0 0 0 0 0 200 1384 1211 1435 1818 2222 2425 2481 2407 2248 2262 1873 1666 1040 1144 1264 1264 1337 825 874 1664 1468 1141 745 648 749 897 950 914 464 161 118 82
0 0 0 0 0 0 0 0 0 0 0 0 0 0 0 0 139 1130 1259 1357 1347 1759 2023 2067 2229 2170 2114 1807 2207 1969 1737 1809 1718 1452 1593 1753 1347 1483 1219 824 653 788 704 571 489 192 84 93 130
0 0 0 0 0 0 0 0 0 0 0 0 0 0 0 0 0 284 896 1069 1007 1217 1626 1776 2119 2218 2283 2168 2237 2170 2355 2411 2178 1844 1798 1775 1628 1833 1368 1540 676 721 491 606 228 121 170 38 50
0 0 0 0 0 0 0 0 0 0 0 0 0 0 0 0 0 0 59 738 887 1033 1470 1693 1935 2238 2315 1835 2166 1790 1987 2222 1962 1802 1771 1879 1806 1813 1616 1390 1018 1069 1065 729 803 492 115 15 74
0 0 0 0 0 0 0 0 0 0 0 0 0 0 0 0 0 0 0 11 383 746 1229 1812 1871 2224 2178 2112 1793 1627 1596 1751 1744 1712 1551 1684 1591 1453 1366 1219 1025 832 1111 775 641 405 25 34 68
0 0 0 0 0 0 0 0 0 0 0 0 0 0 0 0 0 0 0 0 4 398 1132 1835 1963 2046 2023 1976 1719 1526 1368 1109 1480 1438 1378 1478 1551 1472 1178 978 740 570 1014 884 760 305 67 50 45
0 0 0 0 0 0 0 0 0 0 0 0 0 0 0 0 0 0 0 0 0 2 540 1906 2143 2059 2030 1863 1844 1673 1295 1102 1085 945 1218 1182 1275 1190 897 687 576 641 1144 724 590 287 60 96 103
0 0 0 0 0 0 0 0 0 0 0 0 0 0 0 0 0 0 0 0 0 0 175 1362 1975 2117 1981 1834 1757 1577 1077 1041 1108 838 1125 1138 1116 1086 1029 908 858 802 800 436 262 130 29 53 90
0 0 0 0 0 0 0 0 0 0 0 0 0 0 0 0 0 0 0 0 0 0 0 838 1965 2152 1962 1817 1736 1640 1215 959 744 826 889 926 861 1000 897 818 774 919 599 76 35 33 31 59 52
0 1 0 0 0 1 0 0 0 0 0 0 0 0 0 0 0 0 0 0 0 0 0 423 1715 2140 2047 1589 1653 1533 1252 936 704 753 716 681 895 1074 793 674 558 500 177 48 5 5 5 36 47
8 5 14 0 1 2 4 0 0 0 0 0 0 0 0 0 0 0 0 0 0 0 0 468 1466 2005 1827 1079 1355 1502 1294 472 534 392 607 873 714 835 771 522 11 8 3 2 1 1 1 16 24
5 5 2 0 0 0 0 0 0 0 0 0 0 0 0 0 0 0 0 0 0 0 0 341 932 1477 1814 1095 1135 1380 1152 408 674 632 522 486 356 620 627 300 11 6 4 3 1 1 1 1 11
8 2 0 0 0 0 0 0 0 0 0 0 0 0 0 0 0 0 0 0 0 0 0 0 565 1079 1658 1105 1208 1319 1070 545 457 442 487 490 432 666 553 315 21 8 6 4 2 2 2 2 1
5 0 0 0 0 0 0 0 0 0 0 0 0 0 0 0 0 0 0 0 0 0 3 0 150 738 1300 1296 1313 1485 1081 787 578 607 190 372 443 350 383 124 7 10 4 4 3 7 6 1 3
0 0 0 2 0 0 0 0 0 0 0 0 0 0 0 2 0 0 0 0 0 0 4 44 17 416 1008 1497 1527 1710 1130 925 699 590 353 191 281 151 199 92 73 6 10 3 4 18 69 13 0
0 12 9 4 3 10 0 0 0 1 2 0 10 7 12 20 27 27 18 0 0 0 0 29 38 266 972 1404 1672 1790 1160 1029 842 661 280 56 138 146 146 95 25 16 10 5 5 12 37 52 25
15 52 85 73 70 6 2 0 0 39 34 1 9 24 37 40 51 42 40 114 4 0 0 45 99 292 879 1412 1590 1436 1131 1160 969 575 230 147 39 28 111 227 117 16 3 11 2 4 3 8 4
55 48 27 21 28 11 7 0 44 63 67 14 34 16 23 23 21 11 33 312 187 2 0 0 27 455 642 1244 1364 1471 1242 1200 851 547 224 113 45 12 13 27 94 50 29 1 2 5 0 0 4
27 46 10 20 42 25 26 78 142 94 63 33 19 35 36 25 10 3 2 0 358 166 0 30 372 580 688 1269 1344 1410 1457 1078 885 532 179 113 61 10 24 25 35 27 33 13 2 2 0 0 0
50 60 56 62 28 25 11 39 163 28 12 7 8 50 15 8 6 5 0 0 0 131 65 625 844 745 953 514 520 1029 951 1132 761 395 160 98 10 6 16 14 19 51 39 16 8 4 4 7 6
83 61 77 76 102 109 57 164 79 11 6 16 40 41 7 9 6 2 0 0 0 20 645 940 897 857 365 150 188 589 882 1027 628 254 89 39 7 5 6 12 9 1 0 0 7 10 7 2 2
94 111 92 81 54 19 76 89 30 3 2 25 69 25 4 7 1 1 0 0 0 0 576 461 517 336 288 96 66 469 878 774 481 150 70 27 4 3 6 11 3 12 7 3 2 0 0 1 1

GFSSGP_con_sbcape_108.txt.gz
CAPE
0 0 0 0 0 0 0 0 0 0 0 0 0 0 0 0 0 104 898 1316 1813 1245 1109 1173 1357 1593 1723 1806 1943 2082 2160 2201 2216 2185 2239 2279 2349 2450 2528 2503 2444 2494 2004 2149 1966 1953 1891 1612 1786
0 0 0 0 0 0 0 0 0 0 0 0 0 0 0 0 10 179 822 1089 1424 1323 1127 1240 1276 1506 1694 1840 2075 2241 2388 2346 2268 2233 2309 2349 2426 2371 2416 2475 2316 2136 2115 1924 1730 1866 1837 1818 1685
0 0 0 0 0 0 0 0 0 0 0 0 0 0 0 0 0 115 798 601 808 1315 1252 1355 1238 1376 1673 1820 2071 2218 2285 2264 2278 2220 2397 2441 2408 2242 2382 2220 2199 2063 2250 2291 1647 1735 1874 1682 1421
0 0 0 0 0 0 0 0 0 0 0 0 0 0 0 0 0 212 352 309 548 1052 1628 803 1130 1277 1646 1883 2139 2257 2206 2114 2149 2191 2356 2497 2296 2144 2274 2017 2067 2083 2125 2239 2128 2138 1743 1323 1218
0 0 0 0 0 0 0 0 0 0 0 0 0 0 0 0 0 177 248 454 788 1871 1693 1124 1066 1217 1586 1904 2163 2228 2119 2050 2041 2207 2302 2364 2263 2227 1976 1857 1945 1891 1951 2261 2094 1847 1457 1191 1097
0 0 0 0 0 0 0 0 0 0 0 0 0 0 0 0 16 269 557 1011 1680 2567 2341 1336 1134 1220 1365 1646 1823 1890 1961 1900 1761 1774 2105 2289 2088 1946 1804 1730 1785 1759 1705 1708 1639 1482 1262 1046 926
0 0 0 0 0 0 0 0 0 0 0 0 0 0 0 0 68 358 994 1725 2246 2660 2782 1932 1483 1318 1155 1149 1261 1509 1606 1597 1477 1571 1954 1960 1756 1702 1636 1529 1526 1512 1398 1282 1403 1234 1012 637 552
0 0 0 0 0 0 0 0 0 0 0 0 0 0 0 9 121 479 1119 1991 2794 2886 3062 2302 1980 1605 1484 1303 956 1150 1373 1303 1435 1548 1624 1427 1391 1269 1151 1071 1119 1051 1106 1111 959 710 470 315 178
0 0 0 0 0 0 0 0 0 0 0 0 0 0 0 0 689 811 988 1661 2463 2725 2798 2870 2344 1950 1858 1622 1176 829 1003 1217 1238 1310 1142 1024 1421 1049 935 763 659 652 405 829 815 459 208 109 109
0 0 0 0 0 0 0 0 0 0 0 0 0 0 0 0 81 1035 1014 1289 2063 2502 2646 2600 2488 2207 2231 1514 1523 1368 1315 1240 1252 1489 1380 1538 1519 1392 1088 743 604 546 504 674 466 205 73 68 91
0 0 0 0 0 0 0 0 0 0 0 0 0 0 0 0 0 272 804 1164 1806 2063 2176 2158 2525 2454 2293 1577 2007 1687 1556 1516 1447 1432 1655 1593 1357 1363 1006 1030 433 555 579 618 197 47 44 34 43
0 0 0 0 0 0 0 0 0 0 0 0 0 0 0 0 0 0 215 739 1107 1431 1755 1889 2189 2639 2167 1806 2185 2050 1818 1957 1855 1807 1581 1443 1290 1155 1129 1092 893 685 496 554 185 89 85 7 1
0 0 0 0 0 0 0 0 0 0 0 0 0 0 0 0 0 0 0 54 599 1025 1523 1699 2045 2317 2488 2647 2051 1768 1927 1894 1923 1672 1618 1402 1309 1140 1134 1001 1008 835 805 597 348 192 51 5 3
0 0 0 0 0 0 0 0 0 0 0 0 0 0 0 0 0 0 0 0 7 507 1261 1778 1881 2355 2401 2053 2355 1803 1746 1699 1471 1462 1292 1469 1308 1137 931 904 807 738 737 579 464 268 43 13 10
0 0 0 0 0 0 0 0 0 0 0 0 0 0 0 0 0 0 0 0 0 2 860 1900 1939 2511 2284 2097 2138 1692 1367 1051 1018 1108 1005 1251 1372 1073 775 803 754 658 605 609 358 291 50 8 28
0 1 0 0 0 0 1 0 0 0 0 0 0 0 0 0 0 0 0 0 0 0 5 2058 1999 2197 2309 2082 1952 1541 1556 1092 826 836 1011 753 1077 1149 900 740 586 368 531 432 401 246 127 18 22
0 0 0 0 0 0 0 0 0 0 0 0 0 0 0 0 0 0 0 0 0 0 0 2052 2022 2252 2120 2151 1835 1706 1684 1244 1022 672 671 729 912 954 842 632 519 478 391 332 269 196 88 30 33
0 0 0 0 0 0 0 0 0 0 0 0 0 0 0 0 0 0 0 0 0 0 0 1829 2188 2337 2043 1942 1822 1627 1525 1017 907 701 736 749 651 904 953 706 495 316 283 96 78 32 57 22 36
0 4 5 0 0 0 0 0 0 0 0 0 0 0 0 0 0 0 0 0 0 0 0 1003 2131 2323 2025 1870 1723 1577 1399 1125 792 657 545 482 599 759 851 518 308 190 80 55 1 11 31 23 33
0 1 5 3 2 0 0 3 3 0 0 0 0 0 0 0 0 0 0 0 0 0 0 447 1965 2289 1972 1832 1579 1479 1391 906 493 316 356 583 660 798 640 353 15 0 0 1 2 2 7 7 8
0 0 8 0 0 0 0 0 0 0 0 0 0 0 0 0 0 0 0 0 17 12 37 4 554 2125 1896 1576 1214 1145 797 424 349 467 335 372 539 461 538 141 0 0 0 2 1 0 0 0 4
2 0 18 0 0 0 0 0 0 0 0 0 0 0 0 0 0 0 0 0 1 24 85 6 69 1152 1802 1399 1026 882 810 501 345 451 224 301 306 425 415 103 0 0 2 1 1 0 0 0 1
0 9 3 0 0 0 0 0 0 0 0 0 0 2 0 0 0 0 0 0 0 0 0 71 23 336 1318 1505 1075 1003 1235 755 319 441 292 188 447 308 358 127 2 1 1 1 1 0 0 0 0
3 0 0 0 0 7 0 0 0 0 0 8 39 0 3 19 16 16 9 20 11 0 0 0 75 74 662 1512 1255 1255 1247 938 626 607 307 216 177 259 207 98 3 1 1 1 1 1 1 0 2
0 2 13 19 7 0 0 0 0 15 49 107 39 55 23 26 10 2 2 1 10 67 134 0 0 29 283 1464 1385 1344 1471 1135 810 637 450 164 134 116 135 87 47 9 1 2 0 2 8 0 1
0 0 24 8 1 0 0 0 0 26 133 99 126 113 22 1 0 0 0 0 0 0 1 0 0 9 165 1167 1532 1254 1647 1061 1006 791 411 118 99 44 9 111 17 3 1 1 1 1 0 0 0
2 6 0 0 12 41 0 86 8 53 140 157 113 72 6 0 0 0 0 0 0 0 0 0 0 0 80 771 1459 1276 1403 993 1170 698 433 339 144 18 0 24 59 9 3 3 1 1 2 1 0
40 9 15 8 80 50 6 27 111 17 42 75 105 18 0 0 0 0 0 0 0 0 0 0 114 0 312 1090 1268 1421 1235 1227 1050 648 543 355 158 9 0 1 15 32 10 1 0 0 0 0 0
33 27 17 20 15 14 52 144 15 5 0 71 10 2 0 0 0 0 0 0 0 0 0 1 520 698 1109 1212 1074 1082 996 1038 1006 621 433 354 14 0 0 3 10 10 13 2 0 1 0 0 0
2 4 6 68 16 29 5 14 5 84 63 17 1 1 0 0 1 2 0 0 0 0 1 1 1 180 396 582 354 550 677 819 660 473 413 75 1 0 1 6 2 3 1 0 1 1 1 1 2

GFSSGP_con_sbcape_111.txt.gz
CAPE
0 0 0 0 0 0 0 0 0 0 0 0 0 0 0 0 9 288 855 623 690 904 1117 1231 1295 1447 1554 1673 1810 1760 1900 2027 2063 2046 2001 2079 2207 2280 2270 2291 2467 2606 2612 2137 1933 1890 1788 1805 1658
0 0 0 0 0 0 0 0 0 0 0 0 0 0 0 0 264 843 1208 830 823 827 993 1074 1217 1390 1535 1630 1740 1913 2114 2127 2079 2120 2139 2209 2302 2296 2318 2213 2181 2148 2416 2372 2010 2068 1904 1746 1647
0 0 0 0 0 0 0 0 0 0 0 0 0 0 0 0 376 485 1236 993 784 782 981 1134 1150 1332 1538 1669 1825 1961 2039 2017 2030 2099 2279 2349 2350 2319 2327 2080 1999 2096 2352 2415 1978 2113 1949 1657 1383
0 0 0 0 0 0 0 0 0 0 0 0 0 0 0 0 235 593 933 1045 752 941 1116 928 1091 1283 1557 1782 1910 1986 1625 1806 1895 2016 2283 2418 2340 2340 2195 1913 1947 2145 2373 2305 2299 1936 1836 1335 1179
0 0 0 0 0 0 0 0 0 0 0 0 0 0 0 0 231 138 304 935 995 1135 852 888 1015 1245 1576 1918 2000 1944 1656 1666 1891 1996 2153 2309 2224 2230 1933 1787 1854 1932 2189 2280 2281 1991 1468 1181 1077
0 0 0 0 0 0 0 0 0 0 0 0 0 0 0 0 9 3 265 1582 1490 959 853 884 1017 1204 1494 1820 1855 1790 1747 1779 1820 1950 2039 2169 2016 1875 1789 1740 1723 1685 1850 1916 1805 1505 1259 1100 1006
0 0 0 0 0 0 0 0 0 0 0 0 0 0 0 0 0 111 860 1841 1711 1274 825 891 1003 1086 1251 1463 1590 1634 1660 1544 1329 1392 1814 1963 1767 1585 1529 1619 1674 1596 1539 1528 1447 1237 1089 987 803
0 0 0 0 0 0 0 0 0 0 0 0 0 0 1 0 16 535 1215 1952 2114 1540 1092 847 841 788 692 860 1225 1346 1434 1291 1096 1124 1331 1740 1546 1433 1269 1330 1408 1423 1305 1325 1278 941 744 594 496
0 0 0 0 0 0 0 0 0 0 0 0 0 0 0 176 116 765 1630 1771 2254 2019 1385 1130 980 876 729 641 809 1076 1141 1175 1234 1242 1394 1276 1058 1085 1092 837 995 1028 1009 1003 848 596 380 262 166
0 0 0 0 0 0 0 0 0 0 0 0 0 0 0 8 426 593 1352 1828 1997 2219 1884 1491 1141 1041 963 1052 701 571 730 687 720 951 790 796 776 615 661 554 588 475 511 699 595 363 122 44 35
0 0 0 0 0 0 0 0 0 0 0 0 0 0 0 0 0 470 927 1706 2116 2111 2302 1850 1496 1377 1322 1252 629 683 594 533 570 864 710 764 848 681 455 211 321 173 81 363 266 78 3 1 18
0 0 0 0 0 0 0 0 0 0 0 0 0 0 0 0 0 1 434 924 1824 2148 2091 2030 1714 1638 1468 1044 990 909 871 695 650 528 723 732 559 540 438 187 24 72 131 44 0 0 0 0 0
0 0 0 0 0 0 0 0 0 0 0 0 0 0 0 0 0 0 0 342 1447 1886 1909 1881 1817 1744 1272 1130 1514 1125 992 988 969 855 682 574 545 330 360 363 57 121 33 20 0 0 0 0 0
0 0 0 0 0 0 0 0 0 0 0 0 0 0 0 0 0 0 0 0 288 1496 1639 1596 1758 1798 1459 1278 1607 1211 948 1206 1021 804 770 605 508 371 358 262 336 191 139 9 0 0 0 0 0
0 0 0 0 0 0 0 0 0 0 0 0 0 0 0 0 0 0 0 0 0 224 1276 1393 1622 1889 1623 1588 1434 1122 876 804 590 649 651 713 602 416 324 178 156 151 131 15 0 0 0 0 0
0 0 0 0 0 0 0 0 0 0 0 0 0 0 0 0 0 0 0 0 0 0 881 1291 1688 1790 1862 1528 1244 1090 763 449 451 336 346 794 738 348 217 198 143 49 54 33 3 1 1 1 1
0 0 0 0 0 0 0 0 0 0 0 0 0 0 0 0 0 0 0 0 0 0 1 1249 1568 1821 1784 1428 1133 823 637 415 275 322 383 402 715 427 222 144 158 82 6 0 0 0 5 1 4
0 0 0 0 0 0 0 0 0 0 0 0 0 0 0 0 0 0 0 0 0 0 0 1310 1390 1876 1760 1428 1205 910 577 442 374 280 234 243 422 413 163 101 69 25 14 30 0 1 0 1 4
0 0 0 0 0 0 0 0 0 0 0 0 0 0 0 0 0 0 0 0 0 0 0 1461 1456 1686 1695 1654 1314 1144 827 562 505 266 255 213 202 310 187 112 42 34 90 108 32 0 9 1 0
0 0 0 0 0 1 8 0 0 0 0 0 0 0 0 0 0 0 0 0 0 0 0 1559 1628 1737 1693 1752 1386 1098 589 109 76 46 226 233 164 216 201 119 22 29 0 1 0 4 4 9 15
0 0 0 0 0 1 0 0 0 0 0 0 0 0 0 0 0 0 0 0 0 0 0 1426 1793 1819 1630 1497 1024 615 229 83 57 24 50 102 135 190 303 23 1 0 0 0 1 0 1 4 29
0 0 0 0 0 39 0 0 0 0 0 0 0 0 0 0 0 0 0 0 0 0 0 103 1906 1822 1549 1245 1276 995 716 575 310 114 51 80 88 112 78 1 0 0 0 0 0 0 7 6 13
0 0 0 16 19 0 0 0 0 0 0 0 0 1 0 0 0 0 0 0 0 0 0 0 0 1717 1528 1299 1117 848 406 195 7 62 53 67 47 26 33 0 0 0 0 0 0 2 4 1 0
1 14 101 1 0 0 0 0 0 0 0 42 42 10 0 0 0 0 0 0 0 0 0 0 0 0 1196 996 859 839 615 178 44 67 81 95 90 44 42 0 0 0 0 0 0 3 1 0 0
3 105 10 0 0 0 0 0 0 3 212 204 54 1 0 0 0 0 0 0 0 0 0 0 0 0 0 847 596 625 434 295 41 50 74 99 61 143 66 3 0 0 0 0 1 2 0 0 0
0 3 2 2 0 0 0 0 0 6 162 96 0 0 0 0 0 0 0 0 0 0 0 0 0 0 0 695 788 652 520 393 167 88 87 87 75 38 65 32 0 0 0 0 1 2 1 0 0
0 0 13 7 4 0 0 0 55 131 226 29 0 0 0 0 0 0 0 0 0 0 0 0 0 0 0 39 964 683 776 569 309 263 119 61 23 2 28 32 9 0 0 0 2 3 1 0 0
3 0 10 10 25 32 16 19 61 2 18 3 1 0 0 0 0 0 0 0 0 0 0 0 0 0 16 16 970 763 739 612 354 239 73 21 2 15 0 36 0 0 0 0 1 0 2 0 0
21 28 47 50 26 10 12 30 23 9 38 17 6 2 1 2 0 0 0 0 0 0 0 0 0 1 0 64 762 711 721 402 307 250 121 42 0 0 0 0 10 0 1 1 1 1 0 0 1
5 43 8 43 6 3 12 6 41 15 14 6 3 3 1 0 0 0 2 0 0 2 0 1 2 1 2 0 3 201 294 357 236 147 1 0 0 0 0 0 0 3 1 2 1 0 0 0 0